GEFSSGP_500_meanwind_006.txt.gz
Wind_Speed
14 13 11 12 8 6 8 7 7 7 8 8 6 6 6 6 4 4 4 3 2 3 4 6 7 8 9 11 12 10 9 11 13 15 17 18 17 16 14 14 17 19 19 18 17 14 13 13 13
10 8 6 8 10 10 8 7 6 5 5 7 5 5 5 6 5 4 5 5 5 6 6 7 8 8 8 9 10 8 7 8 10 13 15 16 16 14 14 15 17 18 18 18 19 16 14 13 13
9 7 5 5 7 9 8 7 5 3 2 2 2 2 4 5 5 4 4 5 6 8 8 9 9 10 9 8 9 8 7 6 8 9 11 13 14 14 14 15 17 18 18 19 19 19 17 15 14
10 9 6 5 7 10 9 8 4 1 2 2 2 1 1 2 4 5 4 4 5 7 8 9 10 11 10 9 9 11 11 10 10 11 10 11 13 14 15 15 16 17 17 17 19 19 19 17 15
10 8 2 2 9 10 9 7 5 5 3 3 5 6 5 4 4 7 7 5 6 8 8 9 10 11 12 12 12 13 15 15 15 14 12 12 12 13 14 16 16 16 16 16 17 18 18 18 16
11 5 1 2 5 8 8 9 11 13 5 3 5 8 7 5 5 7 9 8 7 8 9 10 11 11 12 12 13 13 14 15 15 14 14 14 13 12 12 14 15 16 16 16 17 18 17 16 15
14 7 5 5 5 5 4 9 13 14 10 7 7 9 8 6 4 6 9 11 9 9 10 11 12 12 11 11 10 10 11 11 12 12 12 11 11 10 10 12 13 14 14 15 16 16 17 16 16
18 13 11 10 9 6 2 9 13 13 11 8 8 8 7 5 4 5 7 10 11 11 12 12 12 11 10 10 9 8 8 9 9 9 9 10 11 11 12 13 14 13 13 13 14 14 14 16 17
22 20 17 16 12 9 6 9 11 12 14 12 9 7 7 7 7 7 7 10 11 11 11 12 12 12 11 12 12 13 13 14 14 14 15 15 14 14 13 14 14 14 14 15 14 13 13 14 16
22 24 23 22 19 12 8 8 11 15 18 18 15 10 9 9 10 11 11 11 14 13 13 13 14 15 16 17 19 20 21 21 21 21 21 21 19 18 18 17 18 17 17 16 17 16 15 16 17
22 25 26 24 20 14 9 10 14 20 23 24 23 19 15 15 17 17 16 15 16 18 20 21 21 21 22 22 24 25 25 25 25 26 26 26 25 25 25 24 23 22 21 20 19 18 18 18 19
22 24 26 25 21 14 11 12 15 23 27 29 29 26 22 19 20 23 24 23 23 23 23 25 27 27 28 27 28 28 29 30 30 30 30 30 30 29 29 29 29 29 28 27 25 23 22 22 23
25 26 26 24 23 19 17 16 17 26 32 34 34 32 30 27 24 24 25 27 29 29 28 28 30 32 33 34 33 33 33 35 36 35 35 35 34 33 33 32 32 32 33 32 31 29 27 27 27
29 28 26 23 23 24 25 25 25 30 35 38 38 37 37 34 31 29 28 29 31 32 33 33 34 35 37 38 39 39 39 40 40 41 41 41 38 36 36 36 35 35 35 35 34 33 32 32 31
32 31 29 27 27 28 31 31 30 32 35 37 38 38 38 37 36 35 34 33 32 33 35 38 39 39 40 40 41 42 43 43 42 42 40 38 35 33 34 35 35 36 36 36 35 33 34 36 36
33 32 32 31 31 32 34 35 33 32 33 34 35 37 38 38 38 37 37 36 35 34 34 37 39 40 41 41 41 41 41 40 40 38 37 36 36 35 35 36 35 36 38 38 37 36 36 38 39
32 32 30 30 31 32 32 31 29 27 26 28 32 36 38 37 35 35 36 37 35 34 34 36 37 37 38 37 37 37 38 39 39 38 38 39 39 38 38 39 39 40 41 41 40 39 38 39 42
25 23 20 20 20 21 22 22 22 24 26 29 33 36 36 33 30 32 36 40 41 39 36 35 35 35 36 36 36 37 38 39 38 38 39 40 41 41 42 42 43 43 44 43 42 41 41 42 43
15 15 14 15 15 17 19 22 23 26 29 34 36 36 34 31 30 32 34 37 38 39 40 39 37 35 36 36 37 38 40 41 41 41 41 42 42 42 42 42 42 42 43 43 43 43 43 44 45
14 18 21 21 22 23 26 28 30 31 32 35 36 35 34 31 31 33 35 35 33 33 36 39 38 37 36 36 36 36 37 39 40 40 40 40 40 39 40 40 40 40 40 41 42 42 42 42 43
14 18 22 26 25 26 29 30 32 34 35 35 34 33 31 31 33 34 35 32 32 33 34 35 36 37 37 38 36 35 34 34 34 35 36 36 35 35 36 37 38 39 40 41 42 43 43 42 43
18 19 19 22 29 33 34 36 36 35 34 32 29 27 26 29 32 35 34 33 33 34 35 34 34 35 36 37 38 39 38 36 35 35 35 36 37 36 36 37 39 41 42 43 43 43 44 45 45
17 17 18 18 20 25 30 34 30 26 24 21 20 20 23 28 30 30 31 32 33 34 35 37 39 39 39 40 41 42 43 42 40 39 39 39 39 40 40 41 42 43 43 43 42 43 44 45 46
11 11 11 13 14 16 19 23 19 17 17 17 19 21 24 27 29 29 30 30 31 31 33 35 37 40 41 43 43 44 44 44 43 43 42 41 41 41 41 42 42 43 43 43 43 44 45 46 47
8 8 7 7 10 12 15 17 16 16 17 19 21 23 25 27 28 29 29 27 26 27 28 31 33 36 39 42 44 45 45 45 45 44 44 43 42 41 41 42 42 43 44 45 45 45 45 46 47
10 11 10 8 8 9 13 16 16 17 20 23 24 25 26 27 27 28 29 28 28 29 30 31 32 34 36 38 40 42 43 44 45 45 46 45 44 42 42 42 43 43 45 46 47 46 45 45 46
10 12 12 11 10 10 13 18 20 22 24 25 26 25 24 25 27 30 32 33 33 34 35 36 35 35 36 37 38 39 40 42 42 43 45 46 46 45 44 44 43 44 45 45 43 41 39 41 41
10 10 12 12 13 12 11 16 21 24 26 26 27 27 27 27 28 30 32 33 34 36 37 37 37 37 36 36 37 37 37 38 39 40 41 42 43 44 44 44 44 44 42 39 35 33 32 32 32
11 9 10 11 13 13 10 8 16 23 26 28 29 28 29 29 30 32 33 33 33 35 37 38 39 39 38 38 37 35 34 34 35 36 38 39 40 41 40 40 40 38 36 31 26 23 21 22 22
15 15 15 16 16 17 16 10 17 23 27 29 30 32 33 35 36 37 37 37 36 36 38 40 40 40 40 38 38 37 34 32 32 32 32 33 34 34 35 34 32 31 28 23 19 17 17 17 20

GEFSSGP_500_meanwind_012.txt.gz
Wind_Speed
4 2 3 3 3 4 6 7 7 9 11 9 8 8 8 7 5 5 5 5 6 7 7 6 6 7 8 9 9 8 9 10 11 12 13 13 13 13 13 14 14 15 15 16 17 17 15 14 14
6 3 1 0 2 4 5 6 7 8 8 7 6 7 7 8 7 6 5 5 5 6 7 6 5 6 7 7 8 8 9 9 9 9 9 9 9 10 11 12 12 12 13 13 14 14 14 12 12
8 7 4 3 1 3 5 6 7 6 6 6 6 6 7 7 8 7 6 6 5 5 5 4 5 5 6 6 6 7 7 7 7 6 6 6 6 7 8 9 10 10 10 10 11 11 11 11 10
9 8 7 6 4 3 5 6 6 5 4 4 5 7 8 8 9 9 8 8 7 6 5 5 5 5 5 5 5 5 5 5 4 4 4 4 4 5 6 7 8 9 9 9 9 9 9 8 8
11 10 9 7 6 5 5 6 5 4 4 5 5 7 8 8 9 9 9 9 9 8 8 8 7 7 6 5 4 4 4 4 4 4 4 4 4 5 6 7 9 9 10 10 10 9 9 8 7
15 14 12 10 9 7 5 3 2 3 6 6 5 6 6 6 7 7 8 8 9 9 9 9 9 8 6 5 3 3 3 3 4 4 4 4 5 6 8 10 12 13 14 13 11 10 9 9 8
19 18 16 15 14 12 10 6 2 3 6 6 5 4 4 5 5 6 7 7 8 9 9 9 9 9 7 6 5 4 3 4 5 5 6 7 8 10 12 14 15 16 16 16 15 12 10 9 9
22 21 20 19 17 15 13 10 5 2 6 7 6 4 4 4 5 7 9 9 9 9 9 9 9 10 10 9 8 7 7 8 9 10 11 12 13 15 17 18 18 18 18 18 19 18 15 13 11
25 23 21 19 17 16 13 11 8 5 5 4 3 3 5 8 10 12 13 14 14 13 11 11 12 12 13 13 14 14 14 15 16 16 17 17 18 19 20 21 22 22 21 22 22 22 20 17 16
27 26 24 21 18 16 15 14 12 7 6 4 2 3 7 11 15 18 19 19 20 20 19 17 18 18 18 19 20 21 21 22 23 23 23 23 23 23 24 25 26 26 25 25 25 25 24 23 21
29 29 27 24 20 18 17 16 14 10 9 9 9 10 12 16 19 22 24 25 25 25 25 24 24 24 24 25 26 27 27 28 28 29 29 29 29 29 29 29 30 30 30 30 29 28 28 27 27
25 31 30 27 24 21 20 19 16 15 14 14 15 17 19 22 25 27 29 29 29 29 29 29 29 29 29 30 31 31 31 32 33 34 34 34 35 34 34 34 34 34 35 35 34 33 32 31 31
22 27 28 28 27 26 24 23 22 21 20 20 21 23 25 28 31 32 31 30 30 31 31 32 33 34 34 35 35 35 35 35 36 36 37 38 39 39 39 38 38 38 39 39 38 36 35 35 35
25 24 25 26 28 29 29 28 27 25 25 26 27 29 31 33 34 34 33 32 31 30 29 30 33 35 37 38 38 39 39 38 38 39 40 41 42 43 44 43 41 41 42 43 42 40 38 38 38
29 27 27 28 30 30 31 30 29 28 30 31 33 34 35 36 35 34 31 30 29 28 27 27 28 31 34 35 36 37 38 39 38 39 40 40 41 41 41 40 39 38 39 40 40 40 40 40 39
33 32 33 34 34 33 33 32 32 33 34 35 37 37 37 36 33 31 30 28 28 28 28 27 27 28 29 31 32 33 34 36 37 37 37 38 38 38 37 36 36 38 39 38 37 37 38 39 39
36 36 37 38 38 37 36 35 36 36 37 38 39 38 36 32 28 28 29 29 29 29 29 28 25 24 25 26 28 29 31 33 35 36 37 39 40 40 40 39 39 39 40 40 40 41 42 42 42
33 36 38 39 40 40 39 38 38 37 37 37 36 34 31 27 26 29 30 31 30 30 29 28 27 26 25 25 25 27 29 31 34 36 37 38 39 40 41 41 42 42 42 42 43 44 44 44 43
29 31 34 36 37 37 38 37 36 34 33 32 31 30 28 27 29 32 33 32 31 30 29 28 28 28 28 28 28 28 29 30 32 33 34 35 36 37 38 38 38 39 39 40 41 42 42 42 42
26 28 30 32 32 32 33 33 33 33 31 30 30 30 30 31 33 35 35 32 31 30 29 29 30 30 29 29 30 31 32 33 34 35 36 36 36 37 37 37 36 36 35 35 36 37 38 38 38
23 26 28 29 29 29 31 31 31 31 31 31 31 32 33 35 36 35 33 30 29 30 31 32 31 30 30 30 30 30 31 32 34 36 37 38 39 39 39 39 39 38 36 35 35 35 35 36 36
19 21 23 25 26 28 30 32 32 33 34 35 36 36 37 37 35 32 29 28 29 31 31 31 29 28 28 28 27 26 27 29 31 33 35 36 38 40 41 41 41 41 40 38 37 36 36 37 37
18 19 20 20 22 25 29 33 33 33 36 39 39 38 36 34 31 28 26 27 29 30 29 28 26 25 23 22 22 22 24 26 29 32 34 35 36 38 39 40 41 41 41 40 39 38 37 37 37
12 14 15 16 18 20 23 25 25 26 28 31 31 30 28 26 25 25 26 27 28 27 26 25 24 22 20 20 21 23 25 26 29 31 33 35 35 36 37 39 40 41 42 41 40 39 38 37 37
11 13 15 16 17 17 19 20 19 19 20 22 23 23 23 24 24 25 25 25 26 26 25 24 22 21 22 23 25 27 28 30 31 32 34 35 36 36 36 36 38 40 41 41 42 41 40 39 39
12 14 16 17 17 16 19 19 18 19 19 21 22 23 23 24 23 22 22 23 25 25 24 23 23 24 26 28 30 31 32 34 35 35 36 37 37 37 36 35 36 37 38 40 41 41 42 41 41
12 13 15 18 18 18 18 19 19 20 20 21 23 23 22 20 19 19 21 23 25 26 26 26 27 29 31 33 34 35 36 37 37 37 37 37 38 39 38 36 34 34 35 36 37 38 40 41 41
11 12 14 17 20 19 17 18 20 20 21 22 23 23 23 22 22 23 25 27 28 30 31 32 33 34 35 36 36 38 39 39 39 39 38 38 38 39 39 37 34 32 32 33 33 34 36 37 38
15 16 17 19 22 24 22 19 20 22 24 26 27 28 28 29 29 30 32 33 35 36 37 38 38 37 37 37 37 39 40 41 41 40 39 38 38 39 39 37 33 31 30 30 29 30 31 32 33
19 21 23 25 25 26 27 26 25 26 28 30 32 33 34 35 36 37 39 40 41 42 43 43 44 43 42 41 40 40 42 42 41 40 39 38 38 38 38 37 33 31 29 27 26 26 26 27 27

GEFSSGP_500_meanwind_018.txt.gz
Wind_Speed
6 7 7 7 7 5 4 5 6 8 9 8 8 8 8 7 6 6 5 3 2 2 3 3 3 2 1 1 2 3 4 5 4 4 3 4 4 5 5 6 6 7 7 7 7 7 7 6 6
4 4 4 5 7 4 2 2 4 7 8 7 6 6 7 7 7 6 5 4 2 1 0 2 1 0 2 3 4 4 5 6 6 5 5 5 5 5 5 5 6 6 7 8 8 6 5 4 4
3 2 1 2 4 1 1 1 1 3 4 5 4 4 4 4 5 4 3 3 3 3 3 2 2 3 4 5 6 6 6 6 6 6 6 6 6 6 6 6 7 8 8 9 10 10 7 5 3
4 2 1 1 1 2 2 2 3 2 1 1 1 1 1 1 1 2 2 2 2 2 3 3 4 5 6 6 7 7 7 7 6 6 7 7 8 8 7 8 9 10 11 12 12 12 11 8 6
7 5 3 3 5 4 4 4 4 4 4 3 2 1 1 0 1 2 2 2 3 3 3 3 4 5 5 6 7 7 8 8 7 7 7 8 9 9 9 10 11 12 13 13 13 12 12 10 9
11 9 6 7 8 6 4 4 4 5 5 4 3 2 1 1 1 1 1 2 2 2 3 3 3 4 5 6 7 8 9 9 9 9 9 10 10 12 13 13 14 15 15 15 14 13 12 12 10
15 13 12 12 11 9 6 6 8 7 7 5 4 3 3 3 1 1 0 2 3 5 6 6 7 7 7 8 8 9 10 11 11 11 11 12 13 14 16 17 17 17 17 17 16 15 14 14 13
19 16 15 15 14 13 10 9 9 7 7 6 5 5 4 3 4 3 4 6 8 10 12 13 14 14 14 14 13 14 14 14 15 15 15 16 17 18 19 20 20 20 20 21 20 19 18 17 17
21 19 19 20 19 17 13 11 8 6 7 7 7 6 7 8 9 9 11 13 15 16 18 19 20 20 21 21 21 21 20 20 20 21 21 21 21 22 23 23 23 24 24 24 24 24 23 22 21
24 23 25 23 21 19 16 12 10 9 9 10 10 9 10 12 14 15 17 19 20 22 23 24 24 25 25 26 27 27 27 27 27 27 27 27 26 26 26 26 27 28 28 29 29 29 28 27 26
26 28 27 25 24 21 19 15 13 12 11 12 13 14 15 17 19 21 22 24 25 26 27 28 28 29 30 31 32 32 32 33 33 32 32 32 31 31 31 31 31 31 33 34 34 34 34 33 32
26 29 30 29 26 24 22 19 17 15 15 15 16 18 20 22 24 26 27 28 29 30 31 31 32 32 33 34 35 36 36 37 37 37 37 37 36 36 35 35 35 35 37 38 40 40 39 38 38
26 28 29 29 29 28 25 23 21 20 19 18 20 22 24 26 28 30 32 33 33 34 35 35 34 33 33 34 35 36 36 37 37 38 39 39 39 38 38 37 37 38 39 40 42 42 42 42 42
29 27 27 28 29 28 28 27 25 24 24 23 24 26 28 30 32 34 35 36 36 37 37 36 34 34 33 33 33 34 34 34 34 35 36 37 37 37 37 36 36 36 37 36 37 38 39 40 41
31 29 27 28 28 29 28 29 30 29 29 29 29 31 32 34 36 37 38 38 38 38 37 35 34 34 34 33 33 33 33 32 32 33 33 33 33 33 33 33 33 34 35 35 36 36 35 34 35
33 31 30 32 30 29 29 29 34 31 32 32 33 34 36 38 39 40 40 40 39 38 37 36 35 35 34 33 33 33 32 30 29 28 27 27 27 29 30 31 32 34 35 37 38 38 37 36 36
32 33 33 36 34 32 32 34 37 34 35 36 36 37 38 39 40 41 41 39 38 37 36 36 37 36 34 33 31 29 29 29 27 25 24 23 24 25 27 29 31 33 35 36 37 38 39 39 39
29 32 35 37 38 36 37 39 40 39 39 39 39 39 38 38 39 40 39 37 37 36 36 37 37 36 34 31 29 26 25 25 24 23 22 21 22 23 24 27 29 32 35 36 38 38 39 39 39
26 29 31 37 38 38 40 41 42 42 42 41 39 37 35 35 36 37 37 36 38 38 38 37 36 34 31 29 27 24 22 21 20 19 17 17 17 18 20 23 26 30 33 36 38 39 40 39 39
20 22 24 30 34 36 37 38 38 38 36 34 33 32 33 33 34 34 36 37 39 39 39 37 35 31 29 27 25 22 19 17 15 13 13 14 14 16 18 20 23 25 29 32 36 39 41 41 41
11 14 17 21 24 25 28 27 28 30 29 27 27 28 29 31 33 35 38 40 41 41 40 37 34 31 29 27 23 20 16 14 13 13 14 15 16 17 19 20 22 24 26 28 31 35 38 40 41
10 13 14 16 17 17 21 20 21 25 25 26 27 28 30 32 36 38 40 41 41 39 38 36 33 31 30 27 23 20 18 16 16 17 18 19 20 20 21 22 24 25 27 27 29 31 34 37 39
12 13 13 14 15 15 17 17 15 22 22 25 27 29 32 34 37 39 39 39 38 37 36 35 34 33 30 27 25 23 21 21 21 22 23 23 23 23 23 24 25 26 27 28 29 29 31 34 36
11 11 11 12 12 12 15 14 13 18 19 20 22 24 26 29 32 34 34 34 34 35 35 36 35 34 31 29 28 26 26 27 27 28 28 27 26 25 25 25 25 26 27 29 30 30 30 31 33
11 11 11 10 10 12 17 14 15 19 19 19 20 22 23 25 27 30 31 32 33 34 36 37 36 35 33 32 31 30 30 31 32 31 30 29 27 26 25 26 26 26 27 29 30 31 30 30 30
10 10 10 11 11 12 15 14 17 20 20 20 21 23 25 26 28 30 33 34 34 35 37 37 37 36 35 34 34 34 34 35 34 33 31 30 28 27 26 26 26 27 27 28 30 30 30 29 29
9 9 11 13 13 13 12 14 19 22 22 22 23 24 27 28 30 32 34 36 37 38 39 39 39 39 39 38 38 38 37 36 35 34 33 32 30 29 27 27 27 27 27 28 29 31 30 29 28
10 11 13 14 15 14 15 17 19 20 22 24 26 28 30 33 34 36 38 39 40 41 42 43 44 45 45 44 43 42 41 39 39 38 37 35 33 32 29 28 28 27 27 28 29 31 30 29 28
14 15 15 17 19 19 19 22 23 24 26 28 30 32 34 37 39 41 43 44 44 45 46 47 49 49 50 50 49 48 46 45 43 42 41 39 37 34 31 29 28 27 27 28 29 30 30 29 28
17 19 20 21 22 24 25 30 26 28 30 32 33 35 38 40 42 44 46 48 48 49 50 51 52 53 54 55 55 54 52 50 49 47 46 43 40 37 34 31 29 28 27 28 29 30 31 30 29

GEFSSGP_500_meanwind_024.txt.gz
Wind_Speed
10 11 10 10 8 11 6 2 4 4 2 2 3 4 3 2 1 2 2 1 1 1 1 1 2 2 2 4 6 8 9 11 12 12 12 12 10 9 9 9 10 10 11 12 12 11 11 10 9
8 8 8 8 8 9 2 6 6 4 2 2 3 3 2 2 2 3 2 2 2 1 1 2 3 3 3 5 7 9 10 11 12 12 12 12 11 10 9 9 9 10 11 12 12 12 11 10 9
5 5 6 4 6 6 3 7 6 5 4 4 5 5 4 4 4 4 4 3 3 3 3 4 4 5 5 6 7 9 10 11 12 12 12 12 12 11 10 9 9 10 11 12 13 13 12 10 9
3 4 4 4 3 1 3 8 7 7 6 6 8 8 8 7 7 6 5 5 4 5 5 6 6 6 6 7 7 9 10 11 12 13 12 12 12 12 11 11 11 11 12 13 13 13 13 11 10
3 3 3 3 5 4 8 9 8 8 8 9 9 9 10 9 9 8 6 5 4 4 5 5 6 7 8 8 9 10 11 13 14 14 14 14 14 14 13 13 13 13 14 14 14 14 14 13 12
6 5 3 5 12 7 6 8 9 8 10 10 11 10 11 9 8 6 5 3 3 3 4 5 7 8 10 11 12 13 14 15 16 17 17 18 17 17 16 16 16 16 17 16 16 15 14 14 14
9 8 4 4 16 12 8 8 11 10 11 10 12 12 12 10 8 6 5 4 3 4 6 8 10 12 13 14 15 16 17 18 19 19 20 20 20 20 20 20 20 20 20 19 19 18 17 17 17
12 10 7 3 16 17 9 8 11 13 15 10 12 15 11 11 9 7 7 6 7 8 10 12 14 15 16 17 18 19 20 21 22 23 23 24 24 24 24 25 25 24 24 23 22 22 21 21 21
15 13 8 4 14 17 13 10 11 15 17 16 16 19 13 12 11 10 10 11 12 13 14 16 17 19 20 21 22 22 23 24 25 26 27 28 28 29 29 29 29 29 29 28 27 26 26 25 25
17 15 10 12 16 13 13 13 12 15 17 17 19 20 14 12 13 14 14 15 16 18 18 19 20 22 24 24 25 26 26 27 27 28 29 30 31 32 33 33 34 33 33 32 32 31 31 30 30
19 19 18 20 20 21 19 15 14 15 20 25 25 21 13 11 14 17 18 19 20 22 23 24 25 26 27 28 28 28 28 28 29 29 30 30 31 33 34 35 35 36 36 35 35 35 34 33 33
22 24 26 27 25 25 25 21 17 15 21 29 33 31 26 16 18 22 22 23 24 25 27 28 29 30 32 32 32 31 30 29 29 30 30 30 30 31 32 34 35 35 36 36 36 36 35 35 34
24 25 27 28 28 28 27 26 23 20 23 30 35 35 31 23 23 26 26 27 27 29 30 32 33 34 35 36 35 34 32 32 31 30 30 31 30 30 31 31 32 32 33 33 33 34 33 33 33
24 26 27 27 26 27 26 26 25 22 24 30 35 33 30 26 27 30 31 31 31 33 34 35 36 37 37 37 36 35 34 34 34 33 32 31 31 30 30 28 28 28 28 27 27 28 29 30 30
25 26 26 26 24 23 24 25 24 21 23 29 33 34 34 32 32 36 35 34 36 37 38 39 39 39 39 38 36 34 35 36 36 35 33 32 31 29 28 26 26 25 25 25 26 27 27 28 29
21 22 23 22 21 21 25 26 21 19 25 31 33 35 36 35 37 40 39 40 41 42 41 41 41 40 39 37 36 35 36 37 35 34 32 31 29 28 26 25 24 24 24 24 25 26 25 26 28
12 16 16 16 17 22 25 23 20 22 28 32 33 34 37 38 40 41 43 44 46 46 45 44 41 40 38 36 36 37 37 36 34 32 30 29 28 26 24 24 23 22 22 21 21 22 22 24 26
8 10 12 12 17 25 25 22 22 25 30 33 35 37 40 42 42 44 47 47 48 49 45 42 40 38 37 36 36 37 36 34 32 31 30 28 26 24 23 23 20 19 18 18 18 19 20 22 24
15 15 13 12 17 25 28 26 26 28 32 36 38 40 43 44 46 49 49 49 47 46 43 40 38 37 37 37 37 37 36 33 31 30 28 27 25 23 21 20 18 17 16 17 17 18 19 21 23
8 10 13 16 20 24 28 28 26 27 29 34 38 39 41 43 45 45 46 48 45 43 37 34 35 36 37 38 38 37 35 32 30 28 26 25 23 21 19 17 17 17 17 18 19 19 20 21 23
8 10 13 17 20 22 22 21 18 17 22 28 32 34 37 40 41 41 41 39 36 34 32 31 33 36 37 38 37 35 33 31 30 27 25 24 22 20 19 19 19 20 20 20 21 20 20 21 23
10 13 18 19 19 18 16 16 14 16 21 26 29 31 34 37 40 40 38 36 29 28 29 32 34 35 36 37 37 34 32 31 29 27 26 24 23 23 22 22 23 23 23 23 22 21 21 21 22
11 13 13 12 12 12 12 12 15 18 21 26 29 31 33 37 38 37 39 39 35 32 30 33 34 35 35 35 35 33 33 31 29 27 26 26 26 26 26 27 27 27 26 25 24 23 22 22 23
10 8 6 11 15 19 19 13 15 21 24 28 31 33 35 36 37 38 38 38 38 39 37 35 35 34 34 34 35 34 33 31 29 28 28 28 29 30 30 30 31 30 29 27 26 25 25 25 25
9 9 10 14 21 25 14 7 18 23 24 26 29 31 33 35 36 37 38 38 39 39 40 40 37 36 35 36 37 37 35 32 31 30 30 30 32 33 33 33 33 33 31 29 28 27 27 27 27
10 8 10 15 16 18 19 19 24 27 28 28 29 31 35 36 37 39 40 41 42 42 43 42 42 42 41 41 42 41 40 38 36 35 33 34 35 36 36 35 35 34 33 32 31 30 30 29 29
12 11 11 15 14 13 16 28 29 28 31 30 30 35 39 40 41 43 45 46 47 47 48 48 48 48 48 48 47 47 46 45 43 42 41 39 39 39 40 39 37 36 36 35 34 33 31 31 30
16 17 16 16 17 17 16 29 32 33 33 36 39 41 42 43 44 46 48 50 51 52 53 54 54 54 54 55 55 54 54 53 52 50 49 48 46 44 44 43 41 40 39 38 37 35 33 32 32
16 17 18 20 20 21 21 29 32 35 37 40 41 43 45 46 48 50 52 54 55 57 58 59 60 60 60 60 60 60 60 60 59 58 57 56 54 51 49 47 45 44 42 41 40 38 36 34 33
17 21 22 23 23 23 25 33 33 35 39 41 43 46 48 50 52 54 56 57 59 60 61 62 63 64 64 65 65 65 65 64 64 64 63 62 60 58 55 52 50 47 45 44 43 41 39 36 34

GEFSSGP_500_meanwind_030.txt.gz
Wind_Speed
10 10 9 9 7 4 1 3 2 4 7 8 9 8 6 4 2 3 2 4 5 5 5 4 4 4 4 4 4 4 5 6 6 7 7 7 7 8 8 8 9 10 11 12 13 13 12 10 8
8 8 8 7 6 5 2 1 4 5 4 4 5 6 5 4 3 3 3 4 6 6 6 6 6 6 6 6 6 6 6 6 7 7 7 7 7 7 7 8 9 10 11 12 12 12 12 11 9
8 7 7 6 6 5 4 5 5 5 4 3 4 4 4 5 5 5 5 6 7 7 7 7 7 7 7 7 7 6 6 6 7 7 7 7 8 8 8 8 9 10 11 11 12 12 12 11 10
8 8 7 6 8 6 6 7 6 6 3 4 4 4 4 6 7 7 8 8 8 8 8 8 8 8 7 7 7 7 7 8 8 9 9 10 10 10 10 10 10 11 11 11 12 12 11 11 10
9 9 7 8 11 10 8 10 10 7 4 5 5 4 4 6 8 8 8 9 9 9 8 8 7 7 7 7 8 8 9 11 11 12 12 13 13 13 13 13 13 13 13 13 13 12 12 12 11
11 10 8 10 14 14 13 14 16 11 9 7 6 5 5 6 8 8 8 8 8 8 7 7 7 8 9 10 10 12 13 14 15 15 16 16 16 16 16 16 16 16 16 16 16 16 15 15 14
14 12 10 10 12 11 13 16 18 15 11 8 8 7 7 7 8 9 9 8 9 8 8 9 10 11 12 12 13 15 16 16 17 17 18 18 19 19 19 20 20 20 20 21 20 20 20 19 18
17 15 13 13 14 11 12 14 16 15 14 11 8 9 11 10 10 10 11 10 10 12 12 13 14 15 16 16 16 17 17 17 18 18 19 19 20 21 22 23 23 24 24 24 25 25 24 24 23
18 17 17 17 18 14 12 13 16 15 15 13 12 14 16 15 13 12 12 13 15 16 17 18 19 20 20 19 19 19 19 19 19 19 20 21 21 22 23 25 26 27 27 27 28 28 28 27 27
19 18 19 22 21 18 13 14 17 18 16 16 17 17 19 19 17 14 12 15 19 21 22 23 24 23 23 22 21 21 21 21 21 21 21 21 22 23 24 25 26 27 28 29 29 30 30 30 30
20 19 23 26 25 22 18 17 19 21 20 20 20 21 23 23 21 19 17 17 21 25 27 28 28 26 25 24 24 23 23 23 23 22 22 21 21 22 23 24 25 26 27 28 29 29 29 30 31
20 19 25 29 30 27 24 22 22 24 24 25 25 26 28 28 25 25 25 24 25 29 31 32 30 29 28 27 26 26 26 26 25 24 23 22 22 23 23 23 24 25 26 26 27 28 28 28 28
20 20 22 27 31 30 29 28 27 28 29 30 31 32 32 31 30 29 28 29 30 30 33 33 32 31 31 30 29 28 28 27 27 25 24 24 24 24 24 23 24 24 24 25 25 25 26 27 25
21 20 19 20 23 27 30 31 31 31 31 32 32 32 32 32 32 32 32 33 34 35 35 35 35 34 33 32 31 29 29 28 28 26 25 25 25 25 24 23 23 24 24 24 24 24 23 22 21
20 19 17 17 19 20 25 28 28 27 28 29 29 30 32 33 34 35 36 37 39 39 39 39 40 39 37 33 32 31 31 30 28 27 26 26 25 24 23 22 22 22 23 23 23 23 22 20 19
19 17 14 13 14 15 21 22 19 22 25 27 28 30 33 34 36 38 39 41 42 44 44 45 44 43 42 37 32 33 32 30 28 27 26 26 25 24 22 22 22 22 22 22 22 21 20 18 17
17 14 13 12 12 13 15 15 17 21 25 28 30 33 35 37 39 41 42 44 45 46 46 46 45 43 39 38 35 32 31 29 28 27 25 25 25 24 22 22 21 21 21 21 20 19 18 17 16
13 11 9 10 10 11 15 18 20 24 27 30 33 35 37 40 42 43 44 44 44 45 47 44 41 39 34 32 31 30 29 28 26 25 24 25 25 24 23 22 21 21 20 20 19 18 17 16 15
12 12 12 12 12 13 16 20 23 27 29 32 34 37 40 42 43 42 42 41 43 45 45 44 43 39 27 25 26 28 28 26 24 24 24 24 24 23 23 22 22 21 20 19 18 18 17 16 15
11 15 18 19 19 19 22 25 27 29 31 33 36 37 38 39 40 39 39 40 42 44 46 45 41 31 21 21 23 25 24 23 24 23 23 23 23 23 23 23 23 22 21 20 19 19 18 18 17
11 16 19 22 24 25 26 28 30 31 32 32 33 33 33 33 35 37 39 40 42 42 42 40 37 31 27 24 21 22 23 22 23 23 22 22 22 23 23 23 23 23 22 21 21 20 20 20 19
9 12 15 18 21 24 26 30 33 34 34 33 31 31 31 32 34 36 38 40 41 42 41 40 36 31 29 26 22 21 21 22 22 21 21 22 23 23 23 24 24 24 24 24 23 23 23 22 22
7 9 10 12 14 16 18 23 25 28 30 29 29 29 30 31 34 36 39 40 42 43 43 41 37 33 30 28 26 24 23 23 24 24 23 23 23 24 25 26 26 27 27 27 27 26 25 24 24
9 9 9 10 11 13 14 17 20 22 23 24 26 28 30 33 36 38 41 43 44 45 45 43 41 39 36 34 32 31 30 30 30 30 29 27 26 27 27 27 28 29 30 31 30 29 28 27 26
9 10 10 10 12 14 16 18 20 22 20 21 22 23 27 31 35 38 42 44 47 48 48 47 46 44 43 42 40 39 38 37 36 36 36 35 33 31 31 30 31 31 33 34 34 32 31 30 29
10 13 14 15 17 18 20 22 22 24 24 26 28 30 32 36 39 43 46 48 50 50 51 50 50 49 48 47 47 46 46 45 43 43 42 42 41 39 37 35 35 35 35 36 36 36 34 33 32
14 15 16 18 19 21 23 23 24 26 28 31 33 36 39 42 45 48 51 53 54 55 55 55 54 53 52 52 52 52 52 51 50 49 48 48 48 47 45 43 42 40 40 39 40 39 39 37 36
15 18 19 19 22 24 26 27 28 30 32 34 37 40 43 46 49 52 55 57 59 61 61 61 61 59 58 57 56 56 57 57 56 55 54 54 53 53 52 51 50 48 46 44 43 43 42 41 39
16 18 20 22 23 25 28 30 32 34 36 39 42 44 46 49 52 54 57 60 62 65 68 69 69 68 67 65 63 62 61 61 61 61 60 59 58 58 58 57 56 55 54 51 50 47 45 44 43
18 20 21 21 23 25 29 33 35 38 41 43 46 48 50 53 55 57 60 62 65 68 70 72 72 71 69 66 63 60 58 57 58 60 62 64 63 63 62 62 62 61 60 59 57 54 51 49 47

GEFSSGP_500_meanwind_036.txt.gz
Wind_Speed
6 6 5 4 4 4 4 5 7 7 7 7 6 4 2 2 3 5 7 8 9 10 11 11 11 11 10 10 9 8 6 5 4 3 2 2 3 3 4 5 5 6 7 8 9 10 10 9 7
8 8 8 7 7 7 6 7 7 8 9 8 7 6 4 3 3 5 6 8 9 10 11 12 12 12 11 10 10 9 8 6 5 4 3 3 4 4 5 6 6 6 6 7 7 8 9 8 7
10 10 11 10 10 9 8 8 8 8 9 9 8 8 6 6 5 6 7 8 10 12 13 14 13 13 12 11 10 10 9 8 7 7 6 6 7 7 7 8 8 8 8 8 7 7 7 7 6
12 13 13 12 13 12 11 11 10 10 9 8 8 8 7 7 8 8 9 10 11 12 13 14 14 13 12 11 10 10 10 10 10 10 10 11 11 11 11 11 12 12 11 11 10 9 8 8 7
15 15 15 15 15 14 14 14 13 12 11 8 7 7 7 8 8 9 10 10 10 12 13 13 12 11 11 11 11 12 12 13 13 13 14 15 15 15 15 15 15 15 15 15 14 13 12 11 10
17 17 17 17 18 17 17 16 16 14 12 9 7 7 7 7 7 8 9 10 10 11 12 12 12 12 12 13 13 14 14 15 16 16 17 17 18 18 19 19 19 19 19 18 18 18 17 16 15
19 19 19 19 20 20 20 19 18 17 14 10 7 7 7 7 6 7 8 9 11 12 13 14 14 15 15 16 16 16 17 17 17 18 18 19 20 21 21 21 21 21 22 22 22 22 21 21 19
21 21 20 21 21 23 23 22 21 18 15 11 9 8 8 8 8 8 8 9 12 14 15 16 17 18 19 20 20 20 20 20 20 20 20 20 21 22 23 23 23 24 24 24 25 25 25 25 24
22 22 21 23 24 25 25 24 23 21 17 14 11 9 9 9 9 10 10 12 14 17 18 19 20 21 23 23 24 24 24 24 24 23 22 22 22 22 23 24 24 25 25 25 26 26 27 27 26
22 22 22 26 27 27 27 26 25 23 21 18 15 13 13 13 13 13 13 15 18 20 22 23 24 25 26 28 28 29 29 29 28 27 25 24 24 23 23 24 24 25 25 25 25 26 27 27 27
21 20 22 26 28 28 28 28 27 26 24 21 18 17 17 17 17 18 18 20 21 23 25 27 28 29 30 32 32 33 34 33 32 30 29 27 25 24 24 25 25 25 25 25 25 26 26 26 27
20 20 21 24 28 30 30 30 30 29 26 24 22 22 22 21 21 21 22 23 25 26 28 29 31 32 33 35 36 37 35 35 35 35 32 30 28 26 26 26 26 26 26 26 26 26 26 25 25
21 20 20 21 26 29 31 32 33 31 29 28 26 26 26 25 25 24 24 25 27 29 30 31 33 34 34 36 36 37 37 37 38 38 36 33 30 28 28 27 27 27 26 26 27 27 26 25 25
21 20 21 23 26 28 30 31 33 33 32 32 31 30 30 30 28 27 27 27 29 30 32 33 35 37 37 37 38 37 37 40 42 40 38 35 33 31 29 28 27 27 27 27 27 27 27 26 25
21 21 22 24 26 27 29 30 31 31 32 34 34 32 32 30 28 28 28 29 31 32 33 36 38 37 38 39 39 38 39 38 40 42 42 39 37 33 31 29 28 27 27 27 27 27 27 27 25
20 21 23 24 25 25 26 27 27 29 30 32 32 31 30 29 29 29 30 32 34 35 36 39 40 38 38 39 38 39 39 39 39 41 42 39 37 34 31 29 28 27 26 26 27 27 27 26 25
20 20 22 23 24 24 23 23 22 23 25 27 28 28 28 28 29 31 33 35 37 38 39 40 40 38 38 39 39 39 40 37 37 37 38 38 36 32 30 30 29 26 25 25 26 26 26 25 25
18 19 21 22 22 22 21 20 19 19 21 23 25 27 28 30 32 34 36 38 39 39 40 40 40 38 38 39 40 39 38 34 31 31 34 33 34 31 30 29 28 27 25 25 25 25 24 24 24
18 18 19 21 21 21 20 19 19 19 21 23 25 28 30 33 35 37 39 39 40 40 40 39 39 38 38 39 39 38 36 33 26 25 29 30 31 31 30 30 29 28 26 25 25 24 24 24 24
15 17 18 19 20 21 21 20 21 22 24 26 29 31 34 37 39 41 41 40 40 41 40 40 39 40 40 40 39 38 36 33 26 23 24 25 29 30 30 29 29 28 27 27 26 25 25 24 24
13 14 16 17 19 19 20 21 22 24 26 28 30 32 35 37 39 39 38 39 40 40 41 41 41 42 42 41 40 38 35 32 28 26 25 24 25 26 28 29 29 28 28 28 28 27 26 26 25
9 10 12 13 15 17 18 19 20 23 25 27 29 31 32 32 33 34 36 38 39 40 41 43 43 44 43 42 41 39 37 34 31 29 28 27 27 28 28 29 29 29 29 29 29 29 28 28 27
6 7 8 9 11 13 15 16 18 21 22 24 26 27 27 29 30 31 33 35 37 39 41 43 44 45 45 45 44 42 39 37 35 33 32 30 30 30 32 32 31 31 31 31 31 31 31 31 30
6 6 7 9 10 12 14 16 17 20 22 23 25 26 28 29 31 33 35 36 38 40 42 44 45 46 46 46 46 45 43 41 40 39 38 37 36 35 35 36 35 34 33 33 33 33 34 33 33
8 8 9 10 10 12 14 16 18 21 23 25 26 28 30 31 33 35 37 39 40 41 42 44 44 45 46 47 47 47 47 46 45 44 43 43 42 41 41 40 39 39 37 36 36 35 36 36 36
10 11 13 14 15 16 17 19 21 23 25 27 29 31 33 34 36 38 39 39 40 41 43 44 46 47 48 49 50 50 50 50 50 49 49 48 48 47 47 46 45 44 43 42 40 39 38 38 39
11 13 15 17 18 20 20 21 23 26 28 30 33 35 36 38 39 40 41 42 43 44 45 47 48 48 49 49 49 49 49 49 49 49 51 52 53 53 53 53 52 51 49 48 46 45 43 42 42
12 14 16 18 21 22 22 23 25 27 30 33 35 37 39 41 43 44 45 47 48 49 50 50 49 48 47 46 45 44 44 45 46 46 48 50 53 55 58 59 58 57 56 54 53 51 49 48 46
13 15 17 19 20 23 25 26 28 30 33 35 38 40 42 44 46 48 49 51 53 53 53 52 51 49 46 45 44 43 43 44 44 45 46 47 50 53 57 61 63 64 63 61 60 58 56 54 51
14 16 17 19 21 23 26 28 30 33 35 37 39 42 44 47 49 50 52 54 55 54 53 52 51 49 48 47 48 48 48 48 47 46 46 47 49 51 53 57 62 65 67 67 66 64 62 60 57

GEFSSGP_500_meanwind_042.txt.gz
Wind_Speed
3 2 2 2 4 5 5 5 6 5 5 6 5 5 4 5 5 5 5 5 6 6 6 6 6 6 6 7 8 9 9 9 8 8 7 7 6 6 5 5 5 4 4 4 4 5 5 5 4
6 5 5 4 4 5 7 7 7 8 8 8 8 7 6 5 5 5 5 6 6 6 6 6 6 7 7 7 8 9 9 9 9 9 9 9 8 8 8 8 7 7 6 5 4 4 4 5 4
8 8 7 7 7 8 9 9 9 10 10 10 10 9 8 7 7 6 6 7 7 6 6 6 6 7 7 7 8 8 9 9 10 10 10 10 11 11 11 11 10 10 10 9 7 6 5 5 5
10 10 10 10 11 12 12 12 11 11 11 11 11 10 9 8 8 7 7 7 7 7 7 7 6 7 7 8 8 8 9 10 11 12 12 12 13 13 13 13 13 13 13 12 11 10 9 8 7
13 12 12 12 14 15 15 14 13 12 11 11 10 10 10 9 9 8 7 7 8 8 8 7 7 8 9 9 10 11 12 13 14 14 15 15 15 16 16 16 16 16 16 15 14 14 13 11 10
15 14 13 14 18 18 18 17 15 13 12 11 10 10 10 9 9 9 9 9 9 10 10 10 10 11 11 12 13 14 15 16 17 17 18 18 19 19 19 19 19 19 19 18 18 17 16 15 14
17 16 17 18 20 21 21 19 17 14 12 10 9 9 10 10 10 10 10 10 11 11 12 12 13 14 16 17 18 19 19 20 21 21 21 22 23 23 23 23 23 23 22 21 21 20 20 19 18
18 18 18 20 21 23 22 21 19 16 13 12 10 11 11 12 12 11 11 12 13 14 15 16 17 19 20 20 21 22 24 24 25 26 26 26 27 27 28 28 27 26 25 24 23 23 23 22 22
19 19 19 22 23 24 24 23 21 18 17 15 14 13 13 13 12 13 14 15 16 17 18 19 20 21 22 23 25 26 27 28 29 30 30 31 30 30 31 31 31 30 28 27 26 25 24 24 24
21 20 21 23 23 24 25 25 24 22 21 20 18 17 16 15 15 16 17 18 19 21 22 23 23 24 25 27 29 29 30 30 31 32 33 33 34 34 34 33 33 33 31 30 29 27 26 25 25
21 21 22 22 24 24 25 26 26 26 25 23 21 20 20 19 20 21 21 22 22 24 25 26 27 28 28 29 30 31 31 31 32 34 36 36 36 37 37 36 36 36 34 33 31 30 28 27 26
22 22 23 23 25 24 25 27 28 28 28 27 26 24 24 23 23 24 24 24 25 26 27 28 29 29 30 31 31 31 32 33 33 32 34 37 38 38 39 39 39 38 37 35 34 32 31 29 28
21 21 22 23 24 25 25 27 28 29 29 29 29 28 28 27 27 27 27 27 28 29 29 30 31 31 32 32 33 33 33 33 35 35 35 36 38 39 39 39 41 40 39 38 36 35 33 31 29
20 20 21 22 22 23 25 26 27 28 29 29 29 29 29 29 29 28 28 28 29 30 31 32 33 34 34 35 36 35 35 34 35 36 36 37 38 39 39 40 41 42 41 40 38 37 35 32 31
19 18 20 21 21 21 22 24 25 25 26 27 28 28 29 29 29 29 29 29 30 31 33 34 36 36 37 38 37 37 36 36 36 36 37 39 39 39 40 42 42 43 43 41 40 38 37 35 32
16 16 18 20 20 20 20 22 22 22 23 23 24 25 25 27 28 29 30 30 32 34 35 37 38 39 40 40 39 38 36 35 34 35 36 35 35 37 40 42 42 43 43 42 41 39 38 35 33
11 10 14 18 19 20 20 21 21 21 21 21 21 22 22 24 26 28 29 31 33 35 38 39 40 41 42 40 38 38 35 34 34 35 35 33 33 34 37 39 40 41 42 42 41 40 38 36 34
9 10 13 16 18 19 20 21 21 20 20 20 21 21 22 23 25 27 30 32 34 37 39 40 42 42 41 40 39 38 36 36 36 36 35 34 33 34 35 37 38 40 41 41 40 40 38 36 34
10 10 13 16 16 17 19 20 20 20 20 21 21 22 23 25 27 29 32 34 36 38 39 39 40 40 39 40 40 39 38 38 38 37 36 35 34 34 34 35 36 38 39 39 38 38 37 35 34
7 8 11 13 13 14 15 15 16 17 18 19 21 22 24 26 28 30 32 34 36 37 37 37 37 38 39 40 41 41 41 41 40 39 38 37 36 34 32 32 34 35 37 38 39 37 37 35 34
7 7 10 11 10 10 11 12 13 14 16 17 19 21 24 26 28 29 30 31 32 34 35 36 38 39 40 41 41 42 42 43 43 42 41 40 38 36 33 32 32 34 36 37 37 38 36 35 35
7 8 8 9 8 10 9 12 13 14 16 18 20 22 24 26 27 29 30 32 34 35 37 38 40 42 43 44 44 44 45 45 45 44 43 42 40 38 36 34 33 33 35 36 38 38 36 35 35
7 7 8 8 9 10 10 10 17 16 18 20 22 23 25 27 29 31 32 34 36 37 39 41 42 44 45 46 46 47 47 47 47 47 46 44 43 41 39 38 36 34 34 36 37 37 36 36 36
7 7 8 9 10 10 13 12 18 18 20 22 24 25 27 28 30 32 33 35 37 38 40 42 43 44 46 47 48 48 49 49 49 49 49 47 46 44 43 42 41 40 39 38 39 39 37 37 37
6 7 9 10 10 12 17 15 18 19 20 22 25 26 27 29 31 33 34 36 37 39 40 42 43 44 46 46 47 47 47 47 47 47 48 48 47 47 47 46 46 45 44 43 43 42 41 41 40
8 8 9 10 10 14 18 16 17 18 20 22 24 26 28 30 32 34 36 37 38 39 40 42 42 43 43 44 45 45 45 44 44 44 44 45 46 47 47 49 49 49 49 49 48 47 46 45 44
9 9 11 11 12 12 15 17 16 18 21 23 25 27 29 31 34 36 37 38 39 40 41 41 41 41 41 42 42 42 41 41 41 42 42 43 44 46 47 48 49 51 52 53 54 53 52 50 49
8 9 9 9 10 10 13 18 19 19 22 24 26 28 31 33 36 37 38 39 40 41 41 41 41 40 40 40 39 40 40 41 42 43 44 46 46 47 48 49 51 52 53 54 57 57 57 55 53
7 8 8 9 9 10 12 18 19 21 23 26 28 31 33 36 38 39 40 41 41 41 41 41 41 41 40 40 40 40 42 44 45 46 48 49 50 50 51 51 51 53 56 58 58 59 61 61 59
7 8 8 10 12 13 15 19 19 22 25 27 30 33 35 38 39 41 42 43 42 42 42 42 42 42 41 42 42 43 45 47 48 50 51 52 53 54 54 55 55 55 57 59 61 62 64 65 65

GEFSSGP_500_meanwind_048.txt.gz
Wind_Speed
6 5 5 5 6 8 11 7 6 7 9 10 9 9 10 9 9 9 10 10 9 10 9 8 8 8 8 7 7 8 8 9 9 10 11 11 12 12 12 13 12 12 11 11 10 9 8 8 7
5 5 4 4 7 12 9 8 11 11 11 11 11 11 12 11 11 11 11 10 10 10 9 9 8 8 8 7 7 7 8 8 9 10 10 11 12 12 13 13 13 13 13 12 12 11 9 8 7
5 4 4 4 8 10 9 11 11 12 13 12 13 13 12 12 12 12 11 11 10 10 9 9 8 8 7 7 7 7 8 9 10 10 11 12 12 13 14 14 14 14 14 14 13 12 11 10 9
7 5 3 4 8 7 11 12 9 9 12 13 13 15 13 13 13 13 12 12 11 10 9 9 9 9 8 8 9 10 10 11 12 12 13 13 14 14 15 15 15 16 16 16 15 14 14 13 12
9 6 2 7 8 7 13 15 10 9 12 13 15 16 14 14 14 14 13 13 12 11 11 11 11 11 11 11 11 12 13 14 15 16 16 16 16 17 17 17 17 18 18 18 17 17 16 16 16
12 9 4 3 6 10 14 16 10 11 11 13 14 16 16 14 13 14 14 14 14 13 13 12 12 13 13 14 15 16 16 17 19 19 20 20 20 20 20 20 20 20 20 20 19 19 19 18 18
14 13 8 4 6 12 20 20 15 14 15 14 15 19 17 13 13 15 16 16 15 15 15 15 15 15 16 17 18 19 20 21 22 23 24 24 24 24 24 23 23 23 23 22 22 21 21 21 21
16 15 10 4 4 12 22 21 18 16 18 18 18 21 17 15 15 16 16 17 17 17 17 18 18 19 20 21 21 22 23 24 24 25 26 26 26 26 26 26 27 26 26 25 24 24 23 23 22
18 16 11 4 6 13 23 23 18 17 20 21 21 20 19 18 18 18 18 19 20 20 20 20 21 22 23 24 24 24 25 25 26 27 27 27 28 29 29 29 29 29 29 28 27 26 26 25 25
19 17 13 11 17 22 24 24 20 17 21 22 21 21 22 21 20 20 21 21 21 23 23 23 23 24 25 25 26 26 26 27 28 28 28 29 30 30 31 31 31 31 31 30 30 29 28 28 28
21 19 17 19 22 25 25 22 21 21 27 26 24 23 23 23 23 23 23 23 24 25 25 26 26 26 27 27 27 28 29 29 30 31 31 32 32 32 33 32 32 32 33 33 33 32 31 31 30
22 21 21 23 24 24 23 23 23 25 26 26 25 26 26 26 26 27 27 26 26 27 29 30 29 29 30 30 31 32 32 32 33 34 34 34 34 35 35 34 34 33 33 35 35 35 33 33 32
21 21 22 23 24 24 23 23 23 26 24 24 25 26 27 28 29 29 29 30 30 30 31 32 31 31 32 33 35 35 36 35 36 36 37 38 37 36 36 35 36 36 35 36 37 37 36 34 34
19 19 20 20 21 22 21 21 23 25 23 23 24 26 27 29 30 30 31 31 32 32 33 34 34 34 35 36 37 38 39 39 39 40 40 39 38 38 37 35 36 37 37 38 37 39 38 36 35
14 14 15 17 18 19 18 19 22 23 21 21 22 24 25 27 28 30 31 32 32 33 34 36 36 37 37 39 40 41 41 42 42 42 42 41 40 39 38 37 36 36 37 39 39 38 38 36 35
7 8 11 16 16 14 14 18 20 21 19 20 21 22 23 24 26 27 29 30 31 33 34 36 37 38 39 40 42 44 43 44 44 44 43 42 42 40 39 37 37 37 36 37 38 39 38 37 37
6 12 17 21 15 9 13 19 21 22 22 22 21 21 22 22 23 25 26 28 30 32 34 36 38 39 40 42 43 44 45 45 44 43 42 41 41 40 39 39 38 38 36 36 37 37 38 38 38
12 16 17 16 11 10 15 21 22 22 22 22 21 20 21 22 23 24 26 28 30 32 34 36 38 40 41 42 43 44 44 44 43 42 42 41 41 41 41 40 40 39 37 36 36 36 36 36 37
8 10 11 11 11 14 18 22 21 19 19 19 19 20 21 22 23 25 26 28 30 33 35 36 38 40 42 43 43 44 43 43 44 43 43 42 42 42 42 41 40 40 38 38 37 36 35 35 35
9 12 14 17 17 16 18 18 15 14 14 16 17 18 19 20 22 25 27 29 31 33 35 36 37 39 41 42 42 43 43 44 45 45 44 43 43 43 43 42 42 42 41 39 36 36 36 35 35
11 14 15 15 16 14 14 15 14 11 11 13 16 18 19 21 23 25 26 28 30 32 33 35 36 38 40 41 42 42 43 43 44 44 44 43 43 43 44 44 43 43 42 41 39 37 36 35 35
12 13 13 13 14 15 16 19 17 13 12 13 15 18 20 22 23 25 27 28 30 32 33 35 36 38 39 41 42 43 43 44 44 44 44 43 43 43 43 44 44 43 43 42 40 39 38 36 35
10 11 12 14 16 20 21 21 15 11 14 15 18 21 22 23 24 25 27 28 30 32 34 35 36 38 39 40 42 43 44 44 44 44 44 44 44 44 44 44 44 43 43 41 40 39 38 38 37
9 10 13 18 19 19 17 14 13 13 19 20 22 23 23 24 25 26 28 30 31 33 35 36 37 38 39 40 41 42 43 43 43 44 44 44 44 44 43 42 42 42 42 41 41 40 40 39 38
7 10 16 21 21 18 14 9 8 18 22 24 24 25 25 26 27 28 30 31 33 35 36 37 38 39 40 41 42 42 43 43 42 42 42 43 43 43 43 42 41 41 41 41 41 41 41 42 41
7 9 14 17 20 20 15 9 12 19 21 22 23 24 25 27 29 30 32 34 35 36 37 38 39 39 40 41 41 42 42 42 42 43 43 43 43 43 43 44 43 42 42 42 42 42 42 43 44
8 8 11 12 12 14 16 16 17 19 20 21 23 24 26 28 30 32 34 36 37 38 39 40 41 41 41 41 41 41 42 42 42 43 43 44 44 44 44 45 45 44 44 44 44 44 43 44 45
10 9 8 6 8 8 13 18 20 21 22 22 24 26 28 30 32 34 36 37 38 39 40 41 42 42 41 41 41 41 42 42 42 42 42 43 43 45 46 47 48 48 49 48 48 48 47 47 46
10 10 10 8 7 6 10 20 21 22 23 24 25 28 29 31 32 34 36 38 39 41 41 42 43 42 42 42 41 41 42 42 42 42 42 43 44 46 47 48 50 51 52 53 52 52 51 51 50
9 10 10 9 9 8 9 21 23 23 23 25 27 28 30 31 33 35 37 39 41 42 43 43 44 43 43 43 42 42 42 42 42 43 43 44 45 46 47 49 51 53 55 55 56 55 55 55 55

GEFSSGP_500_meanwind_054.txt.gz
Wind_Speed
4 5 6 6 5 3 5 7 9 11 10 8 6 6 6 7 6 6 6 6 6 5 6 5 5 5 5 5 5 5 5 5 6 6 6 7 7 7 8 8 8 8 9 9 10 10 10 10 11
2 2 3 4 2 3 5 8 11 13 12 10 9 7 7 7 6 7 7 7 6 6 6 6 5 5 5 5 5 5 5 6 6 6 7 7 8 8 8 8 9 9 9 9 9 9 9 9 10
3 1 2 2 2 2 3 6 11 15 14 13 13 11 9 8 8 7 8 7 6 6 6 6 6 6 6 6 6 6 6 6 7 7 8 8 9 10 10 10 10 10 10 10 10 10 10 10 10
6 3 1 3 4 2 3 6 11 15 16 17 17 15 12 10 10 9 9 7 6 7 7 6 6 6 6 7 7 7 8 8 9 9 10 10 11 11 12 12 12 12 12 12 12 12 12 12 11
8 5 4 5 4 3 4 7 12 17 20 21 20 18 14 12 10 9 9 8 7 7 7 7 7 7 8 8 9 9 10 10 11 11 12 13 14 14 14 15 15 15 15 15 14 14 14 14 14
10 7 5 5 6 5 4 8 15 21 23 23 22 20 16 12 10 9 10 9 8 8 7 8 8 9 10 10 11 11 12 13 13 13 14 14 15 16 17 17 17 17 18 17 17 17 16 16 16
12 8 7 8 9 6 6 10 17 23 25 26 24 20 16 14 12 10 11 10 9 9 9 9 10 10 11 12 14 14 15 15 15 16 16 16 17 17 18 18 19 19 19 20 19 19 20 19 19
14 10 11 13 14 12 10 12 18 24 27 27 25 21 16 14 12 11 12 12 11 11 10 11 12 13 14 15 16 16 17 17 17 17 18 18 19 19 19 20 20 21 21 21 22 22 22 22 21
16 13 15 18 18 17 14 16 20 25 27 27 25 23 20 18 16 14 13 13 13 13 13 14 15 16 17 17 17 18 19 19 19 20 20 21 21 22 22 23 23 24 24 24 24 24 24 24 24
18 15 19 22 23 22 19 19 22 25 27 27 28 26 22 22 20 18 16 15 15 15 16 17 18 18 19 20 21 21 21 22 22 23 23 23 24 25 25 26 26 26 25 25 25 25 25 25 25
20 17 22 24 26 24 23 22 24 27 29 29 29 28 25 24 22 22 21 20 18 18 18 19 21 22 23 24 24 24 24 24 25 25 26 26 27 28 28 28 28 29 29 28 27 26 25 25 26
22 20 24 27 27 26 25 25 26 28 29 31 32 31 28 26 25 24 23 21 21 22 22 22 24 25 26 26 26 27 27 27 27 28 29 30 31 31 31 31 31 31 31 30 29 28 28 28 28
22 22 24 28 29 28 27 27 28 28 29 30 30 28 27 27 26 25 25 25 25 25 25 25 25 27 28 28 28 29 30 30 30 31 32 32 33 34 34 34 33 33 32 31 31 30 30 29 28
20 20 21 24 26 26 27 26 27 27 26 25 25 26 26 27 27 26 26 25 26 27 27 28 28 28 29 30 31 32 33 33 34 34 34 35 35 36 36 36 35 34 33 33 33 32 31 30 29
18 17 18 20 22 23 24 23 22 21 21 22 22 23 24 25 24 24 25 26 26 27 28 29 29 30 30 32 33 34 35 35 36 37 37 37 37 37 37 35 35 35 34 35 34 33 33 32 31
14 15 16 17 19 21 21 20 18 18 18 19 20 21 22 23 23 23 23 24 25 26 27 28 29 30 32 33 35 36 37 37 37 38 39 39 39 38 38 36 35 35 36 36 35 34 34 33 32
10 10 12 14 16 18 20 18 18 17 17 18 19 19 20 21 21 21 22 23 24 26 27 29 30 31 33 34 36 37 38 38 39 39 40 40 40 39 38 37 37 37 36 36 36 35 35 34 33
6 7 8 11 14 18 20 20 19 18 18 17 18 18 19 18 19 19 20 22 24 26 28 29 31 32 34 35 36 37 37 38 39 40 40 40 40 40 39 39 39 39 38 38 37 36 36 35 35
7 9 9 10 12 13 16 20 20 18 16 15 15 15 14 15 15 17 18 21 23 25 27 29 30 31 33 34 35 36 37 38 39 39 39 39 39 39 39 39 39 39 38 38 37 37 37 37 35
9 9 8 8 9 11 13 15 17 15 13 11 10 10 10 11 12 15 17 19 21 23 25 27 28 30 32 34 35 36 37 37 38 38 38 38 38 38 38 38 38 39 38 38 38 37 37 37 37
7 7 8 10 11 13 16 16 16 13 10 9 6 7 8 10 12 14 16 18 20 22 24 26 28 30 32 33 35 36 36 37 38 38 37 37 37 37 37 37 37 37 37 37 38 38 37 37 37
7 8 10 12 14 16 18 20 18 13 9 5 3 4 6 9 11 13 15 17 19 21 23 25 27 29 31 32 34 35 35 36 37 37 37 37 37 37 36 36 36 36 36 36 37 37 37 37 37
7 8 9 11 14 16 17 17 11 7 2 1 2 4 7 9 11 13 16 18 20 22 23 26 28 30 31 32 33 34 35 36 36 37 37 37 38 37 36 35 34 34 34 35 35 35 35 35 35
7 9 9 10 12 13 13 12 9 7 5 5 5 7 9 11 13 16 18 20 22 24 26 28 29 31 32 32 33 34 35 36 37 37 38 37 38 38 37 36 35 35 34 34 35 34 34 34 34
8 9 9 9 10 11 11 12 12 10 7 7 8 10 13 15 17 19 21 24 26 28 30 32 33 34 34 35 35 36 37 37 38 38 38 38 39 39 39 38 37 37 36 35 35 35 35 34 34
7 8 9 9 10 10 9 11 12 10 9 10 12 14 16 19 21 23 26 28 30 32 35 36 37 38 38 38 38 38 38 39 39 39 39 39 39 39 39 39 39 39 37 36 36 35 36 35 35
7 8 9 9 10 9 9 10 12 11 11 13 15 18 20 23 25 27 29 31 33 36 37 39 39 39 39 39 39 39 39 39 39 39 39 39 39 40 40 40 40 40 39 38 37 37 37 37 36
9 10 9 9 9 9 10 12 14 14 14 16 19 21 24 26 27 29 31 34 36 38 39 40 41 41 41 40 40 40 40 40 40 40 40 40 39 40 40 40 40 40 40 40 40 39 39 39 39
10 11 10 10 11 12 14 15 15 16 17 19 22 24 27 28 29 30 33 35 37 39 40 41 41 41 41 41 41 41 40 40 40 40 40 39 39 39 40 40 40 40 40 41 41 41 41 41 41
8 11 11 11 12 14 17 18 17 19 20 22 24 26 27 28 29 31 34 36 38 40 40 41 41 41 41 41 41 41 41 41 41 41 40 39 39 40 40 39 40 41 41 42 43 43 43 43 43

GEFSSGP_500_meanwind_060.txt.gz
Wind_Speed
3 2 3 3 3 3 3 3 4 5 6 8 10 11 12 11 11 9 8 7 6 7 6 6 5 5 5 5 4 4 4 4 4 3 4 4 4 5 5 5 6 6 6 6 6 6 6 7 7
6 6 6 7 7 6 6 6 5 5 5 6 9 11 12 11 11 10 9 8 7 7 6 5 5 4 4 5 4 4 4 4 4 4 4 5 5 5 6 7 7 8 8 8 8 7 7 7 7
8 8 9 10 11 9 8 8 7 6 6 7 9 11 12 12 12 10 9 8 7 7 6 5 4 4 4 4 5 5 5 5 5 5 6 6 7 8 8 9 9 10 10 10 10 10 9 8 8
10 10 11 13 14 13 11 11 9 7 7 8 10 12 13 13 12 11 9 8 7 8 8 6 5 5 5 4 5 5 6 6 6 7 7 8 8 9 10 10 11 12 12 12 12 12 11 11 10
12 13 14 16 17 15 13 13 11 10 9 9 11 13 14 14 13 12 10 8 8 8 8 7 6 6 5 5 6 6 7 8 8 8 9 9 9 10 11 12 12 13 14 14 14 14 14 14 13
15 15 16 18 19 17 17 16 14 13 11 9 12 13 14 14 14 12 11 10 10 9 9 8 8 7 7 7 8 8 9 9 9 10 10 11 11 12 12 13 14 14 15 15 16 16 16 16 16
17 17 18 20 21 21 20 18 17 15 12 10 12 13 14 14 14 13 13 13 12 11 10 10 10 9 9 9 10 10 11 11 12 12 12 12 13 13 14 14 15 16 17 17 18 19 18 18 19
19 19 20 23 24 24 22 21 19 17 15 13 13 13 15 16 15 15 14 13 13 13 12 12 12 12 12 12 12 13 14 14 15 15 15 15 15 16 16 17 17 18 19 20 20 21 21 21 21
21 21 23 26 26 26 24 23 21 20 17 16 15 15 17 16 16 17 16 16 15 14 14 15 15 15 16 15 16 17 17 17 17 17 17 18 18 19 19 20 20 20 21 22 22 23 23 23 23
23 23 25 29 30 29 27 25 24 23 20 19 18 18 18 18 19 19 19 19 18 17 18 18 18 19 20 20 20 21 21 20 20 20 20 21 21 22 22 23 24 23 23 24 25 25 25 25 25
25 25 28 31 33 33 31 29 27 26 24 23 21 20 20 21 21 21 21 20 20 20 20 20 20 21 22 23 24 25 26 24 23 23 23 24 24 24 25 26 26 26 27 26 27 27 28 27 27
26 26 29 32 34 34 34 32 31 29 27 26 26 24 23 23 23 22 22 21 21 21 21 22 22 23 25 26 26 26 26 25 25 25 25 26 27 27 28 28 29 29 29 29 29 30 30 30 29
24 24 27 30 33 34 34 34 33 32 31 30 29 28 26 25 23 21 20 20 21 21 21 23 24 24 24 24 24 25 25 25 25 26 27 28 28 28 29 30 30 31 32 32 31 32 31 31 30
20 21 23 27 31 33 34 34 33 32 32 31 30 29 27 24 22 20 19 19 19 20 21 22 23 23 24 24 25 25 25 26 26 26 28 28 29 29 30 30 31 33 33 32 32 32 32 31 30
17 18 20 23 26 29 32 33 33 31 31 30 29 28 26 23 21 20 19 18 18 19 20 21 22 24 25 25 26 27 27 26 26 27 28 28 29 30 31 32 32 33 33 33 33 32 31 31 31
12 14 17 19 21 24 27 28 28 28 29 28 28 26 24 22 21 19 19 18 18 19 19 21 23 23 24 25 26 27 27 27 28 28 29 30 30 31 32 32 33 33 34 34 34 33 32 32 32
9 10 12 15 17 19 23 24 25 25 26 27 26 25 23 22 20 19 18 18 18 19 20 21 22 22 23 24 26 27 27 28 29 30 30 31 32 32 33 33 33 33 34 34 34 34 33 33 33
8 9 11 13 14 16 18 20 22 22 23 23 24 23 21 20 19 18 17 17 18 19 19 20 21 23 24 25 26 27 28 29 30 31 31 32 33 33 34 34 34 34 34 34 34 34 34 34 34
8 9 10 11 12 12 14 15 17 18 19 19 20 18 18 17 18 17 16 16 17 18 19 21 22 23 25 26 27 28 29 30 31 32 32 33 33 34 34 34 34 34 34 34 34 34 34 35 34
6 7 7 8 10 11 11 12 14 15 16 15 15 15 15 15 15 15 16 16 17 18 19 21 23 24 26 27 29 30 31 32 33 33 33 33 33 33 33 33 34 34 34 34 34 34 35 35 35
5 6 6 6 5 6 8 8 9 10 11 12 12 11 11 12 13 14 14 15 17 18 20 22 24 26 27 29 30 31 32 33 33 33 33 33 32 32 32 32 33 33 33 34 34 34 34 35 35
6 6 5 5 5 5 4 5 6 5 6 8 8 8 8 9 10 12 14 16 17 19 21 23 25 27 28 30 30 31 31 32 32 33 33 33 33 32 32 33 33 33 34 34 34 34 34 34 35
7 6 5 6 5 4 5 6 5 4 2 3 5 6 7 8 10 12 14 16 18 20 22 23 25 26 27 28 29 29 30 30 30 31 31 32 32 32 32 32 33 33 34 34 35 34 34 35 35
7 6 5 5 3 2 4 6 6 4 2 2 2 3 6 9 12 14 15 17 18 20 22 23 24 25 26 27 28 28 28 29 29 30 30 31 32 33 33 33 33 33 34 34 35 35 35 35 35
6 6 5 4 3 2 3 5 6 3 2 0 3 5 8 10 12 15 16 17 18 20 21 23 24 25 26 27 28 28 28 29 29 30 30 31 32 33 34 34 34 34 34 35 35 35 36 36 36
6 7 6 5 4 3 3 4 5 4 3 4 6 8 10 12 13 14 15 16 18 20 22 24 25 26 27 28 29 29 29 29 30 31 31 32 33 33 34 35 35 35 36 35 35 36 36 36 37
7 7 7 7 6 4 3 3 5 6 7 8 9 10 11 12 13 14 15 17 19 21 24 25 27 28 29 29 30 30 30 31 32 33 34 34 34 35 35 35 35 36 36 36 36 36 36 37 37
8 8 8 9 8 6 3 4 5 6 8 10 11 12 12 13 13 14 16 18 21 24 26 27 29 30 31 31 31 32 33 33 34 35 36 36 36 36 36 36 36 36 36 36 36 36 36 37 38
8 9 9 10 9 8 5 6 6 8 9 11 13 13 14 14 14 16 18 21 23 26 28 29 30 32 32 33 33 34 35 36 37 37 38 38 38 38 37 37 37 37 37 37 37 37 37 37 38
10 10 11 10 9 9 8 8 8 10 11 13 14 15 15 16 17 19 21 23 25 27 29 31 32 33 34 35 35 36 37 38 38 39 40 40 39 39 39 38 37 37 37 37 37 37 37 37 38

GEFSSGP_500_meanwind_066.txt.gz
Wind_Speed
6 4 5 5 4 5 5 5 5 4 3 3 3 3 3 4 4 3 2 2 3 3 3 2 2 2 3 3 4 4 4 3 2 2 2 2 2 1 1 1 1 1 2 2 2 2 2 2 1
8 8 8 8 7 7 9 8 7 5 5 4 3 3 4 4 4 3 3 2 2 2 2 3 3 4 4 5 5 5 5 5 4 4 4 4 4 4 4 4 4 4 4 5 5 5 5 4 4
11 11 11 11 11 11 11 10 9 8 6 5 3 3 3 3 3 3 3 3 2 3 3 4 5 5 6 6 6 6 6 6 6 6 6 6 6 6 6 6 6 6 6 7 7 7 7 6 6
13 14 14 14 15 14 13 12 11 10 8 7 5 4 3 3 3 3 3 3 3 4 5 6 6 7 7 8 8 8 8 8 8 8 8 8 8 8 8 8 8 8 8 8 8 9 9 8 8
15 16 17 18 18 17 15 14 13 12 11 9 8 6 5 4 4 4 4 4 4 6 7 7 8 9 9 9 9 10 10 10 10 9 10 10 10 10 10 10 10 10 10 10 10 10 10 10 10
18 18 19 20 22 20 18 17 16 15 14 12 11 9 7 5 5 5 5 5 6 7 9 9 10 11 11 11 11 12 12 12 12 12 12 11 11 11 11 11 12 11 11 11 11 12 12 12 12
20 21 22 23 24 23 21 19 18 17 16 15 14 12 9 7 6 7 7 8 9 10 11 12 13 13 13 14 14 14 15 15 15 15 15 15 15 14 14 14 14 14 14 13 13 14 14 14 14
22 23 24 25 26 27 24 22 20 19 19 18 16 14 12 10 9 9 10 11 12 12 13 14 15 16 16 17 17 17 17 18 18 18 19 19 19 18 18 17 16 16 16 16 16 16 16 15 15
24 24 26 28 28 29 27 25 22 21 21 20 19 16 14 14 13 13 14 14 15 15 16 17 17 18 19 19 20 20 20 21 21 21 22 22 23 22 20 20 19 19 20 19 19 19 18 18 17
24 25 28 29 30 30 29 27 24 22 22 22 21 19 18 17 16 17 17 18 18 18 18 19 20 21 21 22 22 23 23 23 24 24 24 24 25 24 23 22 22 22 22 22 22 21 20 20 20
22 24 26 27 28 29 29 28 26 24 24 22 21 20 20 19 19 20 20 21 21 20 20 20 21 22 23 24 24 25 25 26 26 26 27 28 26 25 26 25 24 24 24 24 23 24 22 21 22
17 20 22 25 26 26 27 27 26 25 25 24 23 22 22 21 22 22 22 22 21 20 20 20 21 22 22 23 23 23 25 25 25 26 26 26 27 25 25 25 25 25 25 24 25 26 24 23 23
12 14 17 20 22 23 24 24 24 24 25 25 24 25 25 25 24 23 22 21 21 20 20 20 20 21 21 21 21 21 21 21 22 23 23 23 25 25 24 25 26 26 26 25 25 26 25 25 25
9 10 12 14 16 18 19 20 21 23 23 24 23 24 24 24 23 22 21 22 21 20 19 19 19 19 19 19 19 19 20 20 20 21 22 22 22 23 25 24 26 27 27 27 27 27 27 27 26
9 8 8 9 11 13 14 16 19 21 21 22 22 22 22 22 21 21 20 20 19 18 17 18 19 20 20 18 18 19 19 19 20 20 21 22 23 24 25 25 25 26 27 26 27 27 27 27 27
10 8 7 7 7 9 11 13 15 18 19 21 21 21 21 21 20 19 18 18 17 16 16 17 18 18 18 17 18 18 19 20 20 21 22 22 23 23 24 24 24 25 26 26 27 28 28 29 28
11 8 6 8 6 8 10 13 15 17 19 20 20 20 20 19 18 17 16 15 15 15 15 15 16 16 16 17 17 18 19 21 22 22 22 22 23 23 24 24 25 25 26 26 27 27 28 29 29
7 7 7 8 9 9 11 14 15 16 18 18 19 19 19 18 16 15 14 14 13 13 14 14 14 14 15 16 17 18 20 21 22 22 23 23 23 23 24 25 25 26 26 26 27 28 28 29 29
8 7 8 9 9 10 11 12 12 13 15 18 19 19 16 15 13 12 12 11 11 11 11 12 12 13 15 16 18 20 21 22 23 23 24 24 24 24 24 25 25 26 26 27 27 27 28 29 29
8 7 8 9 9 9 9 10 11 11 13 15 15 15 13 12 11 10 10 9 10 9 10 11 12 14 16 18 20 21 23 24 24 24 24 24 24 24 24 24 25 25 26 27 27 28 28 29 29
8 8 8 9 8 7 7 8 10 10 10 10 10 9 9 9 9 8 8 9 9 10 11 12 15 17 19 21 22 23 24 25 25 25 24 24 24 24 24 24 25 25 26 27 28 28 29 29 30
8 8 8 8 7 7 7 8 10 9 7 6 5 6 6 6 6 6 7 8 9 10 12 14 16 19 20 22 23 23 24 24 24 24 24 23 23 23 23 23 24 25 26 27 28 28 29 30 30
8 8 8 7 6 7 8 8 9 8 7 4 3 2 3 3 4 6 8 9 10 12 14 16 18 20 21 22 22 22 23 23 23 23 23 23 22 22 22 23 24 25 26 27 28 29 29 30 31
7 7 7 7 7 7 7 7 8 8 6 3 2 2 3 4 6 7 9 11 12 14 15 17 19 20 21 21 21 21 22 22 22 22 22 22 23 23 23 24 25 26 27 27 28 29 30 30 31
6 5 7 7 7 8 9 7 7 7 6 4 4 4 6 7 9 10 11 12 14 15 16 18 19 20 20 20 21 21 21 21 22 22 22 23 24 25 25 26 26 27 28 28 29 30 31 32 32
6 4 3 4 5 8 10 9 9 8 7 6 6 7 8 10 11 12 13 13 14 16 17 18 19 19 20 20 21 21 22 22 23 23 24 25 25 26 27 27 28 28 29 30 31 31 32 33 33
7 6 5 5 6 6 8 10 10 10 9 8 8 9 10 12 13 14 14 15 16 17 18 18 19 19 20 21 22 23 23 24 24 25 25 26 27 28 29 29 30 31 31 31 32 32 33 33 34
8 8 7 4 5 5 9 9 9 10 10 10 11 11 12 13 14 14 15 16 17 17 18 19 19 20 21 22 23 24 24 25 26 26 27 28 29 30 30 31 31 32 33 33 33 33 33 34 34
9 9 8 7 6 4 6 9 11 11 11 11 12 12 13 13 14 15 16 16 17 18 18 19 19 21 22 23 24 25 26 27 28 28 29 29 30 31 32 33 34 34 34 34 34 34 34 35 35
10 10 9 8 9 8 7 11 14 13 12 12 12 13 13 14 14 15 16 17 17 18 18 19 20 22 23 25 26 27 28 29 29 30 31 31 32 33 34 35 36 36 36 36 36 36 36 36 36

GEFSSGP_500_meanwind_072.txt.gz
Wind_Speed
5 5 5 6 6 7 3 3 5 8 9 9 7 8 7 6 6 6 5 5 4 4 4 4 3 3 4 4 5 6 7 7 7 7 7 7 7 7 7 7 7 7 6 6 6 6 5 5 5
7 7 7 7 8 11 9 3 6 9 11 11 9 8 7 7 6 6 5 5 5 5 5 4 5 5 5 6 7 7 8 8 8 8 9 9 9 9 9 9 9 9 9 9 8 8 7 7 6
10 10 9 9 8 11 15 9 10 11 12 12 11 9 8 7 7 6 6 5 5 5 5 5 6 6 7 8 8 9 9 9 9 10 10 11 11 11 11 11 11 11 11 10 10 9 9 9 8
13 13 12 11 9 12 14 15 15 13 14 12 13 11 9 7 7 6 6 5 5 5 5 6 7 8 8 9 10 10 11 11 11 11 12 12 13 13 13 13 13 13 13 12 12 11 11 11 10
15 15 15 13 13 17 16 15 16 17 18 12 13 11 9 7 7 6 6 6 6 6 7 8 8 9 10 10 11 12 12 12 13 14 14 14 15 14 14 15 15 15 15 14 13 13 13 12 12
17 17 16 14 16 20 20 18 17 20 19 14 13 11 10 7 7 7 7 6 7 7 8 9 10 11 11 12 13 14 14 14 15 15 16 17 17 17 17 16 17 17 16 16 15 15 14 14 14
19 19 17 15 17 20 21 22 21 24 21 18 15 14 13 9 8 8 8 8 8 8 10 11 12 12 13 14 15 16 16 17 17 18 18 19 19 19 19 19 19 19 19 18 18 17 16 16 15
20 20 18 15 16 20 23 26 24 26 24 21 20 18 14 10 8 9 10 10 11 11 12 13 14 14 14 15 17 18 18 19 20 20 20 20 20 20 21 21 22 22 21 21 20 19 19 19 18
19 19 16 13 16 20 25 26 24 24 23 24 23 20 17 12 9 9 10 12 13 13 14 15 15 15 16 17 18 19 20 21 22 23 23 23 23 23 22 22 24 23 23 23 22 22 22 21 21
16 17 16 17 22 25 28 26 23 22 24 26 25 20 15 12 10 11 12 14 15 16 16 16 16 16 17 18 19 20 21 22 21 22 22 24 25 24 23 23 24 24 24 23 23 23 24 23 23
13 15 18 21 24 27 29 27 21 23 26 24 20 17 13 13 14 13 14 15 17 18 18 17 16 17 18 19 20 20 21 21 20 19 20 21 23 22 22 22 21 22 23 23 23 24 24 24 23
12 12 15 19 22 24 24 23 24 26 28 22 15 10 10 14 16 15 16 16 17 18 18 18 17 17 18 19 19 19 20 20 19 20 21 21 21 21 21 21 21 22 22 23 24 24 23 24 23
10 11 12 14 15 17 18 20 22 25 24 23 15 12 13 16 17 17 17 17 18 18 18 19 18 18 18 18 18 19 19 19 19 19 19 20 20 20 21 21 21 21 21 21 22 23 24 23 22
7 8 9 10 10 12 13 15 20 21 19 15 14 14 16 17 17 17 17 17 17 18 18 18 17 17 17 18 17 18 18 18 18 18 18 19 19 19 20 21 21 21 20 20 22 23 23 23 23
9 9 11 11 10 9 9 13 18 16 18 16 16 16 17 18 18 18 17 16 16 16 16 16 15 15 15 16 17 17 18 17 18 18 18 19 20 20 21 21 21 21 21 21 22 23 23 23 23
12 13 13 12 11 10 11 15 17 14 16 16 17 17 17 18 19 18 17 16 15 15 15 14 13 14 14 15 16 17 17 17 17 18 19 20 21 21 22 22 22 23 23 23 23 23 23 23 23
16 17 15 14 12 13 15 17 16 12 14 14 13 15 16 17 17 16 16 16 14 14 14 13 13 13 13 14 15 16 17 17 18 18 19 20 21 22 22 22 22 23 23 23 23 23 23 24 24
15 14 14 14 14 14 15 17 14 11 10 10 12 15 16 15 14 15 15 14 13 12 12 12 13 13 13 14 15 16 16 17 18 18 19 20 21 21 22 22 21 22 22 22 23 23 23 24 24
11 11 12 11 14 14 13 15 13 10 6 8 11 13 14 13 12 13 12 13 11 11 11 11 11 12 12 13 15 16 16 17 18 18 19 20 20 20 21 21 21 21 21 21 22 23 23 24 24
11 12 13 13 13 12 11 12 10 9 5 4 9 11 10 10 10 11 10 10 10 11 10 10 11 12 13 14 15 16 17 17 18 18 18 19 20 20 20 20 21 21 21 21 21 22 23 24 24
11 12 12 12 12 11 11 10 11 10 4 2 4 5 4 6 8 8 7 7 8 8 9 10 11 12 12 13 15 16 17 17 18 18 18 19 19 19 20 20 20 21 21 21 21 21 22 23 24
13 12 10 9 10 11 11 11 10 11 8 4 2 2 2 2 4 5 6 7 7 8 9 9 10 11 12 14 16 17 17 18 19 19 19 19 19 20 20 21 21 21 21 22 22 22 23 23 24
12 9 8 8 9 10 11 12 10 11 10 6 4 2 0 1 2 3 4 5 6 6 7 8 10 11 13 15 16 17 19 19 20 20 21 21 21 21 22 22 23 23 23 24 24 24 24 24 25
10 9 10 11 11 8 9 11 12 12 12 8 6 3 1 1 2 2 3 4 6 7 8 9 11 13 14 16 17 18 20 21 21 22 22 23 23 23 23 23 24 25 25 25 26 26 26 27 27
11 11 15 16 15 10 9 8 11 13 11 9 6 4 3 3 4 4 5 6 8 9 10 10 12 14 15 17 18 19 20 21 22 23 24 24 24 24 24 24 25 25 26 27 28 28 29 29 29
11 10 11 14 15 12 6 7 12 12 10 9 7 6 5 5 6 7 8 8 9 10 11 12 14 15 16 17 19 20 21 22 23 23 24 24 25 25 25 26 26 27 28 29 29 30 30 31 31
11 9 8 10 10 10 7 9 10 10 10 10 9 8 8 9 9 10 10 10 10 12 13 14 14 16 17 18 19 21 22 23 24 24 25 25 25 26 26 27 28 29 30 31 32 32 32 33 33
10 9 9 8 9 8 10 8 9 12 15 14 13 12 11 11 11 11 12 12 13 13 14 14 15 16 18 19 20 21 22 23 24 24 25 26 26 27 28 29 30 31 32 33 33 34 34 34 35
10 9 9 9 9 9 14 13 11 15 18 18 16 14 14 13 13 13 13 14 14 14 15 15 16 18 19 20 21 22 23 24 24 25 26 27 27 29 30 31 33 34 34 35 35 36 36 36 36
11 11 11 11 10 9 11 12 13 15 19 20 19 18 16 16 16 16 16 16 16 16 16 16 17 18 20 21 22 23 23 24 25 26 27 28 29 30 31 33 34 35 36 37 37 37 37 37 37

GEFSSGP_500_meanwind_078.txt.gz
Wind_Speed
8 8 9 8 8 9 10 11 10 8 6 5 5 6 5 5 3 2 2 3 3 3 2 2 2 2 1 1 1 2 3 4 5 5 6 7 8 8 9 9 9 9 9 9 9 9 9 8 7
12 11 12 11 10 11 11 9 9 10 8 8 8 7 4 3 4 3 3 3 3 3 3 3 2 2 2 2 2 2 3 4 5 6 7 8 8 9 10 10 10 10 10 11 11 10 10 9 8
14 14 14 13 12 12 13 12 11 11 9 12 11 8 4 2 3 4 4 4 3 3 3 3 3 3 2 2 2 3 4 4 5 6 7 8 9 10 11 11 11 12 12 12 12 11 11 10 10
16 16 15 15 14 14 16 16 14 14 12 13 11 7 4 3 4 4 4 3 3 3 3 3 3 2 2 3 3 4 4 5 6 7 9 10 10 11 12 12 13 13 13 13 13 13 12 12 11
17 17 16 15 14 16 17 18 17 16 15 16 16 13 6 5 5 5 4 3 3 3 3 3 3 3 3 3 4 5 6 7 8 9 10 11 12 12 13 14 14 14 14 14 15 14 14 13 12
18 18 16 14 13 16 17 17 18 20 20 19 17 14 11 8 8 7 5 4 4 4 3 3 3 4 4 5 6 7 8 9 10 11 12 13 14 14 15 16 15 15 16 16 16 17 16 15 14
18 18 16 14 14 17 18 18 19 23 23 20 18 16 15 12 10 10 7 5 5 4 3 3 4 5 6 7 8 9 10 11 12 14 15 15 15 16 17 17 18 18 18 18 18 18 18 18 17
18 18 17 16 17 18 18 19 21 23 24 20 19 17 16 13 11 10 8 6 6 4 4 5 6 7 8 8 9 10 11 13 14 15 16 16 17 18 19 19 19 19 20 20 20 20 20 20 19
17 17 16 16 19 19 21 22 24 25 26 25 24 20 14 12 10 11 9 8 6 5 6 7 8 9 9 10 11 12 13 14 15 16 16 17 17 18 19 19 19 20 21 20 20 20 20 20 20
15 14 12 14 18 20 22 25 26 28 28 27 24 18 15 13 10 10 10 9 7 6 6 8 9 10 11 11 12 13 13 14 15 15 16 16 16 17 17 17 18 19 19 19 19 19 19 20 20
10 9 9 12 15 18 22 24 26 29 29 26 24 21 19 15 11 10 9 8 7 6 7 9 10 11 12 12 13 13 13 14 14 15 15 15 15 16 16 16 16 18 18 18 18 18 19 19 20
7 7 8 9 11 15 18 21 22 25 27 26 24 22 17 15 12 10 9 9 8 8 9 10 11 11 12 13 13 12 12 13 14 15 15 15 15 14 14 14 15 16 16 16 17 17 19 20 20
7 7 7 9 11 13 15 17 20 21 20 22 19 18 16 15 15 13 11 10 9 9 10 10 11 12 12 12 12 11 12 13 13 13 13 13 13 13 13 14 15 15 15 14 14 16 17 18 20
8 9 9 10 13 15 15 15 17 17 18 17 16 15 15 14 15 13 12 11 8 8 9 10 10 10 10 10 10 10 11 12 12 13 14 14 13 13 14 14 15 14 14 14 15 16 16 17 18
8 8 10 13 15 17 17 16 16 15 13 12 11 11 11 12 13 12 11 11 9 8 8 9 9 8 8 8 9 10 10 11 12 12 13 13 14 14 14 15 15 15 15 16 16 16 17 17 17
9 11 14 15 16 16 17 17 16 14 13 12 10 9 8 9 10 10 10 8 8 7 7 8 8 8 8 8 8 9 9 10 10 11 12 13 14 14 14 15 15 15 16 16 16 16 17 17 17
12 15 17 18 17 16 17 17 15 14 13 11 11 10 10 9 8 8 8 7 7 7 7 7 7 7 8 7 7 8 7 8 10 11 12 12 13 13 14 14 14 15 15 15 15 15 16 16 17
15 17 18 19 17 17 16 16 15 14 13 12 10 9 8 9 9 8 7 6 7 6 6 6 6 6 7 7 7 7 7 8 10 11 12 12 12 13 13 14 14 14 14 14 15 15 15 16 16
16 17 18 18 17 16 16 16 16 14 13 10 7 6 7 9 9 9 8 6 7 7 6 6 5 5 6 6 6 7 7 8 9 10 11 12 12 12 13 13 13 13 13 14 14 14 15 15 16
14 17 18 18 17 16 16 15 15 12 12 7 3 2 4 7 8 8 7 6 6 5 5 3 3 4 5 5 6 6 7 8 8 9 10 11 11 11 12 13 13 13 13 13 13 14 15 15 15
13 16 17 17 17 15 15 14 12 11 10 8 5 3 5 6 7 8 6 5 4 3 3 3 3 4 4 5 6 6 7 8 8 9 9 10 10 11 12 13 13 13 13 14 14 15 16 16 16
13 13 14 15 15 15 13 12 9 8 9 9 9 7 6 6 6 5 4 3 3 2 2 2 3 4 4 5 5 6 7 8 9 9 10 10 11 12 13 14 14 14 14 15 15 16 16 17 17
12 12 13 13 12 12 10 9 7 7 7 8 7 7 6 5 5 4 3 2 2 2 2 3 3 3 4 4 5 6 7 8 9 10 11 11 12 13 14 15 15 16 16 16 17 17 18 19 19
12 11 12 11 11 11 8 6 6 6 7 7 7 6 5 5 4 3 3 1 1 2 2 3 3 3 4 4 5 7 8 9 10 10 11 12 13 14 15 16 16 17 18 18 19 19 20 21 21
12 10 11 12 11 11 8 4 3 5 6 6 7 6 5 4 3 2 1 1 2 2 2 3 3 4 4 5 6 7 8 10 10 11 13 14 15 16 16 17 17 18 19 20 21 22 22 23 23
11 11 12 13 13 11 7 5 2 4 6 6 5 4 3 2 2 2 1 2 2 2 3 3 3 4 5 6 7 8 9 10 11 13 14 15 16 17 18 18 19 20 21 22 23 24 25 26 26
11 11 12 13 13 11 7 5 2 2 3 4 4 3 2 1 0 1 2 2 3 3 3 4 4 5 6 7 8 9 10 12 13 14 16 17 18 19 20 20 21 22 23 24 26 27 28 28 28
13 12 14 14 14 12 8 6 5 3 3 2 2 2 1 0 1 2 2 3 3 3 3 4 5 6 7 8 9 10 12 13 14 16 17 18 19 20 21 22 23 24 25 26 28 29 29 29 29
14 15 15 14 14 14 13 9 8 7 6 4 2 2 2 1 1 2 2 2 3 3 4 5 6 7 8 10 11 12 14 15 16 17 19 20 21 22 23 24 26 27 28 29 30 31 31 31 31
16 16 16 14 13 13 14 12 10 10 8 7 5 3 3 3 2 2 2 3 4 5 6 7 8 9 10 12 13 15 16 17 18 19 21 22 23 24 25 26 27 29 30 31 32 33 33 33 33

GEFSSGP_500_meanwind_084.txt.gz
Wind_Speed
11 12 12 13 13 13 14 15 15 16 15 15 13 8 5 3 5 4 4 5 5 5 5 6 5 4 3 3 2 2 1 2 2 2 3 4 4 5 6 7 7 7 7 8 8 8 7 7 6
13 13 13 14 15 16 16 17 18 16 16 16 13 10 5 3 4 5 5 5 5 6 6 6 5 4 4 3 2 2 1 0 1 2 3 4 5 6 7 8 8 8 8 8 8 8 8 7 6
14 14 15 15 16 17 18 18 18 17 17 16 14 11 5 1 4 5 5 6 6 7 7 7 6 5 4 4 3 2 1 1 2 3 4 6 6 7 8 9 9 9 10 10 9 9 8 8 7
15 15 16 17 18 20 20 19 19 19 19 17 15 13 8 4 4 6 7 7 7 8 9 7 6 5 4 4 3 3 2 2 3 4 5 7 8 9 10 11 11 11 11 11 11 10 10 9 9
16 16 17 19 20 21 22 21 21 20 19 17 15 14 11 7 6 7 9 9 9 10 9 8 7 6 5 4 4 4 4 4 4 5 7 8 9 11 11 12 13 13 13 13 12 12 12 11 10
17 17 18 20 21 22 23 22 22 21 19 17 16 14 12 9 7 9 10 11 12 12 10 9 7 7 6 5 5 5 5 6 7 7 9 10 12 12 13 14 14 15 15 16 15 14 14 13 12
18 18 19 20 21 22 23 23 22 22 21 19 17 15 13 11 9 10 11 13 14 13 11 9 8 7 6 6 6 6 7 8 9 10 11 12 13 14 15 15 16 17 17 17 17 16 16 15 14
17 18 18 19 21 22 22 23 22 22 21 20 19 17 15 13 11 11 11 13 15 14 13 10 9 8 7 6 7 7 8 10 11 11 12 13 14 15 16 16 17 17 18 18 18 17 17 16 15
17 17 17 17 19 20 21 21 21 21 21 20 19 18 16 15 13 13 13 14 15 14 13 11 10 8 7 7 8 9 10 11 12 13 13 14 15 15 16 17 18 18 18 18 18 18 17 16 15
14 14 14 15 16 17 18 20 21 21 21 21 20 18 15 15 14 14 14 13 15 15 14 12 10 8 8 8 9 10 10 11 12 13 13 14 15 15 16 17 17 17 18 17 17 17 17 16 15
12 11 12 13 14 15 16 18 19 20 21 21 20 18 16 15 15 15 15 15 15 16 15 12 10 9 9 9 10 10 11 11 12 13 13 14 14 15 16 16 15 16 16 16 17 17 17 16 16
11 10 11 12 13 15 16 18 19 19 19 19 19 18 15 14 13 15 16 16 15 16 16 14 11 10 10 10 11 11 11 11 12 12 13 13 14 14 15 15 14 15 15 15 15 15 16 16 16
10 10 11 11 12 14 16 17 18 18 16 16 17 17 15 14 13 16 17 17 17 17 16 14 11 11 10 10 10 10 10 11 11 12 12 13 13 13 14 14 14 14 14 15 15 15 15 15 16
10 10 11 11 12 14 15 17 18 17 16 16 15 13 13 13 13 16 18 18 18 18 16 15 12 10 8 8 8 9 10 10 11 12 12 12 12 12 13 13 14 14 14 14 14 14 14 14 14
9 9 11 12 13 15 16 17 17 18 17 15 12 10 11 13 13 15 16 17 17 16 14 13 11 9 7 8 8 8 9 9 11 11 11 11 11 12 12 12 13 13 14 14 14 15 15 14 15
10 10 11 12 14 15 16 17 18 18 17 15 12 10 9 11 13 14 16 17 16 14 13 12 10 8 7 6 6 7 8 9 9 10 10 10 11 11 11 12 12 13 13 13 13 14 14 14 14
11 11 12 13 14 15 16 18 19 19 16 14 10 8 8 9 12 14 15 15 16 14 13 11 9 8 7 6 6 7 7 8 8 9 9 10 10 10 11 11 11 11 12 12 12 12 13 13 14
12 12 12 14 14 15 16 18 19 18 15 12 8 5 6 8 12 14 15 15 15 13 12 10 9 7 6 5 5 5 6 7 7 8 8 9 9 10 10 11 11 11 11 12 12 12 12 12 13
13 13 13 14 14 14 15 17 18 16 13 10 7 3 4 7 11 13 13 13 13 12 11 10 8 7 6 5 5 5 5 6 6 7 7 8 8 9 10 10 10 11 11 11 11 11 11 12 12
14 14 13 13 13 13 13 15 16 14 11 8 5 0 6 9 12 14 13 12 11 11 10 9 8 7 6 5 5 5 5 5 6 6 7 7 8 9 9 9 10 10 10 11 11 11 11 12 13
13 14 14 13 12 12 12 13 14 12 11 8 4 0 5 8 11 12 11 11 11 10 9 9 8 7 6 5 5 4 4 5 5 5 6 7 8 8 9 9 10 10 10 11 11 12 12 13 13
14 13 14 13 13 13 13 12 11 10 9 8 4 2 5 7 9 10 10 10 10 10 9 9 8 7 6 6 5 4 4 4 4 5 5 6 7 8 8 9 10 10 10 11 11 12 13 14 15
14 14 14 13 12 13 11 10 9 8 7 6 5 2 4 6 8 9 9 10 10 10 9 8 8 7 6 7 6 4 4 4 4 4 5 6 7 8 8 9 10 10 11 12 13 14 15 16 16
14 14 13 12 11 10 9 8 8 7 5 5 3 2 3 4 6 8 9 9 9 9 9 8 7 7 7 6 6 5 5 4 4 4 5 6 7 8 9 10 11 11 12 13 14 15 17 18 18
14 14 14 12 10 10 9 8 7 6 5 3 2 1 1 3 5 7 8 9 9 9 9 8 8 8 7 6 6 6 5 5 5 5 6 6 7 8 10 10 12 13 14 15 15 17 18 18 19
13 14 14 13 12 10 9 9 7 5 5 4 3 3 3 3 5 6 8 9 9 9 9 9 8 8 7 7 7 7 6 6 6 6 7 7 8 9 11 11 13 14 15 16 17 18 19 20 20
14 14 15 15 13 10 9 8 7 6 6 6 5 5 5 5 6 7 8 9 10 9 9 10 9 9 9 8 8 7 7 7 7 7 8 9 10 11 12 14 15 16 17 18 18 20 21 21 22
14 15 16 15 14 11 9 8 8 8 8 8 8 7 7 7 7 8 8 9 10 10 10 10 11 11 10 10 9 9 8 8 9 9 10 11 12 14 15 16 17 18 19 20 21 22 22 23 23
15 15 15 16 15 13 12 9 8 9 9 9 9 9 9 8 8 9 9 10 11 11 12 12 12 12 12 11 11 11 11 11 11 12 12 13 14 16 17 18 20 21 22 22 23 23 24 25 25
16 16 16 17 16 15 14 10 9 10 9 9 10 10 11 10 10 11 11 11 12 13 13 13 13 13 13 13 13 13 13 13 14 14 15 16 17 18 20 21 22 23 24 24 25 26 26 27 27

GEFSSGP_500_meanwind_090.txt.gz
Wind_Speed
11 11 12 12 12 12 13 14 13 13 13 12 11 10 9 10 10 12 12 12 10 9 9 9 8 8 8 8 7 6 6 5 5 4 4 3 2 1 1 1 1 2 2 2 2 2 2 2 1
12 12 12 13 12 13 15 15 14 14 13 12 11 10 9 9 10 11 12 11 11 10 9 8 8 9 9 8 8 7 6 5 5 4 3 2 2 1 0 1 1 2 2 2 2 2 2 2 1
12 12 12 13 13 13 15 15 14 14 13 11 10 9 9 9 9 11 12 11 11 11 10 9 9 9 9 9 8 8 7 6 5 4 3 3 2 1 1 2 2 2 2 3 3 3 3 2 2
12 13 13 13 14 14 15 15 15 14 13 12 11 10 9 9 9 10 12 12 12 12 11 10 10 10 10 9 9 8 7 6 5 5 4 3 3 2 3 3 3 4 4 4 4 4 4 4 3
13 13 13 13 14 15 15 15 15 15 14 13 12 11 10 10 9 10 12 13 14 13 12 11 11 11 10 10 10 9 8 7 6 5 5 4 4 4 4 5 5 5 5 5 5 6 6 6 5
13 12 12 13 15 16 16 15 15 14 14 13 12 11 10 10 11 12 13 14 14 13 12 12 12 12 11 11 11 10 9 7 7 6 5 5 5 5 6 6 6 6 6 7 7 7 7 7 7
12 12 12 13 15 15 15 15 15 14 14 14 13 12 11 10 11 13 14 15 15 14 14 13 13 13 12 12 11 10 9 8 7 7 6 6 6 7 7 7 7 8 8 8 9 9 8 8 7
12 11 12 12 13 15 15 14 14 14 15 15 14 12 11 11 12 13 14 15 16 16 15 15 15 14 13 12 11 10 9 8 8 7 7 7 8 8 8 8 8 9 9 9 10 9 9 9 8
12 11 11 12 13 14 14 14 14 14 15 15 15 14 14 14 13 15 15 16 18 17 17 17 16 15 14 13 11 10 9 9 8 8 8 8 9 9 9 9 10 10 10 10 9 9 9 9 8
12 11 11 12 12 13 13 14 14 14 15 15 16 16 15 16 16 16 17 18 19 19 19 19 18 17 15 13 12 11 10 10 9 9 9 9 9 9 9 9 10 10 9 9 9 9 8 8 8
12 11 11 12 12 13 13 14 15 15 16 16 16 16 15 16 17 18 19 20 20 21 21 20 20 18 15 13 12 11 11 10 9 9 9 9 9 8 9 9 9 9 9 9 9 8 8 8 9
11 11 12 12 13 13 14 15 16 16 16 15 15 14 14 16 16 18 20 21 21 21 22 21 20 18 15 13 12 11 11 10 9 9 8 8 8 7 8 8 8 8 8 8 8 8 8 8 9
10 11 12 13 14 15 16 16 16 17 16 16 15 15 13 14 16 18 20 21 21 22 22 21 21 19 15 14 13 12 10 9 9 8 7 7 7 7 7 7 8 8 8 8 8 8 8 8 8
10 11 12 14 15 16 17 17 17 18 17 16 16 15 13 14 15 17 20 20 22 23 23 22 21 19 16 14 12 11 10 9 7 6 6 6 6 6 7 7 8 8 8 8 8 8 8 8 8
11 12 13 15 16 17 17 17 17 18 18 16 14 13 13 13 14 17 20 22 24 25 24 22 21 19 17 14 12 11 9 7 6 6 5 5 5 6 6 7 7 8 8 8 8 8 8 8 8
11 12 13 16 17 17 16 16 18 19 18 15 13 12 12 12 14 17 20 22 24 25 24 23 22 19 16 14 11 9 8 6 5 4 4 4 4 5 5 5 6 7 7 7 7 7 7 7 7
11 11 12 16 17 16 16 17 18 19 18 16 13 11 10 11 14 16 19 21 22 24 24 23 21 19 16 14 11 9 7 6 4 3 3 2 3 3 4 4 5 6 6 6 6 6 6 7 7
9 10 12 15 16 16 16 17 19 19 18 15 12 9 7 9 12 16 19 20 21 22 23 21 19 17 15 13 11 8 6 5 3 2 2 1 1 2 3 4 4 5 5 5 5 5 6 6 7
10 11 13 15 16 16 16 17 18 18 16 14 11 9 5 6 8 13 16 18 19 20 21 20 18 16 14 12 10 8 6 4 3 2 1 1 0 1 2 3 4 5 5 5 5 5 6 7 7
12 13 13 15 15 15 16 16 16 15 14 12 10 8 3 4 7 9 13 15 17 18 19 18 16 16 14 12 10 8 6 4 3 2 2 1 0 1 2 3 3 4 4 4 5 6 7 7 8
13 13 13 15 15 15 15 15 14 13 12 11 9 7 3 2 6 9 10 11 14 16 16 17 16 15 13 11 10 8 7 5 4 3 2 2 1 1 2 2 3 4 4 4 5 6 7 8 9
12 14 14 14 14 14 14 13 13 12 11 10 8 6 4 1 4 7 9 11 13 14 14 15 14 14 13 11 10 8 7 6 5 4 3 2 1 1 2 3 3 4 4 5 6 7 8 9 10
13 14 13 13 12 13 13 11 12 11 10 8 7 5 3 2 2 5 8 9 10 12 12 13 13 13 12 11 9 9 7 6 6 4 4 3 3 3 3 3 4 5 5 6 7 8 9 10 10
14 13 13 12 11 11 12 10 10 10 9 7 5 4 3 2 2 4 6 8 9 10 11 12 12 12 11 11 10 9 8 7 6 5 5 5 4 4 4 5 5 6 6 7 7 9 10 10 11
12 12 11 10 10 11 12 10 9 9 7 6 4 3 2 1 1 4 5 7 8 9 11 11 11 11 11 11 10 9 9 8 7 7 6 6 6 6 6 6 6 7 8 8 9 10 11 11 12
12 12 10 10 10 10 11 9 10 9 7 6 5 3 2 1 2 4 6 7 8 9 10 11 11 12 11 11 10 10 9 9 8 8 8 8 8 8 8 8 8 9 10 10 11 12 12 13 14
15 13 12 12 11 10 10 11 11 10 8 7 7 5 4 4 4 5 6 8 9 10 11 12 12 12 12 11 11 11 11 10 10 10 10 10 10 10 11 11 11 11 12 13 13 14 15 15 16
17 16 14 12 11 10 10 10 10 11 9 8 7 7 6 6 6 6 7 8 9 10 11 12 12 13 13 12 12 13 13 12 12 13 13 13 13 13 13 13 14 14 15 15 16 17 17 18 18
18 17 15 13 13 11 9 10 12 11 10 9 9 8 8 7 7 8 8 9 9 10 12 13 13 13 13 14 14 14 15 15 15 15 16 16 16 16 16 17 17 17 17 18 18 19 19 20 20
19 17 15 14 13 12 10 10 13 11 11 10 10 10 9 9 9 10 10 11 11 12 13 13 14 15 15 16 16 16 17 18 18 19 19 19 19 20 20 20 20 20 20 20 21 21 21 22 22

GEFSSGP_500_meanwind_096.txt.gz
Wind_Speed
9 9 9 8 7 8 9 8 11 12 14 14 12 12 13 13 14 14 13 13 12 13 12 12 10 9 8 8 7 6 6 6 6 5 4 4 3 3 2 2 2 1 1 1 1 1 1 1 2
9 9 8 7 7 11 13 12 14 15 16 15 13 13 14 15 14 15 15 13 13 14 13 12 11 10 9 8 7 7 6 6 6 6 5 5 4 4 3 2 2 2 2 2 2 2 2 2 3
8 8 7 6 6 7 12 16 18 17 17 15 14 14 14 14 13 15 15 16 15 15 14 13 12 10 9 8 8 7 7 7 7 7 6 5 5 4 4 4 3 3 3 3 3 4 4 4 4
8 7 6 5 6 7 13 16 19 18 17 14 14 15 13 13 14 15 16 18 17 16 14 13 12 11 10 9 8 8 8 8 8 7 7 6 6 5 5 5 5 5 5 5 5 5 5 5 5
8 6 7 8 7 11 16 17 18 15 17 15 15 16 13 14 15 15 16 17 15 15 15 14 13 12 11 10 9 9 9 9 9 8 7 7 7 6 6 6 6 6 6 6 6 6 6 7 7
6 6 7 7 8 14 18 18 16 15 16 15 15 16 14 14 15 14 15 16 16 16 17 15 14 13 12 11 10 10 10 10 10 9 8 8 8 7 7 7 7 7 7 7 7 7 8 8 8
6 5 5 5 10 14 18 18 16 16 17 15 16 17 16 15 15 15 15 15 15 15 16 16 15 14 13 12 11 11 11 11 10 10 9 9 9 9 8 8 8 8 8 8 9 8 8 9 9
5 4 3 3 9 13 18 18 17 17 18 17 18 18 16 14 15 16 16 16 16 16 16 17 16 15 14 13 13 13 12 11 11 11 10 10 10 9 9 9 9 9 8 9 9 9 9 9 9
4 4 4 4 9 13 18 17 16 18 19 19 19 18 18 17 18 17 17 18 17 16 17 17 17 16 15 14 14 13 13 12 12 11 11 10 10 10 10 9 9 9 9 9 9 9 9 9 9
3 2 3 10 12 12 15 16 16 17 18 20 20 19 18 18 18 18 19 19 19 18 18 18 18 17 16 15 15 14 14 13 12 12 12 11 11 10 10 9 9 9 8 9 9 8 8 8 9
4 4 6 9 11 12 13 15 16 17 19 21 22 21 22 20 19 19 20 20 20 21 20 19 20 19 18 17 16 15 14 13 13 12 11 10 9 9 9 9 8 7 7 7 8 7 7 7 7
6 7 8 10 12 13 15 15 15 17 20 20 23 22 22 22 21 20 21 21 21 22 22 21 20 20 18 18 16 15 14 13 12 10 10 10 9 9 8 7 7 6 5 5 5 5 6 6 7
7 9 11 11 12 14 17 17 17 17 19 20 22 22 21 21 21 20 19 20 21 23 23 23 22 21 18 17 16 15 13 11 10 9 9 9 8 8 7 7 6 5 5 4 5 5 6 6 6
5 7 9 11 13 16 20 19 17 17 21 22 22 22 22 20 20 20 20 19 21 23 23 22 22 20 18 17 16 14 11 9 9 8 8 7 7 6 6 5 4 4 4 4 5 5 5 5 5
6 7 10 13 15 17 21 21 21 20 23 23 23 22 21 18 17 18 19 19 19 20 21 21 21 19 17 16 14 12 11 9 8 7 7 6 5 5 4 4 3 4 4 4 4 4 4 4 4
7 9 14 15 15 18 22 22 23 22 23 23 22 22 19 16 16 17 18 17 19 20 19 19 19 18 17 15 14 13 11 10 8 7 6 4 3 3 3 3 2 3 3 3 4 4 4 4 4
11 12 13 14 16 18 22 22 22 22 23 24 23 21 18 16 15 15 16 16 17 19 19 19 19 18 16 14 14 13 11 9 7 7 6 4 2 1 0 0 1 2 3 3 3 3 4 5 5
11 11 12 14 17 20 21 21 20 21 23 23 22 21 18 14 11 12 13 14 15 17 17 18 18 17 15 14 13 12 10 8 7 7 5 3 2 1 1 1 2 2 3 3 4 4 4 5 5
11 11 12 15 16 19 18 18 19 19 21 22 21 19 17 13 9 8 10 12 14 16 17 18 19 17 15 14 13 11 9 8 7 6 4 4 3 2 1 1 2 2 3 4 4 5 5 6 6
11 12 14 15 17 17 16 17 18 18 19 21 20 18 16 13 9 6 8 10 13 14 16 17 18 17 15 14 13 11 9 8 7 5 5 4 3 2 1 1 1 2 3 4 4 5 6 7 7
12 13 15 16 14 13 15 17 17 16 18 19 18 17 15 12 8 4 4 8 10 12 14 16 16 15 13 13 12 11 9 9 7 6 5 4 3 3 1 1 1 2 3 4 4 5 6 7 7
14 15 15 14 13 12 13 17 18 16 17 18 17 15 14 12 8 4 1 4 6 9 12 14 14 14 13 13 12 11 10 9 8 7 6 5 4 3 2 1 1 2 3 4 5 6 6 7 8
15 15 14 13 14 14 14 12 15 16 17 18 17 14 13 11 8 4 2 0 3 5 9 12 12 12 12 12 12 11 10 9 8 7 7 6 5 4 3 2 2 2 3 3 4 5 7 8 8
14 13 12 14 16 16 12 9 11 15 17 18 15 13 11 9 8 5 2 1 2 4 7 9 10 11 11 11 11 11 11 10 9 8 8 7 6 5 4 4 3 4 4 4 5 6 8 8 9
14 13 15 17 18 15 13 7 9 14 16 16 14 12 9 8 6 5 2 1 2 4 5 7 8 10 10 10 11 11 10 9 9 9 8 8 7 6 6 6 5 6 6 7 8 9 9 10 11
15 13 16 18 17 17 16 12 8 12 14 14 13 11 9 7 6 4 2 1 1 3 5 6 7 8 9 9 10 10 10 10 10 10 10 9 9 8 8 8 8 8 9 10 10 11 12 12 13
16 15 15 18 16 17 17 13 9 12 12 12 12 11 10 7 6 4 3 2 2 3 4 5 7 8 9 10 10 11 11 11 11 11 11 11 10 10 10 10 10 11 12 12 13 14 14 15 15
18 17 16 17 18 16 16 15 15 12 12 12 13 12 10 8 6 5 4 4 5 5 6 7 8 9 11 11 11 12 13 13 13 13 12 12 12 12 12 12 13 14 14 15 16 17 17 18 18
19 18 17 17 17 17 17 18 17 13 13 13 13 12 10 9 8 7 6 5 6 6 7 8 9 10 11 12 13 13 14 15 15 15 15 15 15 15 15 15 15 16 17 18 19 20 20 21 21
22 20 18 19 17 17 16 19 16 13 11 12 13 13 11 10 9 8 8 7 7 8 8 9 10 11 12 13 14 14 15 16 16 17 17 17 17 18 18 18 18 19 20 21 21 22 22 23 23

GEFSSGP_500_meanwind_102.txt.gz
Wind_Speed
7 6 6 6 5 4 7 10 13 15 16 17 16 16 16 15 13 10 9 7 6 7 7 8 8 7 7 6 5 4 4 4 4 5 5 6 6 6 6 6 6 6 6 6 6 6 6 5 5
7 6 5 5 4 5 8 11 15 17 17 17 16 17 17 15 12 11 10 9 8 8 8 9 9 9 8 7 6 6 5 4 5 5 6 6 6 6 7 7 7 7 7 7 7 7 7 6 6
7 6 5 4 5 7 9 12 16 18 17 18 19 19 17 15 11 10 9 9 9 8 9 9 10 10 9 8 8 7 6 5 6 6 6 7 7 7 7 7 7 8 8 8 8 8 8 7 7
6 6 5 4 5 6 9 14 17 19 19 18 19 19 17 14 10 9 9 9 10 11 10 10 10 10 10 9 8 7 6 6 6 6 7 7 8 8 8 9 9 9 9 9 9 9 9 8 8
5 4 4 5 6 7 10 14 18 21 20 20 20 19 16 14 10 9 9 9 9 11 11 11 11 12 11 11 9 8 7 6 6 7 7 8 8 9 9 10 10 10 10 10 10 10 10 9 9
4 4 4 5 7 7 11 16 19 21 21 21 20 18 18 15 10 10 10 9 9 10 11 12 12 13 13 11 10 9 8 7 7 7 8 9 9 10 10 10 11 11 11 11 11 11 11 10 10
4 5 6 6 5 8 13 17 20 20 21 20 19 19 19 15 13 12 11 10 9 9 11 12 13 13 13 12 11 9 8 8 8 8 9 9 10 10 11 11 11 11 11 11 11 11 11 11 11
6 7 7 6 6 8 13 17 20 20 20 19 19 19 18 17 14 13 12 11 11 11 11 13 13 14 14 13 12 10 10 9 9 9 9 10 10 11 11 11 11 11 11 11 11 11 11 12 11
7 7 7 6 6 9 13 17 19 19 19 19 19 19 19 18 15 14 12 12 14 13 14 15 15 15 15 14 12 12 11 10 9 10 10 10 11 11 11 11 11 11 11 11 11 11 11 11 10
7 7 7 7 8 9 13 16 17 18 18 19 20 19 21 20 16 14 13 14 13 14 14 16 17 16 15 15 14 13 12 11 11 11 10 10 10 10 10 9 10 10 10 10 10 10 10 10 9
8 8 7 7 7 9 12 14 16 17 17 19 21 22 22 20 18 16 14 14 14 15 16 16 18 18 17 16 15 14 13 13 12 12 11 11 10 9 9 8 8 8 8 8 8 8 8 8 8
9 8 7 6 6 8 11 13 15 17 18 19 22 23 23 20 18 16 14 14 14 14 15 16 18 19 18 17 15 14 14 13 12 12 11 10 9 9 8 7 7 6 6 5 6 6 7 7 7
9 7 7 5 5 9 11 14 16 17 18 19 22 23 23 22 19 17 15 14 15 16 16 17 18 20 19 18 16 15 14 13 11 10 10 9 8 8 7 7 6 5 5 5 5 5 6 6 7
7 5 5 5 7 10 12 13 16 17 18 20 22 23 23 22 20 18 15 13 13 15 17 17 17 19 19 17 16 15 14 12 10 9 9 8 7 6 6 6 5 4 4 4 4 4 4 5 5
5 4 4 7 11 13 14 15 18 19 18 20 22 22 23 21 20 18 15 12 11 13 16 16 17 19 19 17 16 16 14 12 10 9 8 6 6 5 4 4 3 2 2 2 2 2 2 3 4
5 4 5 9 13 14 16 17 19 19 19 20 21 21 22 21 19 14 11 9 9 11 14 16 16 17 18 18 16 14 13 11 10 9 7 6 6 5 4 3 3 3 2 1 1 1 1 2 3
7 5 6 10 14 15 16 17 18 18 19 20 20 20 20 20 17 13 9 8 8 10 13 15 15 15 16 17 15 13 12 11 10 9 8 7 6 5 4 4 3 3 2 1 1 1 1 1 2
9 8 8 11 15 17 18 18 18 18 19 20 20 19 19 18 16 12 8 6 7 9 10 14 16 16 17 16 15 14 13 12 10 10 9 8 7 6 5 5 4 3 2 2 1 1 1 1 2
9 8 9 12 15 18 19 19 19 17 18 20 19 19 18 15 14 10 5 3 4 8 10 13 16 17 18 16 15 14 14 12 11 10 10 9 8 7 7 6 5 4 3 2 2 2 2 2 2
9 9 10 13 15 19 20 20 19 18 17 17 16 16 16 15 13 8 4 1 3 6 11 14 15 17 17 15 15 15 15 13 12 11 11 10 10 9 7 6 5 4 3 2 2 2 2 2 2
8 10 12 14 17 19 21 20 19 19 16 13 13 14 14 13 12 9 5 1 2 7 11 13 15 16 17 15 15 15 14 13 12 12 12 11 10 9 8 6 5 4 3 3 2 2 2 3 3
10 10 13 15 17 19 20 20 19 17 13 10 10 10 10 10 11 9 5 2 2 6 9 13 15 16 17 16 16 15 15 14 14 14 13 12 11 9 8 7 6 5 4 2 2 2 2 2 2
13 13 15 17 18 19 19 20 19 17 13 9 7 7 8 8 9 7 5 2 3 6 9 12 14 15 16 17 16 16 16 16 15 14 13 12 11 10 9 8 7 5 4 3 2 1 1 1 2
13 14 15 17 17 19 18 20 16 13 8 4 3 5 6 7 7 6 5 3 3 6 9 11 13 14 15 16 16 16 16 16 15 15 13 12 11 11 10 9 8 6 5 4 3 2 2 2 2
14 16 17 17 17 18 18 18 14 8 4 2 2 4 5 6 6 5 4 2 3 5 8 10 12 13 14 16 16 16 16 16 16 15 14 13 12 12 11 10 9 8 7 6 5 5 5 4 5
13 16 18 19 19 18 18 17 14 10 6 3 3 3 5 5 5 5 4 2 3 5 7 9 11 12 14 14 15 16 17 16 16 15 15 14 13 13 12 11 11 10 9 8 8 8 7 7 7
14 15 16 19 20 20 19 16 12 10 8 5 4 4 4 4 4 4 3 2 2 4 6 7 9 11 12 13 14 16 16 16 16 15 15 15 15 14 14 13 13 12 11 11 11 11 10 10 10
17 16 18 21 21 21 19 15 14 11 9 7 4 4 3 2 2 2 2 1 1 3 4 6 8 9 11 13 13 14 16 15 16 16 16 16 15 15 15 15 14 14 14 14 14 14 14 13 13
19 19 21 21 21 22 20 17 14 13 11 8 6 5 3 1 0 1 0 0 1 2 4 5 6 7 9 12 12 14 16 15 16 17 17 17 17 17 17 17 17 17 16 16 17 17 17 17 17
23 22 23 22 23 23 23 20 16 14 12 10 6 4 4 2 2 2 2 2 2 3 4 5 7 8 9 11 12 14 16 16 17 17 17 18 18 19 19 19 20 20 19 19 20 20 20 20 20

GEFSSGP_500_meanwind_108.txt.gz
Wind_Speed
9 9 8 7 7 7 8 9 11 12 13 13 12 13 12 11 10 8 6 6 5 6 7 8 9 9 8 6 6 5 4 3 2 1 2 3 4 5 6 7 8 8 9 9 9 9 9 8 7
9 9 8 8 8 8 9 10 11 12 13 14 14 14 13 12 12 10 8 6 6 7 8 9 10 9 8 7 6 5 4 3 2 0 2 3 4 5 6 7 8 8 9 9 9 9 9 8 8
10 9 8 8 8 9 9 10 11 13 13 14 14 14 14 13 13 11 9 6 6 7 8 10 11 10 9 8 6 5 5 4 2 1 2 3 4 6 7 7 8 9 9 10 10 9 9 8 7
10 9 9 9 9 9 10 11 11 12 13 14 15 14 14 14 13 11 10 7 6 7 8 10 11 11 10 9 7 6 5 4 3 2 2 4 5 6 7 8 8 9 9 10 10 9 9 8 7
10 10 9 9 9 10 11 11 12 13 14 15 15 14 14 14 13 12 10 7 7 8 9 11 12 11 11 10 8 7 6 5 4 3 3 4 6 7 8 8 9 9 10 10 10 9 9 8 7
11 11 10 10 10 11 11 12 12 14 15 16 15 14 15 15 13 11 10 9 8 9 10 12 13 12 11 10 9 8 7 6 4 3 4 5 6 7 8 9 9 10 10 10 9 9 9 8 7
11 11 11 11 11 11 11 12 12 14 15 17 16 15 16 15 13 12 10 9 8 9 11 13 14 14 13 11 10 10 9 7 5 4 5 5 6 8 9 9 10 10 10 9 9 9 8 8 7
12 12 12 12 12 11 11 12 13 14 16 17 17 16 16 15 13 12 12 10 9 9 12 14 15 15 14 13 12 11 9 8 6 6 6 6 7 8 9 9 10 10 10 9 9 8 7 7 7
13 12 13 13 12 12 11 12 13 14 15 16 17 17 17 16 14 14 13 11 10 10 12 14 15 14 15 14 13 12 10 9 8 7 7 7 7 8 9 9 9 10 9 9 8 7 7 6 6
14 14 13 13 12 12 11 11 12 13 15 16 17 17 18 17 16 15 14 12 11 11 11 14 15 15 15 15 14 13 11 10 9 8 7 8 8 9 8 9 9 9 9 8 7 6 6 5 4
13 13 13 13 12 11 11 11 12 13 14 16 17 18 18 18 17 17 16 14 12 12 13 14 16 16 16 17 16 14 12 11 10 9 8 9 9 8 8 8 8 8 8 7 6 5 5 4 4
13 13 12 12 11 11 10 11 12 13 14 15 17 19 19 19 18 17 17 15 14 13 13 15 17 18 17 18 17 15 14 13 11 11 10 10 9 8 8 7 7 6 6 6 5 5 4 3 3
11 12 11 10 10 10 10 11 12 14 15 15 17 19 20 19 19 17 16 15 14 13 14 16 17 18 18 19 18 16 15 14 12 11 10 10 9 8 7 7 6 6 6 5 4 4 3 2 2
11 10 9 9 10 10 10 11 13 14 15 16 17 19 19 19 18 18 15 13 11 11 13 16 17 18 20 21 20 17 16 14 12 11 9 8 8 7 7 6 5 5 4 4 3 3 2 2 2
11 10 9 10 10 10 11 11 13 14 16 17 18 19 19 19 19 17 15 12 10 9 12 15 17 18 19 20 20 18 16 15 13 11 10 8 8 7 6 5 4 3 3 2 2 2 2 2 2
12 12 11 11 12 12 13 12 13 15 16 18 20 21 20 20 19 16 13 10 8 8 12 15 16 18 19 19 19 19 17 15 14 13 11 9 8 7 6 4 3 3 2 1 1 1 2 2 2
14 14 14 14 14 14 14 14 15 16 17 19 20 21 20 19 18 14 11 8 6 8 11 14 15 16 19 19 19 19 17 16 14 13 12 10 9 7 6 5 4 2 1 0 1 1 2 2 2
16 15 15 16 16 16 14 15 16 17 18 19 20 20 20 18 17 12 9 7 5 7 11 13 15 17 18 19 19 19 17 16 14 13 12 11 9 8 7 6 4 3 2 1 0 1 1 1 2
17 17 16 17 17 16 15 15 16 17 19 19 18 19 18 18 16 12 8 6 6 7 10 13 15 17 18 19 18 18 17 16 14 13 12 11 10 9 8 7 5 3 2 1 0 0 1 1 1
18 18 18 18 18 17 15 16 17 18 18 17 17 17 18 18 15 11 7 5 5 7 9 14 17 17 17 19 19 18 17 16 15 14 13 12 11 9 8 8 6 4 3 2 1 1 0 0 1
19 19 18 18 19 18 16 15 17 18 17 17 17 17 18 17 14 11 7 5 6 8 10 13 17 18 18 20 20 18 17 17 17 15 14 13 11 10 10 8 7 5 4 3 2 1 0 0 0
19 20 20 19 19 17 16 16 16 18 17 17 16 15 15 14 12 10 7 5 5 7 10 13 16 18 20 20 20 19 17 17 16 16 15 14 12 11 11 9 8 6 5 4 3 2 1 0 0
20 21 21 19 19 17 16 16 15 17 17 15 14 12 13 12 10 8 6 4 4 6 9 12 16 18 20 20 20 19 18 17 17 16 15 15 14 12 11 10 9 7 6 5 4 3 2 2 1
20 20 20 20 19 17 15 15 14 15 15 13 10 10 11 11 9 7 5 3 3 5 8 11 15 17 18 19 19 19 18 18 17 16 16 16 15 13 12 11 10 9 8 7 6 5 4 3 3
20 20 20 20 18 16 14 14 13 14 13 11 9 9 10 9 7 6 5 4 3 4 7 11 13 15 17 18 19 19 18 18 18 17 17 16 15 14 13 12 12 11 10 9 8 7 6 6 6
21 21 21 20 19 17 15 12 12 12 11 10 9 8 9 8 7 6 5 3 3 4 6 8 12 13 15 16 18 18 18 18 17 17 17 16 16 15 14 14 13 13 12 11 10 10 9 9 9
21 22 22 21 20 18 15 11 10 12 11 10 9 9 8 8 7 6 5 3 2 3 6 9 10 12 13 15 16 17 17 17 17 17 17 16 16 16 15 15 15 15 15 14 13 13 12 13 13
22 23 23 23 22 20 15 11 10 11 11 10 9 9 9 8 7 6 5 4 2 2 4 7 10 11 11 12 14 15 16 17 17 17 17 17 17 16 16 17 17 17 17 16 16 16 16 16 16
23 23 23 24 24 22 18 12 10 11 11 9 9 9 9 9 8 7 6 4 3 2 4 6 8 10 10 11 12 14 15 16 17 18 17 17 17 18 18 18 18 19 19 19 19 20 20 20 20
26 26 25 25 23 23 21 14 12 12 12 11 10 10 10 10 9 8 7 6 5 4 4 5 6 8 10 11 12 14 15 16 17 18 18 18 18 18 19 19 20 20 21 22 22 23 23 23 24

GEFSSGP_500_meanwind_114.txt.gz
Wind_Speed
10 9 8 8 9 9 8 8 8 7 6 6 5 4 4 3 2 2 3 4 7 9 9 10 11 11 11 10 10 9 9 8 7 6 6 5 5 5 6 6 6 6 6 6 6 6 5 5 5
10 9 8 8 9 7 8 8 8 7 6 6 5 4 4 3 3 3 3 4 6 9 10 10 11 12 12 12 11 10 9 8 7 6 5 5 4 4 5 5 5 5 5 6 5 5 4 4 4
10 9 8 9 8 5 7 8 8 7 7 7 6 5 5 4 4 3 3 4 6 8 9 10 11 12 12 12 11 11 10 9 8 6 5 4 4 3 3 4 4 4 4 5 4 4 3 3 3
10 10 8 8 7 8 8 8 8 7 8 7 7 6 6 5 5 4 3 4 6 8 9 10 12 13 13 13 12 11 10 9 8 6 5 4 3 3 3 3 3 3 3 3 3 3 3 2 2
10 10 9 8 7 9 9 8 8 8 8 8 8 8 8 7 6 5 4 4 6 8 10 10 12 13 13 13 13 12 11 10 8 7 6 4 3 2 2 2 2 2 2 2 3 2 2 1 1
9 10 8 6 8 9 9 9 8 8 9 9 9 9 10 9 7 6 6 7 7 9 10 12 13 14 14 14 14 13 12 10 9 7 6 5 3 2 1 1 2 2 2 2 2 1 1 0 0
9 9 8 7 9 10 9 9 8 8 9 9 10 10 10 10 9 8 7 7 7 8 11 12 14 15 15 15 15 14 13 11 9 8 7 5 3 1 1 1 1 1 1 2 2 1 1 1 1
9 9 8 8 8 9 9 9 8 9 10 10 10 11 10 11 10 10 9 8 8 9 11 12 14 15 17 17 16 15 13 11 10 9 7 5 3 2 1 0 1 1 1 2 2 1 1 1 1
9 8 7 7 7 8 8 9 9 10 11 11 11 11 12 12 11 11 10 9 9 9 11 13 14 16 18 18 17 16 14 12 11 9 7 6 4 2 1 1 1 1 1 1 1 1 2 2 2
9 7 7 7 7 8 9 10 10 11 11 12 12 13 13 13 13 12 11 10 10 10 11 13 16 17 18 18 18 17 15 14 12 10 8 6 5 3 2 1 0 0 0 1 1 1 2 2 2
10 8 7 7 8 8 9 9 10 11 12 12 13 14 14 15 16 15 13 13 12 12 13 13 16 18 18 19 19 18 17 15 13 10 8 6 5 3 2 2 1 1 1 1 1 1 2 2 2
10 9 8 8 8 8 9 10 11 12 12 13 14 15 15 16 17 17 15 14 13 13 14 14 17 19 19 19 19 19 18 16 13 11 9 7 6 5 4 3 2 1 1 1 1 1 1 1 2
10 10 9 9 9 9 9 10 12 13 13 13 14 15 15 17 18 17 16 15 13 14 14 15 17 19 21 20 19 19 18 16 14 11 9 7 6 6 5 3 2 2 2 1 1 1 1 1 2
11 11 10 10 10 9 10 12 13 13 14 14 15 16 17 18 19 17 17 15 14 14 12 14 17 20 21 21 20 21 19 17 14 12 9 8 7 6 5 4 4 3 2 1 0 0 0 1 1
11 11 11 11 11 10 11 12 14 14 15 15 16 18 19 19 18 17 16 14 13 12 11 11 15 19 21 22 21 21 20 18 15 13 10 9 8 7 5 5 4 3 2 2 1 1 1 1 0
12 11 11 13 12 11 11 11 15 15 15 16 17 18 19 18 17 16 15 13 13 12 11 12 13 17 20 22 22 22 20 18 16 14 12 10 9 8 6 5 5 4 3 2 1 1 1 1 1
12 11 11 13 12 12 13 13 16 16 16 17 18 18 18 17 16 15 13 11 11 10 10 12 14 17 20 22 22 22 21 19 17 15 13 10 10 8 7 6 5 4 3 3 2 2 2 1 1
13 12 13 13 13 12 13 14 15 16 17 18 18 18 17 16 15 14 11 10 9 9 10 12 14 15 17 20 21 21 20 19 17 15 13 12 11 9 8 7 6 5 4 3 3 3 2 2 1
14 13 13 14 13 13 13 14 15 16 18 18 18 17 15 15 15 12 10 9 8 8 10 12 15 15 17 19 20 20 19 18 17 15 13 13 11 10 8 7 7 6 5 4 3 3 2 2 1
14 13 13 14 14 13 12 13 15 16 17 18 17 16 15 15 13 11 9 8 7 6 8 11 14 15 17 20 20 19 19 18 16 16 14 13 11 10 8 7 7 6 5 4 4 3 3 2 1
14 14 14 14 14 13 12 12 14 15 16 16 15 15 14 13 12 10 8 7 6 6 8 11 13 15 17 19 20 19 19 17 17 16 15 13 12 10 9 8 7 7 6 5 4 4 3 3 2
15 15 14 14 12 13 12 11 12 13 14 14 15 14 13 12 11 9 7 6 5 6 7 10 13 15 16 18 18 18 18 17 17 17 15 14 13 11 10 9 9 8 7 6 6 5 4 3 2
16 16 14 13 13 12 12 11 10 12 13 13 13 12 11 10 9 8 7 6 5 5 6 8 12 15 17 18 18 17 18 18 18 17 16 15 13 12 11 10 10 9 8 8 7 6 5 3 3
16 15 14 13 13 12 12 11 10 12 12 12 11 10 10 9 8 7 6 5 4 4 5 7 10 14 16 17 18 18 18 18 18 17 16 15 14 13 12 11 11 10 10 9 8 7 6 5 4
16 14 13 13 13 13 14 12 11 11 11 11 10 10 9 9 8 7 5 5 4 3 4 7 9 12 14 16 18 18 18 18 17 16 15 14 14 13 13 13 12 12 11 11 10 9 8 7 6
17 16 15 14 13 13 15 13 11 11 11 10 10 9 9 8 8 7 6 5 4 3 3 6 8 10 13 15 18 18 18 18 17 16 15 15 14 15 14 14 14 13 13 13 12 11 11 10 9
19 18 16 16 15 14 13 13 12 11 11 10 10 9 8 8 8 8 7 6 5 3 3 5 7 9 11 15 17 17 17 17 17 16 15 15 15 15 16 15 15 15 15 15 14 13 13 13 12
19 18 19 17 16 15 13 12 11 11 11 10 10 9 8 8 8 8 7 6 5 3 3 4 7 10 11 13 15 16 16 16 16 16 16 16 15 15 17 17 16 16 16 17 17 16 16 16 16
20 20 19 18 17 16 14 13 13 12 12 11 10 10 9 8 8 7 6 6 5 3 2 3 5 8 11 12 13 15 15 16 15 15 16 16 16 16 17 17 17 17 17 18 18 19 19 19 19
21 20 20 19 19 18 16 15 15 13 12 11 11 10 10 9 8 7 6 5 5 4 3 3 4 6 9 11 12 13 14 15 15 15 16 17 17 17 17 18 18 18 18 19 20 20 21 21 22

GEFSSGP_500_meanwind_120.txt.gz
Wind_Speed
9 9 9 8 8 12 11 9 9 10 10 9 9 8 8 10 10 9 8 9 7 9 9 9 9 10 10 9 9 8 8 7 7 6 5 5 4 3 3 3 2 2 2 2 2 1 2 1 0
9 8 8 8 11 12 9 8 11 11 11 10 9 9 9 10 11 10 10 9 8 9 9 10 10 10 10 10 10 9 8 8 8 7 6 5 4 3 2 2 1 1 1 1 1 1 1 0 0
8 7 8 8 10 10 7 9 12 12 12 10 9 9 9 10 10 11 10 10 9 9 9 10 10 11 11 11 10 10 9 9 8 7 6 5 4 3 2 2 1 1 0 0 0 0 1 1 1
7 7 8 8 8 5 8 10 11 11 12 12 10 9 9 10 11 11 10 10 9 9 10 11 11 12 12 11 11 11 10 10 9 8 7 6 5 4 3 2 2 1 1 1 1 1 2 2 2
5 6 7 7 6 6 9 10 9 9 11 12 12 12 11 12 12 12 11 11 9 9 10 11 12 12 13 12 12 12 11 11 10 9 8 7 5 4 3 3 2 2 2 2 2 2 2 2 3
4 6 7 7 5 6 9 11 9 9 11 13 13 13 12 13 12 12 12 12 10 9 11 11 12 13 13 13 13 12 12 11 10 9 8 7 6 5 4 3 2 2 3 3 3 3 3 3 3
4 6 6 5 4 7 9 10 9 10 12 13 13 14 13 13 13 13 13 13 11 10 11 12 12 14 15 14 13 13 13 12 11 10 9 8 7 6 5 4 3 3 3 3 3 3 3 3 3
4 3 3 3 4 7 11 9 9 11 12 12 13 14 15 14 15 14 14 14 12 10 10 12 13 14 14 15 15 14 13 13 12 11 10 9 8 6 6 5 4 4 3 3 3 3 3 3 3
3 2 3 2 4 8 11 10 10 12 13 13 13 15 16 16 16 15 15 15 14 12 11 11 13 13 14 15 16 16 15 14 12 11 10 9 8 7 6 5 5 4 4 3 3 3 3 3 3
2 2 2 2 6 9 12 11 9 11 13 16 17 16 18 17 16 17 17 17 16 14 13 12 12 13 14 16 16 17 16 15 14 12 11 9 8 7 6 6 5 4 3 3 3 2 2 2 2
4 4 4 6 9 11 10 10 10 12 13 16 17 18 18 18 18 18 19 19 18 16 15 13 13 14 15 16 17 17 17 16 15 13 11 10 9 8 7 6 5 4 3 3 2 2 2 2 2
7 6 7 8 9 10 9 9 10 12 14 16 17 19 20 20 20 20 21 19 19 18 17 15 15 15 15 17 19 19 18 17 16 14 12 11 10 9 8 6 5 4 3 3 2 1 1 1 1
8 8 8 9 10 10 10 10 10 12 13 15 17 19 20 20 22 22 22 20 20 19 18 17 17 15 15 16 17 18 18 16 16 14 13 11 10 9 8 6 5 4 3 2 1 0 0 1 1
8 10 10 9 9 9 10 10 12 14 13 16 19 20 21 22 23 23 23 20 21 19 17 17 15 13 13 15 18 18 18 16 15 14 13 11 10 9 7 6 5 4 3 2 1 0 1 1 1
9 9 8 8 7 9 11 12 15 15 15 18 20 21 21 22 23 22 21 19 19 17 16 16 13 13 12 14 17 17 17 15 15 14 13 11 10 8 7 5 4 4 3 2 1 0 1 1 2
8 8 9 8 7 9 12 13 16 16 16 20 21 21 21 22 22 20 20 18 17 15 15 15 13 12 12 12 15 16 16 16 15 14 13 11 10 8 7 6 5 4 3 2 1 0 1 1 2
7 9 10 9 9 10 13 14 15 17 17 21 22 21 22 21 20 19 19 17 15 14 14 14 13 12 11 11 15 17 17 17 16 14 13 12 10 9 8 7 6 4 3 2 1 1 0 1 2
7 9 10 9 11 14 16 14 15 16 18 21 22 22 21 20 19 19 18 16 12 12 11 11 10 11 11 11 13 15 16 16 16 15 13 12 11 10 9 8 7 5 4 3 2 2 1 0 1
10 11 12 11 13 17 17 14 15 17 17 19 21 21 19 18 18 18 16 13 10 9 9 8 9 10 11 11 13 14 16 16 16 15 14 13 12 11 9 8 7 6 5 4 3 2 1 1 1
14 14 14 15 17 18 17 14 16 18 16 18 21 21 19 18 17 16 14 11 9 9 8 7 8 9 10 11 13 15 16 16 16 15 14 13 12 11 10 9 8 7 6 5 4 3 2 1 1
15 15 14 16 16 16 15 13 16 17 16 16 19 19 19 17 16 14 12 10 10 9 8 8 8 9 10 11 13 15 16 16 15 14 14 14 13 12 10 10 9 8 7 6 5 3 3 2 1
16 15 15 16 16 15 15 15 16 19 17 16 17 18 18 17 16 13 11 10 10 8 7 7 7 9 10 11 13 14 15 15 14 14 16 15 14 13 12 11 10 9 8 7 6 4 3 2 1
16 16 16 16 17 15 14 13 15 17 16 16 17 18 18 17 15 12 11 10 9 7 6 6 6 7 9 10 12 14 15 15 15 15 16 15 15 14 13 12 10 10 9 8 7 6 5 3 2
16 15 15 15 14 13 12 13 14 17 19 16 18 19 18 16 14 12 10 9 8 6 5 5 6 7 8 10 12 14 15 16 16 16 16 15 15 14 13 13 12 11 10 10 9 8 7 5 4
16 15 14 13 12 12 12 11 12 16 18 17 19 20 18 15 13 11 9 8 7 6 5 5 5 6 7 10 13 14 15 15 15 16 16 15 15 14 14 14 13 12 11 11 10 10 9 7 6
16 15 15 14 14 15 13 12 11 14 16 18 19 19 17 14 12 11 9 8 7 6 5 5 5 6 7 10 13 14 15 15 16 16 16 16 15 15 14 14 13 13 12 12 12 11 11 10 9
16 16 14 16 15 16 14 12 13 15 16 17 18 17 14 13 12 11 10 9 7 6 5 5 5 6 7 9 11 13 14 15 16 17 17 16 15 15 14 14 13 13 13 13 13 13 13 12 12
17 16 16 17 17 17 15 17 19 15 15 16 16 16 14 12 11 11 10 9 7 6 6 5 4 6 7 8 10 12 13 14 15 16 17 16 16 15 15 14 14 14 14 14 15 15 15 15 15
15 17 18 18 18 17 17 18 18 15 15 14 16 16 14 13 12 11 10 9 7 6 6 4 3 5 7 8 9 11 12 14 15 15 16 16 16 16 15 15 15 14 14 15 16 17 17 17 18
16 16 18 20 20 19 19 18 17 14 13 13 17 17 16 15 13 11 10 10 8 6 5 4 4 4 7 7 8 10 11 13 14 14 16 16 16 16 16 16 16 15 16 16 17 18 19 19 19

GEFSSGP_500_meanwind_126.txt.gz
Wind_Speed
6 6 7 7 8 10 13 15 15 15 14 14 13 12 12 11 10 8 7 5 3 2 1 3 5 6 6 6 5 5 5 4 5 5 5 5 5 4 3 3 3 3 3 3 3 3 2 2 2
5 5 6 6 7 9 11 14 15 16 15 15 14 13 12 11 9 8 6 5 4 3 1 2 4 6 6 7 7 6 6 5 5 6 6 6 5 5 4 4 4 4 4 4 4 4 3 3 2
4 4 4 5 5 8 10 12 14 16 16 16 15 14 14 12 11 9 6 5 4 3 1 2 4 6 7 8 8 7 7 6 6 6 6 6 6 5 5 4 4 4 4 4 5 4 4 3 3
3 3 3 2 3 6 8 11 14 15 16 16 16 15 15 14 11 9 7 6 5 4 2 2 4 6 7 8 9 9 8 7 7 6 7 6 6 6 5 4 4 5 5 5 5 5 4 4 4
3 3 2 1 2 5 8 11 12 15 15 14 15 15 16 15 13 11 9 8 6 5 3 3 4 6 8 9 9 9 9 8 7 7 7 7 6 6 6 5 5 5 5 5 5 5 5 4 4
3 3 2 1 1 3 5 9 13 15 16 14 14 15 16 16 14 12 10 9 7 5 4 4 5 6 8 10 11 11 10 9 8 7 7 7 6 6 6 6 6 6 6 6 6 5 5 4 4
2 2 2 2 3 4 6 8 12 15 15 15 14 15 16 16 14 12 11 10 8 6 5 5 6 7 9 10 11 11 11 10 9 8 7 7 6 6 6 7 6 6 6 6 5 5 5 4 4
3 3 2 2 2 4 6 8 11 15 15 15 14 15 16 16 15 13 12 11 9 7 7 7 7 9 10 11 11 11 11 11 10 9 8 7 7 7 7 7 6 6 6 6 5 4 4 4 3
4 4 3 3 3 3 5 8 11 14 15 15 16 15 16 16 15 13 12 11 10 9 8 8 8 9 10 11 12 12 12 12 11 9 8 8 7 7 7 6 6 6 5 5 4 4 4 3 3
6 6 5 4 5 6 6 8 11 13 15 16 17 17 17 17 16 14 13 11 10 11 10 10 8 9 11 12 13 13 13 13 12 11 10 9 8 7 7 6 5 5 4 4 4 4 3 3 2
8 8 7 6 7 8 9 10 11 13 15 15 16 18 18 18 17 16 14 13 13 13 12 11 9 9 11 12 14 15 14 13 13 12 11 9 8 7 7 6 5 5 5 4 4 3 3 2 2
10 10 9 9 8 9 10 11 12 13 14 15 16 17 18 19 19 18 16 16 14 14 15 12 11 11 11 12 14 15 15 14 13 13 12 10 9 7 6 6 5 5 4 3 3 2 2 2 2
10 11 11 10 9 9 10 10 11 13 13 15 16 16 18 19 19 19 18 16 15 15 13 13 13 10 10 11 13 13 15 15 14 13 13 11 9 7 7 6 5 4 3 3 2 2 1 1 2
10 11 11 10 9 9 9 9 9 10 12 15 17 17 18 19 19 20 20 17 15 14 14 14 12 11 10 10 11 13 14 14 15 14 13 11 10 8 7 6 5 4 3 2 1 1 0 1 1
10 10 9 8 7 8 9 9 8 10 13 15 17 17 17 18 19 20 19 17 16 14 13 13 10 10 10 9 9 11 13 14 14 14 13 12 10 9 7 6 6 5 4 3 2 1 0 1 1
10 9 9 6 6 7 9 9 9 11 13 15 17 17 18 19 19 20 19 17 16 15 13 11 9 8 9 9 10 11 14 15 14 14 13 12 10 9 9 8 7 6 5 4 3 2 1 1 1
11 11 11 9 6 6 9 10 10 11 14 16 18 18 18 19 18 19 17 16 15 14 13 11 9 6 7 9 10 11 14 15 14 14 14 12 11 10 10 8 7 6 5 4 3 2 1 1 2
13 14 13 10 9 8 10 12 12 14 15 18 19 18 18 18 17 17 17 17 15 12 10 8 7 7 7 8 8 10 12 14 14 14 14 13 12 11 10 9 8 7 6 4 3 3 2 2 2
16 16 14 11 10 10 11 12 14 15 16 17 17 18 17 17 16 16 17 16 13 10 8 6 6 7 7 8 8 9 11 13 14 14 14 13 12 12 11 10 9 8 7 5 4 4 3 3 3
16 16 14 11 10 12 14 14 15 17 18 18 16 16 15 16 15 15 15 13 10 9 7 6 8 7 7 9 10 11 12 13 14 15 15 14 13 13 12 11 10 9 7 6 5 4 4 4 3
17 15 13 12 12 15 17 16 16 17 18 16 13 13 14 15 14 14 13 11 9 8 7 5 6 7 8 9 10 13 13 13 14 16 15 14 14 14 13 12 10 10 8 7 6 5 5 5 4
17 14 13 14 16 17 18 18 17 18 18 15 13 12 13 13 13 13 12 10 9 8 7 5 5 8 9 9 10 13 13 14 14 17 16 15 15 15 14 12 11 11 10 9 8 7 6 6 6
16 15 15 17 18 18 18 19 17 19 18 15 12 11 10 11 11 11 11 10 9 8 7 6 6 7 8 8 10 13 14 15 15 16 16 15 16 15 15 13 12 12 11 10 9 9 8 7 7
16 16 18 18 18 17 16 17 16 18 16 15 11 9 8 9 10 11 10 10 9 7 6 5 3 6 8 9 11 13 15 15 15 16 15 15 16 16 15 14 13 13 13 12 11 10 10 9 8
17 17 18 18 17 14 14 15 15 14 14 12 10 8 8 8 9 10 10 9 8 6 5 5 3 5 7 9 10 13 15 15 15 16 17 16 17 17 16 15 14 14 13 13 12 12 12 11 10
16 18 18 18 16 14 14 14 13 11 12 11 9 8 8 8 8 9 9 8 8 6 5 4 3 4 6 9 10 11 15 16 16 16 18 18 18 18 18 17 16 15 14 14 14 13 13 13 12
15 17 16 17 17 17 15 14 13 12 11 11 10 7 7 7 7 7 7 7 7 6 4 4 4 4 6 8 9 11 14 16 17 17 18 19 19 19 19 18 16 15 15 15 15 14 14 14 13
15 15 17 19 19 18 17 14 13 13 12 11 9 8 6 7 7 7 7 6 6 6 5 4 4 4 5 8 8 11 13 15 17 17 18 19 20 20 20 18 17 16 16 16 16 15 15 15 15
16 17 18 19 20 20 19 17 15 15 13 12 10 9 8 8 8 7 7 6 5 5 5 4 4 5 6 7 9 11 12 14 16 18 18 19 21 21 21 19 18 17 17 17 17 17 17 17 17
19 18 19 20 20 20 21 19 17 16 15 13 12 9 9 9 8 8 6 5 5 5 5 5 4 5 6 7 8 10 12 14 15 17 18 18 19 20 20 20 19 18 18 18 18 19 19 19 19

GEFSSGP_500_meanwind_132.txt.gz
Wind_Speed
7 7 7 8 9 10 13 15 17 17 18 18 18 18 17 14 11 8 5 3 2 1 2 3 4 3 3 2 2 3 3 4 4 5 6 6 6 6 7 7 7 7 6 7 7 6 6 5 5
7 7 6 6 8 10 13 15 16 17 17 17 18 17 16 14 12 9 6 4 3 1 2 3 4 4 4 3 3 3 3 3 3 4 4 5 6 6 6 6 7 7 6 6 6 6 6 5 5
6 6 6 7 8 9 12 14 15 16 16 17 17 16 16 15 13 10 7 5 3 1 1 3 4 4 5 4 4 3 2 2 2 3 3 4 5 5 6 6 6 6 6 7 6 6 5 5 4
5 5 5 6 7 8 9 12 14 15 16 17 17 16 16 15 13 11 8 6 4 2 1 2 3 4 5 5 5 3 3 2 1 1 2 3 4 5 5 5 6 6 6 7 7 6 5 5 4
4 5 5 6 6 6 7 9 13 14 15 16 17 17 16 16 14 12 9 6 4 2 1 2 3 3 5 6 5 5 4 3 2 1 0 1 3 4 5 5 6 6 6 7 6 6 5 4 4
4 5 5 5 5 4 5 8 10 13 14 15 15 16 16 16 14 12 10 7 5 4 2 2 3 4 5 5 6 6 5 5 4 3 2 1 2 3 4 5 5 6 6 6 6 6 5 4 3
5 6 5 6 6 5 6 7 9 10 12 13 14 15 15 15 15 13 11 9 7 5 4 4 5 5 6 6 7 7 7 6 5 4 3 2 2 3 4 4 5 5 5 5 6 5 4 4 3
6 7 7 7 8 8 8 7 7 8 9 11 13 14 15 15 15 14 12 11 9 7 6 6 6 6 6 7 7 8 8 7 6 5 4 3 2 2 3 4 4 5 5 5 5 4 4 3 3
8 8 8 8 9 9 10 10 9 8 8 10 12 13 14 15 15 14 13 12 10 9 8 7 7 6 6 7 8 9 8 8 7 6 5 4 3 2 3 3 4 4 4 4 4 4 4 3 3
9 10 10 10 10 11 11 11 10 9 8 8 10 13 14 15 15 14 14 13 11 10 9 8 8 7 7 8 9 9 10 9 8 8 7 5 4 3 3 3 3 3 4 4 4 3 3 3 3
9 10 11 11 12 12 12 12 11 10 9 9 10 12 13 14 15 15 15 14 13 11 11 9 9 8 8 9 9 10 11 11 11 10 8 7 5 4 3 3 3 3 3 3 3 3 3 3 3
10 11 12 12 13 13 13 12 12 10 9 9 10 12 13 14 15 15 15 15 15 14 11 10 10 10 9 10 10 10 12 12 12 12 10 8 6 5 4 3 2 2 3 3 2 2 3 3 2
11 12 12 12 13 13 13 12 11 9 9 9 10 11 11 13 15 15 17 17 17 15 12 11 12 10 10 10 11 12 13 13 13 13 11 9 8 6 5 3 3 2 2 2 1 2 2 2 2
11 12 12 12 13 13 13 12 11 9 10 9 10 10 11 13 15 15 16 17 17 16 13 11 10 9 10 11 11 11 12 14 13 13 13 11 9 7 5 4 4 2 1 1 0 1 1 2 2
12 12 12 13 13 13 13 11 10 10 10 9 9 10 11 13 15 15 16 17 17 15 12 11 10 9 9 11 11 11 12 12 13 13 13 11 10 8 7 5 5 3 2 1 0 0 1 1 2
13 13 14 14 14 15 13 10 10 10 10 9 9 10 12 13 14 15 16 17 17 13 12 12 8 7 8 10 11 10 11 12 13 13 12 11 10 9 8 7 6 5 3 2 1 0 1 2 2
14 14 14 14 15 15 14 12 12 11 10 9 11 11 13 14 13 14 15 16 16 14 12 10 6 5 7 9 10 11 12 13 14 13 13 12 11 10 9 8 7 6 4 3 2 0 0 1 2
15 15 15 15 16 15 14 13 13 12 11 11 11 12 13 13 13 14 15 16 15 14 11 9 6 5 6 8 10 11 12 13 14 14 14 13 12 10 10 9 8 7 5 4 2 1 1 0 1
16 16 16 16 17 17 16 15 15 14 13 12 12 12 13 13 14 15 15 15 14 13 10 8 6 5 6 7 10 11 13 14 14 15 15 14 13 12 11 10 9 8 7 5 4 3 2 1 1
16 16 16 17 19 19 18 17 15 15 14 13 12 12 13 14 15 15 15 16 14 12 10 7 5 5 6 8 10 12 13 14 15 15 15 15 14 13 12 11 11 10 8 6 5 4 3 2 2
17 17 17 18 20 21 20 17 16 15 15 13 12 12 13 14 14 14 15 14 12 11 9 7 5 5 7 8 10 11 13 15 15 14 16 16 15 14 14 13 11 10 9 8 6 5 4 3 3
18 18 19 20 21 22 21 18 15 16 14 13 12 12 12 13 14 14 14 13 12 10 9 7 4 5 7 9 11 12 13 15 15 16 16 16 15 15 14 14 12 11 10 9 8 7 6 5 4
20 22 21 21 22 21 21 19 16 15 14 13 12 12 12 12 12 13 13 12 11 9 8 6 4 5 7 10 11 13 14 16 16 16 16 16 16 15 15 14 13 12 11 10 9 9 7 7 6
22 23 22 22 22 21 19 19 16 15 14 13 12 12 12 12 12 12 12 11 10 9 8 6 5 4 7 9 12 13 14 16 16 16 16 16 16 16 15 15 14 13 12 12 11 10 9 9 8
22 22 23 22 22 20 18 18 15 13 12 12 12 11 12 11 10 11 10 9 9 8 7 6 4 3 5 8 10 13 15 16 15 16 17 17 17 16 16 16 15 14 13 12 11 11 11 10 10
23 23 22 22 21 19 18 16 14 13 12 11 11 10 10 10 10 10 9 9 8 7 7 5 5 4 4 6 10 13 14 16 15 16 17 18 17 17 17 18 17 16 15 14 13 12 12 12 12
25 24 22 22 21 19 18 16 15 14 12 12 10 9 10 10 10 10 9 9 8 7 6 6 5 4 4 5 8 11 14 15 15 16 17 18 18 19 18 19 18 17 16 15 15 14 14 14 14
25 24 23 22 21 19 18 16 15 13 13 13 12 10 10 10 10 10 9 8 7 7 6 6 5 4 3 4 5 8 12 13 14 15 16 17 18 19 19 20 20 19 18 17 16 16 16 16 16
25 24 24 23 21 20 18 15 14 13 13 12 11 10 10 10 10 9 8 7 7 6 6 6 5 4 4 4 5 7 10 12 13 14 15 16 18 19 19 20 20 20 20 19 19 18 18 18 18
25 24 23 22 21 19 18 15 14 13 14 13 11 10 9 10 11 10 8 7 7 7 7 7 6 5 5 5 6 7 9 11 12 13 15 16 17 19 20 21 21 22 22 21 20 20 20 20 20

GEFSSGP_500_meanwind_138.txt.gz
Wind_Speed
13 13 13 13 15 14 12 12 12 13 13 13 13 12 12 11 9 7 6 5 4 4 5 6 6 6 6 6 6 7 7 8 9 9 9 10 9 9 9 8 8 7 7 6 6 6 5 5 5
12 12 12 13 14 11 11 11 12 13 13 12 13 13 12 11 10 8 6 5 4 3 3 4 5 6 6 6 6 7 7 7 8 9 9 9 8 8 7 7 7 6 6 6 5 5 5 4 4
10 10 11 12 10 8 9 10 11 12 12 13 13 13 13 12 10 8 7 5 4 3 2 3 4 5 6 6 6 6 6 7 8 8 8 8 7 7 7 6 6 6 6 5 5 5 4 4 4
9 10 10 10 7 7 8 9 10 11 11 12 13 13 13 12 11 9 7 6 5 3 2 2 3 4 5 6 6 7 7 7 7 7 7 7 6 6 6 5 5 5 5 5 5 4 4 4 4
8 9 10 7 6 7 8 9 9 9 10 11 11 12 12 12 10 9 8 6 4 3 2 1 2 3 4 5 6 7 7 7 7 7 6 6 5 5 5 4 4 4 4 4 5 4 4 4 3
8 9 8 4 6 7 7 7 8 9 9 9 10 10 11 11 10 9 8 7 5 3 1 1 2 3 4 5 6 6 7 7 7 7 6 6 5 4 4 4 4 4 4 4 4 4 3 3 3
7 8 6 5 6 7 7 7 7 9 9 8 9 9 10 10 10 9 9 8 6 4 3 3 3 4 5 6 7 7 7 7 7 7 7 6 5 4 3 3 3 3 3 3 3 3 3 3 3
6 7 6 5 5 6 7 7 7 8 9 8 8 9 9 10 9 9 9 8 7 6 5 4 4 5 6 7 8 8 8 8 8 8 7 7 6 4 3 2 2 3 3 3 3 3 3 3 2
6 5 4 4 4 5 7 7 7 8 8 7 7 8 9 10 9 9 9 9 8 7 7 5 5 5 6 7 8 9 9 9 9 8 8 7 6 5 3 2 2 2 3 3 3 2 3 3 2
5 4 3 4 4 5 6 6 6 7 7 7 7 8 9 9 9 9 10 10 9 9 8 7 6 6 7 8 9 9 10 10 10 9 9 8 7 5 4 3 3 2 2 2 2 3 3 3 2
5 4 4 4 4 4 5 5 5 6 7 7 7 8 8 9 10 10 10 11 10 10 9 8 7 7 8 8 9 10 10 10 11 11 10 9 8 7 5 4 3 2 2 2 2 3 3 2 2
6 6 5 5 5 5 5 5 5 6 7 7 7 8 8 9 10 11 11 12 12 12 12 10 9 8 9 9 9 10 11 12 12 12 11 10 9 8 6 5 3 2 2 3 3 2 2 2 2
6 6 6 7 6 6 5 5 5 6 7 7 7 8 9 9 10 11 12 13 13 14 12 11 9 9 10 11 11 11 12 12 12 12 11 11 9 9 8 6 4 3 3 3 3 2 2 2 3
7 7 7 8 8 7 6 5 5 6 7 7 8 9 9 10 10 12 13 14 15 14 12 11 10 10 10 11 12 11 13 13 12 12 12 12 11 10 8 7 5 4 3 3 2 2 2 2 2
9 9 8 8 8 7 6 6 6 6 7 8 8 8 9 10 11 13 15 16 16 14 13 10 9 10 10 10 11 13 13 13 14 13 13 13 12 11 10 8 6 5 4 3 2 2 2 2 2
10 10 10 10 8 7 6 6 8 7 7 8 9 9 10 11 12 14 16 17 15 14 13 11 10 10 9 10 11 13 14 14 14 14 14 13 13 12 11 9 7 6 5 4 3 3 2 2 2
11 10 10 11 9 8 7 7 9 8 8 9 10 10 11 12 13 14 15 14 14 14 12 11 10 9 8 9 10 13 14 14 14 14 14 14 14 13 12 10 8 7 6 5 3 3 2 2 2
12 12 12 12 10 9 8 9 9 9 9 10 10 11 11 12 12 13 12 13 13 13 12 11 9 8 8 9 11 12 14 16 15 15 15 15 15 14 13 11 10 8 7 5 4 3 2 2 2
13 13 13 13 12 10 9 9 10 11 10 11 11 11 12 12 12 12 12 12 12 12 11 10 9 7 7 9 11 12 14 15 15 15 15 15 15 15 13 12 11 10 8 7 5 4 3 3 2
15 14 14 14 13 11 10 10 11 12 12 12 12 12 12 13 12 12 12 13 12 11 11 9 8 7 7 9 11 13 14 15 15 15 15 16 16 15 14 12 11 11 9 8 6 5 4 3 3
16 16 16 16 14 13 11 11 12 13 13 12 12 13 13 13 13 11 12 13 13 11 10 9 8 7 7 9 11 12 13 14 14 15 16 17 17 16 15 13 13 12 10 9 8 6 5 4 4
19 18 17 16 14 14 11 10 14 13 12 12 13 14 14 13 12 11 12 12 12 11 10 9 8 6 7 8 10 11 12 14 15 16 17 17 17 17 16 15 14 13 11 10 9 8 7 6 6
21 19 18 16 14 14 13 11 13 13 12 13 13 13 13 12 12 12 11 11 11 10 10 9 8 6 6 8 9 10 12 14 16 16 17 18 18 17 17 16 15 14 13 12 11 9 8 7 7
22 19 18 16 15 14 14 12 12 13 12 12 12 12 11 11 10 10 10 10 10 10 9 8 7 6 6 7 9 10 11 14 15 17 18 18 18 18 17 17 16 15 15 13 12 11 10 9 9
21 19 17 16 15 14 15 13 13 13 11 11 11 10 10 10 10 10 10 9 9 9 8 8 7 6 5 6 8 9 10 12 15 17 18 18 18 18 18 18 17 17 16 15 14 13 12 12 11
22 20 18 15 13 14 16 14 14 13 11 11 10 10 9 9 9 9 9 9 9 8 8 7 7 6 5 6 7 9 10 11 13 16 18 18 18 18 17 17 18 17 17 16 16 15 14 14 13
24 21 19 18 17 15 15 15 14 13 12 11 11 10 9 8 8 8 8 9 9 8 7 7 7 6 5 5 6 7 9 11 13 15 17 17 18 18 18 18 18 18 18 18 17 16 16 16 15
25 23 22 20 18 16 15 14 13 13 12 12 11 10 9 9 8 8 9 8 8 8 7 7 7 6 5 5 6 7 9 10 13 14 15 16 16 17 18 19 19 19 20 20 19 18 18 18 18
25 24 23 21 20 16 13 14 14 13 12 11 11 10 9 8 9 8 8 8 7 7 7 7 7 7 6 6 6 7 8 10 12 13 14 15 16 17 18 19 20 20 19 20 21 20 20 19 19
25 24 22 21 20 17 14 14 15 13 12 12 11 11 10 9 9 9 9 9 9 9 9 8 8 8 8 7 7 8 8 9 11 13 14 15 16 17 18 19 20 20 20 19 20 21 22 21 21

GEFSSGP_500_meanwind_144.txt.gz
Wind_Speed
15 16 16 16 18 17 12 9 8 9 9 9 7 6 6 5 4 4 3 2 1 1 2 3 4 4 4 4 4 4 4 4 5 5 5 5 5 5 5 4 4 4 3 3 3 3 3 3 3
14 14 15 16 17 14 10 9 9 10 10 9 8 7 7 6 5 4 4 3 1 1 2 3 4 4 4 4 4 5 5 5 5 5 5 5 5 5 4 4 3 3 3 3 3 2 2 2 3
13 13 14 16 15 11 9 8 10 11 11 10 8 8 8 7 6 5 4 4 2 1 1 2 4 4 5 5 5 5 5 6 5 5 5 5 4 4 4 3 3 2 2 2 2 2 2 2 2
12 13 14 14 12 9 8 8 9 10 10 10 10 9 9 8 7 6 5 4 3 1 1 1 3 4 4 4 5 5 5 6 6 6 5 5 4 4 3 2 2 2 2 2 2 2 2 2 2
10 12 12 11 10 5 7 7 7 8 10 10 10 9 8 9 8 6 5 4 3 2 1 0 1 3 3 4 5 6 6 6 6 6 6 5 4 3 3 2 2 2 2 2 3 3 2 2 1
8 12 12 10 7 5 6 7 8 8 10 10 9 8 9 9 9 8 6 5 4 3 2 1 2 3 4 4 5 6 7 7 7 7 6 5 4 3 3 2 2 2 2 3 3 2 2 2 1
9 11 10 6 4 5 7 6 6 7 8 9 10 9 10 10 10 9 7 7 6 5 4 3 3 3 4 5 6 7 7 8 8 7 6 6 5 3 3 2 1 1 2 3 2 2 2 1 1
9 10 8 4 2 4 6 6 7 8 8 8 11 11 11 11 11 10 9 8 8 7 6 5 5 5 5 7 8 8 8 8 8 8 7 6 5 4 3 2 1 2 2 2 2 2 1 1 1
8 10 8 3 0 5 7 5 7 9 8 8 10 12 12 12 11 11 10 10 9 8 7 8 7 6 6 7 8 9 9 9 9 9 8 7 6 5 4 2 2 2 2 2 1 1 1 1 1
6 7 5 2 3 4 7 5 6 9 8 7 10 12 13 12 12 11 11 11 11 11 10 10 8 8 8 8 9 9 9 10 10 10 10 8 7 6 4 3 2 2 2 1 2 2 2 1 1
3 2 2 3 6 6 5 6 6 9 11 11 11 13 12 12 12 12 12 13 13 12 12 12 10 10 8 8 8 9 8 10 11 10 10 9 8 6 5 4 2 2 2 1 1 2 2 2 1
1 1 1 3 5 5 5 5 5 7 10 11 13 13 13 13 12 13 13 13 13 13 13 13 12 11 8 7 8 9 10 10 11 11 10 10 9 7 6 4 3 2 1 1 1 2 2 1 1
3 3 3 5 5 5 6 5 5 7 9 11 12 13 13 12 13 13 13 13 14 14 15 15 14 11 9 8 9 9 10 11 11 11 10 10 9 7 6 4 3 2 2 1 1 2 2 1 1
4 4 5 5 5 5 5 6 6 8 10 12 12 12 13 13 13 13 14 15 15 15 15 16 14 12 11 10 10 10 9 10 10 10 10 9 9 8 6 5 3 3 2 2 1 2 2 1 1
5 5 5 5 6 7 6 6 7 10 11 12 13 13 14 14 14 14 14 15 16 16 16 16 14 13 12 11 10 10 9 10 10 10 10 10 9 8 7 6 4 3 3 2 2 1 1 1 1
5 5 5 7 8 8 7 7 9 12 12 12 13 13 14 15 15 14 14 15 16 17 16 16 15 14 13 12 10 9 9 10 10 11 11 11 10 9 8 7 5 5 4 3 2 1 1 1 1
5 6 5 9 12 10 8 7 11 13 13 13 13 13 13 14 14 14 15 16 17 17 16 16 15 15 12 10 7 7 8 9 10 10 11 12 11 10 9 8 7 6 4 3 2 2 2 1 2
2 6 8 10 14 13 9 9 11 11 13 15 15 14 13 13 14 14 15 16 17 17 16 16 14 13 10 8 6 6 8 9 10 10 11 12 12 11 10 9 8 7 6 4 3 2 2 2 2
9 11 11 10 15 15 11 9 11 13 13 15 17 15 13 14 13 14 15 16 16 17 16 15 13 11 9 6 6 6 7 9 11 11 12 12 12 12 11 10 9 8 7 5 4 3 3 2 2
12 12 12 12 16 15 12 10 11 14 15 16 16 16 15 15 14 14 15 16 16 16 15 14 13 11 9 7 6 6 7 8 10 11 11 12 13 12 12 11 10 8 8 7 6 5 4 3 2
14 13 13 12 14 15 12 10 11 16 17 17 16 16 15 15 14 14 15 15 15 15 14 12 11 10 9 7 6 5 6 7 8 11 12 13 13 13 13 12 11 10 9 8 7 6 5 4 4
16 15 15 15 15 13 10 11 15 17 18 17 15 15 16 15 14 14 15 14 14 14 13 11 11 9 8 7 6 6 6 7 9 10 11 13 13 13 13 13 12 11 11 10 9 8 7 6 5
17 16 16 16 15 13 11 12 16 17 18 16 16 16 16 16 14 12 13 13 13 13 11 10 10 10 8 7 6 6 7 8 9 11 12 12 13 13 13 13 13 12 12 11 11 10 9 8 7
19 18 17 16 14 14 11 13 15 17 18 16 17 16 16 16 14 13 13 13 12 12 10 10 9 9 8 6 5 5 6 7 9 11 13 13 14 14 14 13 13 13 13 13 12 12 11 10 9
20 18 16 14 13 12 11 13 15 18 19 19 20 17 16 15 14 12 12 12 11 11 10 9 9 8 7 7 7 7 7 7 8 11 12 14 14 15 15 15 14 14 14 14 14 13 13 12 12
21 18 16 11 11 12 12 13 14 17 19 19 19 18 15 14 13 12 11 11 11 10 10 10 9 8 8 7 6 6 6 6 8 10 12 13 13 14 15 16 15 15 15 15 15 15 15 15 14
22 20 17 16 14 14 14 14 16 17 19 19 18 17 15 14 13 11 10 10 10 9 9 9 9 8 7 7 6 6 6 6 7 8 11 13 13 14 15 16 16 17 17 17 17 17 17 17 17
22 19 17 20 20 18 15 17 19 18 18 18 17 16 16 14 13 12 11 10 9 9 9 8 8 8 8 7 7 7 7 7 7 8 9 11 13 14 15 16 17 18 18 18 19 19 20 19 19
23 23 22 20 19 18 16 18 20 20 18 16 17 16 16 15 13 12 11 11 10 10 9 9 9 9 8 8 8 7 7 7 7 7 9 11 12 14 15 16 17 18 19 20 20 20 21 21 21
21 22 23 24 23 22 19 20 21 19 16 17 17 17 17 16 14 13 13 12 11 11 11 10 10 9 9 9 9 8 8 7 8 8 10 11 12 13 14 16 17 18 19 20 21 21 21 21 22

GEFSSGP_500_meanwind_150.txt.gz
Wind_Speed
15 15 15 15 16 17 19 19 18 16 16 16 15 13 13 11 10 9 7 5 4 4 3 3 2 2 2 1 1 1 1 2 2 2 3 3 3 2 1 1 1 1 1 0 1 1 1 1 2
14 14 15 16 16 17 19 18 17 17 16 16 15 14 12 11 10 9 7 6 5 4 3 2 2 1 1 0 0 1 2 2 2 2 3 3 3 3 3 2 2 2 2 1 0 0 1 1 2
12 13 13 15 17 17 17 17 18 18 17 16 15 14 12 11 11 9 8 8 7 5 4 2 1 1 1 1 1 1 2 3 3 3 3 3 3 3 3 3 3 3 3 2 1 0 1 1 2
9 11 13 13 16 16 15 16 18 17 16 16 15 14 13 13 12 10 9 8 7 6 4 2 1 1 1 2 2 3 2 3 3 3 3 3 4 4 4 4 4 4 3 3 1 1 1 1 1
9 9 11 13 15 14 15 16 17 17 17 16 14 14 14 14 13 11 10 8 8 6 5 3 1 1 2 2 3 3 3 4 4 4 3 4 4 4 4 4 4 4 4 3 1 1 0 0 1
9 9 11 12 13 12 12 14 17 17 16 15 15 15 15 14 12 11 10 9 8 7 5 4 2 1 2 3 4 3 3 3 4 4 4 4 4 4 4 4 4 4 3 2 1 1 0 0 1
8 8 10 11 11 9 9 11 15 16 16 15 15 15 14 13 11 10 9 9 8 6 5 5 3 2 2 3 4 4 4 4 4 4 4 4 4 4 4 4 4 3 3 2 1 1 0 0 1
6 7 8 9 8 8 9 11 14 15 16 16 16 16 15 13 11 10 10 9 8 7 6 6 5 4 4 4 4 5 5 5 5 5 5 5 4 4 3 4 3 3 3 2 2 1 0 0 1
6 7 7 6 6 7 9 11 13 15 16 16 16 16 15 14 12 11 10 9 8 8 7 7 6 5 4 4 4 5 5 6 6 6 5 5 4 4 3 3 3 3 3 2 1 1 1 1 1
5 4 5 4 4 5 7 9 12 14 15 15 15 15 15 14 13 11 10 9 9 9 7 7 8 7 6 4 5 6 5 5 6 6 6 5 4 3 3 3 3 3 2 2 1 0 0 1 2
2 2 2 2 3 4 6 8 10 12 13 14 15 14 14 14 13 12 11 10 10 10 9 9 9 9 7 5 4 6 6 6 6 5 6 5 5 4 4 3 3 2 2 1 1 0 1 1 2
4 1 1 1 2 4 6 8 9 10 11 12 13 14 14 14 13 12 12 11 11 11 11 10 10 10 8 5 4 5 7 7 7 7 6 6 6 5 4 4 3 2 1 1 1 1 1 1 1
5 3 2 0 1 2 4 6 8 9 10 12 12 13 14 14 14 13 12 12 12 11 11 10 10 10 9 6 5 5 6 7 7 7 8 7 6 5 4 4 3 2 1 1 1 0 1 1 1
4 3 1 1 2 3 5 6 8 10 11 12 12 13 14 14 14 13 13 13 12 12 11 11 11 10 10 6 4 4 5 6 7 8 8 8 7 6 5 4 3 2 2 2 1 1 0 1 1
3 2 1 1 2 4 6 8 10 11 12 13 13 14 13 13 13 13 13 13 13 12 13 12 12 12 10 7 4 4 4 5 6 7 8 8 8 7 5 5 4 3 3 2 1 1 1 0 1
4 4 2 1 2 5 7 10 12 12 13 14 13 14 14 13 14 14 13 14 13 13 13 13 12 12 11 8 4 3 4 5 6 8 8 8 9 8 7 6 5 5 4 3 2 2 1 1 1
7 6 4 2 1 4 7 11 13 13 14 14 14 15 14 15 15 15 14 14 14 14 13 13 13 12 10 7 4 3 4 6 7 8 8 9 9 9 8 7 6 6 5 4 3 2 2 1 1
9 8 6 3 3 5 7 12 13 13 14 14 15 16 16 16 15 15 14 14 14 14 13 13 13 12 9 6 4 2 3 6 7 8 9 10 10 10 9 7 7 6 6 5 4 3 3 2 2
13 11 7 4 4 7 10 13 13 13 13 14 15 17 16 16 16 15 14 14 13 13 12 12 12 10 8 5 3 3 3 5 7 8 10 10 10 10 10 9 8 8 7 6 5 4 4 3 2
14 12 9 7 7 9 11 12 12 13 13 14 15 16 17 16 15 14 14 13 13 12 12 12 11 9 7 5 2 2 3 5 7 8 10 10 10 10 10 10 10 10 9 8 6 6 5 4 3
14 12 11 12 12 13 13 12 13 12 13 14 15 15 16 16 16 14 13 12 12 12 12 11 10 8 7 5 3 2 3 4 6 8 10 11 10 11 11 11 10 11 10 9 8 7 6 5 5
15 13 13 15 16 16 16 15 13 12 13 14 14 14 15 16 15 13 12 11 11 12 11 10 9 7 6 6 4 3 4 4 5 8 9 10 11 12 12 11 11 11 11 10 9 9 8 7 6
16 15 15 16 17 17 17 18 15 14 14 14 13 13 15 15 14 12 11 11 11 11 10 9 8 7 7 6 5 4 4 4 5 7 9 10 10 12 13 13 12 12 12 11 11 10 9 9 8
18 17 17 17 16 15 14 17 16 15 15 14 14 13 15 15 15 13 11 10 10 10 10 9 8 7 7 6 6 5 4 4 5 7 9 10 11 12 13 13 13 13 13 13 12 11 11 10 10
20 19 19 18 15 11 12 15 14 14 15 15 14 13 15 15 14 14 12 11 9 9 9 8 7 8 7 6 6 5 5 5 6 7 9 11 12 13 13 14 14 14 14 14 14 13 12 12 12
20 20 19 18 15 14 14 14 12 11 13 14 14 13 14 15 14 13 12 11 9 9 9 8 7 7 7 6 5 5 5 6 6 7 8 11 12 13 13 14 14 14 15 15 15 15 15 14 14
21 20 19 19 18 18 17 15 13 12 12 12 13 12 12 13 13 12 11 10 9 9 8 8 8 7 7 6 5 5 4 5 6 7 8 10 12 13 13 14 14 15 16 16 17 16 16 17 17
20 19 21 21 20 20 19 17 14 13 14 14 14 12 12 13 12 11 11 10 9 9 8 8 8 7 7 7 7 6 5 5 6 6 7 9 11 13 13 14 14 15 16 16 17 17 17 17 18
21 21 22 22 22 22 21 18 17 15 16 15 14 13 13 13 12 11 10 9 9 9 8 8 8 7 7 8 7 7 6 6 6 6 7 8 9 10 12 13 15 16 16 16 17 18 19 19 19
22 21 21 23 22 23 24 21 19 18 17 16 16 15 14 12 12 12 10 10 9 9 9 9 9 8 8 8 8 7 7 6 6 6 7 8 10 11 12 13 14 14 16 17 18 19 20 20 20

GEFSSGP_500_meanwind_156.txt.gz
Wind_Speed
14 15 16 17 19 20 22 23 23 21 19 18 18 17 16 13 11 9 8 8 6 4 3 4 4 5 6 7 7 7 7 7 7 7 7 7 6 6 6 5 5 5 5 4 4 3 3 2 2
12 13 15 17 19 20 22 23 23 22 20 20 19 18 16 14 11 10 9 8 6 4 3 3 4 4 5 5 6 6 6 6 6 6 6 6 6 6 6 6 6 5 5 5 4 3 3 3 3
11 12 14 16 18 20 22 23 23 22 21 21 20 18 16 14 12 10 9 8 6 4 4 4 4 4 4 5 5 5 5 5 6 6 6 6 6 6 6 6 6 6 6 5 4 4 3 3 2
9 10 12 14 17 19 21 21 22 22 22 21 20 19 16 14 12 11 10 8 6 5 5 4 4 4 4 5 5 4 4 4 5 5 6 6 6 6 6 7 6 6 6 5 4 4 3 3 2
9 9 11 13 15 18 19 21 21 21 21 20 19 18 16 14 12 11 10 8 7 6 6 5 4 4 4 4 3 3 4 4 4 5 5 5 5 6 6 7 7 6 6 5 4 3 3 2 2
9 9 10 12 14 16 18 20 20 20 20 19 19 18 16 14 12 11 10 8 8 7 6 5 4 3 2 2 2 2 2 2 3 3 4 4 5 5 6 6 6 6 5 5 4 4 3 3 2
7 8 9 10 13 15 17 18 18 19 19 19 18 18 17 15 13 11 10 9 8 8 7 6 5 3 1 1 0 1 1 1 1 2 2 3 4 5 5 6 6 6 5 5 4 4 3 3 2
6 7 8 10 12 14 15 16 17 18 19 18 18 18 17 16 14 12 11 10 9 9 8 7 6 5 2 1 1 0 1 1 1 1 1 2 3 4 4 5 5 6 5 4 3 3 3 3 2
4 6 7 9 11 12 13 14 15 16 17 18 18 17 17 16 14 12 11 10 10 10 9 9 8 6 5 3 2 1 1 1 1 1 1 1 1 2 3 4 4 5 4 4 3 3 3 3 2
4 5 7 8 9 11 12 12 13 14 15 17 18 17 17 16 15 13 12 11 10 10 10 9 8 7 6 4 2 2 3 3 2 2 1 1 0 1 2 3 3 4 4 3 3 3 3 3 3
3 5 7 7 8 9 10 11 12 13 14 16 16 16 16 16 16 15 13 12 11 10 10 10 9 9 8 5 2 2 3 3 3 3 2 1 1 0 0 1 2 3 3 3 3 3 3 3 2
3 5 7 7 7 8 9 10 10 12 13 15 16 15 16 16 16 15 14 13 12 11 10 10 9 9 8 5 2 2 3 4 4 4 3 3 2 1 1 1 1 2 2 2 2 2 2 2 2
2 4 5 5 5 7 8 10 10 11 12 13 14 15 15 16 16 16 15 14 13 11 11 10 9 8 7 6 2 1 2 4 4 4 4 4 4 3 2 2 1 1 1 1 1 1 1 1 1
2 3 3 3 4 5 7 9 10 10 10 12 13 13 14 15 16 15 15 14 13 12 11 10 9 8 7 6 4 2 3 3 5 5 5 5 4 4 3 3 2 2 2 1 1 1 1 1 1
3 3 3 3 2 3 5 7 8 9 10 11 12 12 12 13 15 16 16 14 13 12 11 10 10 9 8 7 5 3 3 4 5 6 6 6 5 5 4 4 4 3 2 1 1 0 1 1 1
5 5 5 4 3 3 4 5 7 8 9 10 11 12 12 13 14 16 16 14 13 12 12 10 10 10 8 7 5 3 3 4 6 6 7 6 6 6 6 5 4 4 3 2 1 1 1 1 1
7 7 6 6 6 5 5 5 6 7 8 9 10 11 12 13 14 15 16 15 13 12 12 11 10 10 8 6 6 3 2 4 4 6 7 7 7 7 6 5 5 4 3 2 2 1 1 1 1
10 10 9 9 8 7 6 5 5 6 7 8 9 10 11 13 15 15 15 15 14 12 12 10 10 9 8 6 6 3 2 2 3 6 7 8 8 8 7 6 6 5 5 4 3 2 1 1 0
12 12 11 11 11 9 8 7 6 5 7 8 9 9 11 13 14 15 15 15 13 12 10 10 9 9 8 7 6 4 3 2 3 6 8 8 9 9 8 8 7 6 6 5 4 3 2 2 1
14 13 14 14 13 12 11 9 8 7 7 8 9 10 11 13 14 14 14 15 14 11 10 9 9 8 7 6 5 3 3 3 4 6 8 9 9 9 10 9 9 8 8 7 5 5 4 3 3
15 15 16 16 15 15 13 10 9 9 9 9 10 11 12 12 14 14 14 14 12 10 9 9 9 8 7 6 4 3 3 4 5 6 7 9 10 10 10 10 11 10 9 9 8 7 6 5 5
17 18 18 18 17 17 15 12 10 10 11 11 11 12 12 12 13 14 13 13 11 10 9 10 9 8 6 6 5 4 4 4 5 6 7 9 10 10 11 11 12 12 11 10 9 8 8 7 7
19 20 20 19 18 18 17 15 13 12 12 12 12 11 10 11 12 14 14 13 12 11 10 10 9 7 6 5 5 5 4 4 4 5 7 9 10 11 11 11 12 13 12 12 11 10 9 9 8
21 21 21 20 19 19 18 17 14 13 12 13 12 11 10 11 13 15 14 12 12 11 10 10 8 7 6 6 6 5 5 5 6 6 7 8 10 12 12 13 13 13 13 12 12 12 11 10 10
22 22 22 21 21 20 18 17 14 13 12 12 12 11 10 11 13 14 13 11 11 11 10 9 8 7 7 7 7 6 6 6 7 6 7 8 9 11 12 13 14 14 14 13 13 13 13 13 12
24 23 23 23 22 20 19 18 14 13 11 11 11 11 10 11 13 12 12 12 11 10 9 9 8 7 7 7 7 6 6 6 6 6 7 8 10 11 12 13 14 14 14 14 14 14 14 14 15
25 25 24 25 23 22 20 18 15 13 11 10 10 9 9 10 10 11 12 12 11 10 10 9 9 8 7 7 7 6 6 6 6 6 7 9 10 11 12 13 14 15 15 15 15 15 16 16 16
27 26 26 25 25 23 21 18 15 14 13 11 10 10 9 10 11 11 12 12 11 10 9 10 9 9 8 8 7 6 6 6 6 6 7 8 9 10 12 13 14 14 15 16 16 16 17 17 18
29 28 27 26 25 23 20 17 15 15 14 13 12 11 11 11 11 11 12 12 11 11 10 10 10 9 9 8 8 8 7 7 6 6 6 7 9 10 11 11 12 13 15 16 17 18 18 18 19
31 29 28 27 25 23 20 16 15 16 15 14 13 12 12 12 11 11 13 13 12 11 11 11 10 9 9 9 9 8 8 7 7 7 7 7 8 8 9 11 12 14 15 16 17 19 19 20 20

GEFSSGP_500_meanwind_162.txt.gz
Wind_Speed
18 17 17 17 20 16 16 17 17 17 16 16 16 15 14 12 11 10 9 8 6 6 5 5 4 5 5 6 7 8 8 9 9 9 9 9 9 8 8 8 7 6 5 5 5 4 4 4 4
17 16 16 18 17 15 16 17 17 17 17 16 16 15 14 13 11 10 9 8 7 6 5 4 3 4 5 5 6 7 8 8 8 9 9 8 8 8 7 7 6 6 5 5 5 4 4 4 4
16 15 16 16 14 14 15 17 17 18 17 17 17 16 15 13 12 10 9 9 8 6 5 4 3 3 4 5 6 6 7 8 8 8 8 8 7 7 7 6 6 6 5 5 5 4 4 4 4
15 15 16 15 13 14 16 16 16 18 18 18 18 17 16 14 12 10 9 9 7 6 5 3 3 4 4 5 5 6 7 8 8 8 8 8 7 7 7 7 6 6 6 5 5 5 5 4 4
15 16 15 13 13 14 15 16 17 18 19 19 19 18 17 15 13 12 10 9 8 6 5 4 3 3 4 4 5 6 6 7 8 7 7 7 7 7 7 7 6 6 6 5 5 5 5 4 4
15 15 12 11 12 14 15 15 17 18 18 18 18 17 17 16 14 13 12 11 9 7 5 4 3 3 3 4 4 5 6 6 7 7 7 7 7 7 7 6 6 6 6 6 6 5 5 5 4
14 13 11 11 12 13 14 14 16 17 17 18 18 17 17 16 14 13 13 12 10 9 7 5 3 2 2 3 4 5 6 6 6 6 6 6 6 6 6 5 5 5 6 6 6 5 5 5 5
12 12 10 10 11 12 13 14 15 16 17 17 18 18 17 17 15 13 12 12 11 10 8 6 5 3 1 2 3 4 5 5 5 6 6 5 5 5 5 5 5 5 5 5 5 5 5 4 4
12 11 9 9 10 11 12 13 14 15 16 16 17 17 17 16 15 13 11 11 10 9 8 7 6 5 3 2 2 4 5 5 5 6 6 5 5 5 5 4 4 5 5 5 5 5 5 4 4
11 9 9 9 10 10 11 12 13 14 15 15 15 15 15 16 16 14 12 10 10 9 8 7 6 5 3 1 2 4 5 5 5 5 5 5 4 4 4 4 4 4 4 5 5 5 5 4 4
9 9 9 9 9 10 10 11 11 13 13 14 14 14 15 15 16 15 12 11 10 9 8 7 6 4 3 1 1 3 4 5 5 5 5 4 4 4 4 4 4 4 4 4 4 5 4 4 3
7 7 8 9 9 9 9 9 10 10 11 11 12 13 14 15 15 15 13 12 11 10 9 7 6 5 4 1 0 2 3 4 5 5 4 4 4 4 4 4 4 3 3 4 4 4 4 3 3
6 6 6 7 7 8 8 8 8 9 9 10 11 12 12 14 14 14 13 12 11 11 10 9 7 6 5 2 0 2 3 3 5 5 4 4 4 4 4 4 4 3 3 3 3 3 3 3 3
4 4 4 4 5 6 7 7 7 7 8 9 10 11 12 13 14 14 14 13 12 11 10 9 8 8 7 4 1 2 3 4 5 6 5 5 5 5 5 4 4 3 3 2 2 2 2 2 2
3 2 2 2 3 4 6 6 5 6 7 8 9 10 11 12 13 13 13 13 13 12 11 10 9 8 7 5 2 2 2 3 5 6 6 6 6 6 6 5 5 4 3 2 2 2 2 2 2
2 1 0 1 2 3 4 2 3 5 6 7 8 9 10 11 12 13 13 13 13 13 12 11 10 9 7 6 3 1 2 3 4 5 6 6 6 6 6 6 5 4 3 3 2 2 2 2 2
3 3 2 2 1 2 2 1 3 4 5 7 8 9 9 11 12 13 13 13 13 13 12 11 10 9 7 5 4 2 2 3 3 5 6 7 7 6 7 7 6 6 5 4 3 3 2 2 2
6 5 4 3 1 2 2 3 4 4 5 6 8 9 10 11 12 12 12 13 13 13 12 10 9 9 7 6 5 3 2 3 3 4 5 7 7 7 7 7 7 6 5 4 4 3 3 3 3
8 6 5 5 3 3 3 4 5 5 5 6 8 9 10 11 12 12 12 12 12 12 11 9 8 8 8 6 5 4 3 3 3 4 6 7 8 8 8 8 8 7 6 5 5 4 4 3 3
9 8 7 6 4 4 4 5 6 6 6 6 8 10 11 11 11 12 12 12 12 11 10 9 8 8 8 6 5 4 4 3 3 4 5 6 7 7 8 8 8 8 8 7 6 5 4 4 4
11 10 9 7 6 5 5 7 7 7 7 7 9 10 11 11 11 13 12 12 12 10 9 9 9 9 7 6 5 4 4 4 5 5 6 6 7 8 8 8 8 8 9 8 8 7 6 6 5
14 12 11 9 8 8 5 6 10 8 9 9 10 10 10 10 11 12 12 13 11 10 10 9 9 9 8 7 6 6 5 6 5 6 7 7 6 7 8 9 9 8 9 9 9 8 7 7 7
16 14 12 11 10 9 8 6 10 10 10 10 10 10 9 10 11 12 12 13 11 10 9 8 8 8 7 7 7 6 6 6 6 7 8 8 8 8 9 10 10 10 10 10 10 10 9 9 8
17 15 14 13 12 11 10 8 9 11 11 11 11 10 10 10 11 11 11 12 11 10 9 8 8 7 7 7 7 7 6 6 7 7 7 8 8 9 9 10 11 11 11 12 12 12 11 11 10
19 17 15 14 13 13 12 10 11 12 11 11 11 10 10 10 9 10 11 11 10 9 9 8 8 7 6 7 6 6 5 5 6 6 7 7 7 8 10 10 11 11 12 12 13 13 13 12 12
20 19 16 14 12 13 14 12 12 12 11 11 10 9 9 9 10 10 10 11 10 9 9 8 8 7 6 6 6 6 5 6 6 6 6 7 7 9 9 9 10 11 12 13 14 14 14 14 14
23 21 19 17 16 14 15 14 13 12 11 11 9 9 9 9 10 10 10 10 10 9 9 9 9 7 7 6 6 6 5 5 6 6 6 6 8 9 10 10 10 11 12 14 15 15 15 16 15
25 23 22 19 17 15 15 14 13 13 12 11 10 10 10 10 10 11 10 10 10 10 10 10 9 8 8 7 7 6 5 5 6 6 6 7 8 9 10 11 12 12 13 14 14 16 17 17 18
25 24 23 21 20 16 13 14 14 13 12 11 11 11 11 12 12 12 11 11 11 11 10 10 10 9 9 8 7 7 6 6 7 7 8 8 8 9 10 11 12 13 13 14 14 16 17 18 19
27 25 24 23 21 19 15 15 15 13 12 12 12 13 13 12 13 13 12 12 12 11 11 10 10 10 10 9 9 8 8 8 7 7 8 9 9 10 10 10 11 13 13 14 15 16 18 19 20

GEFSSGP_500_meanwind_168.txt.gz
Wind_Speed
20 20 20 21 21 13 11 10 9 9 9 8 7 7 7 6 6 6 6 6 6 5 4 3 2 2 1 0 1 1 2 2 2 3 4 4 4 4 4 4 4 4 4 4 4 4 4 4 5
20 19 22 24 16 11 12 12 11 11 9 8 8 7 8 7 7 6 6 6 6 5 4 4 3 2 1 1 1 1 1 2 2 2 3 3 3 3 3 4 4 4 4 4 4 4 5 5 5
20 19 24 20 11 12 12 12 13 12 11 10 9 9 8 8 8 6 6 6 6 5 5 4 3 3 1 1 1 1 2 2 2 2 2 2 3 3 3 3 3 4 4 4 4 4 5 5 4
19 22 22 14 11 12 12 12 12 12 11 10 10 10 10 9 8 7 7 6 6 6 5 4 3 2 2 1 1 1 1 2 2 2 1 2 2 2 3 3 3 4 4 4 4 4 5 5 4
19 21 18 11 11 12 12 12 12 12 11 11 11 12 11 11 10 8 8 7 6 6 6 4 3 2 2 1 1 1 2 2 2 1 1 2 2 2 2 3 3 4 4 4 4 4 4 4 4
21 20 15 10 11 12 12 11 10 12 12 12 12 13 12 12 11 10 9 8 8 8 7 6 4 2 2 2 2 2 2 2 2 1 1 1 1 1 2 2 2 3 3 4 4 4 4 5 4
21 17 10 8 9 10 10 10 10 12 12 12 13 13 13 13 12 12 11 10 9 9 8 7 6 3 3 2 2 3 3 2 2 2 1 1 0 1 1 2 2 2 3 3 4 4 4 4 4
17 13 9 8 8 8 9 9 10 11 13 13 13 14 14 14 13 12 12 11 10 10 9 7 6 4 3 3 3 3 3 3 3 2 1 1 0 1 1 2 2 2 3 3 3 4 4 4 4
12 12 8 7 7 7 8 8 9 9 12 14 14 14 15 14 13 13 12 12 11 11 10 9 7 5 4 3 3 3 3 3 3 3 2 2 1 1 2 2 2 2 3 3 3 3 3 3 3
10 9 4 3 5 6 8 8 10 11 11 13 14 14 15 15 14 14 14 13 12 12 11 11 9 8 5 4 2 2 3 3 3 3 3 2 2 1 2 2 3 3 3 3 3 3 3 3 2
7 5 3 3 4 6 7 9 10 12 14 14 14 14 15 15 14 14 14 14 14 13 12 11 10 9 7 5 3 2 2 3 4 3 3 3 2 2 2 2 2 3 3 3 3 3 2 2 2
5 2 3 3 5 5 5 7 7 9 11 13 13 13 14 15 15 15 15 15 15 14 13 12 11 10 8 6 4 3 2 3 4 3 3 3 3 1 1 2 2 2 2 2 2 2 2 2 2
3 2 3 4 5 4 5 5 6 8 10 12 13 13 14 15 15 15 15 15 15 14 14 13 11 10 9 6 5 4 3 2 3 3 3 3 3 2 2 2 3 3 2 2 2 2 2 2 1
4 3 3 3 3 3 5 5 8 9 10 12 13 14 14 15 15 16 16 16 15 15 14 13 12 11 10 8 6 4 3 3 3 4 4 4 4 3 2 2 3 3 2 2 2 1 2 2 1
5 4 3 4 4 4 2 2 6 9 9 12 14 14 15 16 16 16 16 16 15 15 15 14 12 11 10 8 6 5 3 2 2 3 4 5 5 5 4 4 3 3 3 2 2 2 2 2 2
4 3 1 4 5 5 5 3 6 9 10 11 14 15 15 16 16 16 16 16 16 16 16 14 13 11 10 8 7 5 4 3 2 3 3 5 5 5 5 5 4 4 3 3 3 2 2 2 2
4 2 1 5 6 4 5 8 9 9 9 11 13 14 15 16 17 16 16 16 16 17 16 14 13 12 10 9 8 5 4 4 4 3 4 4 5 6 5 5 5 4 4 3 2 2 2 2 2
2 3 5 6 8 3 3 7 9 10 9 11 12 13 15 16 16 16 16 17 17 17 16 15 13 13 12 10 8 6 5 5 4 3 3 4 5 6 6 6 6 5 4 4 3 3 3 3 2
8 8 7 7 9 4 4 6 8 10 10 11 12 14 15 16 16 16 17 17 17 17 16 14 13 14 13 11 10 8 6 6 5 4 4 4 5 6 7 6 7 6 5 4 4 5 4 4 4
11 8 5 8 9 5 4 6 8 10 11 12 13 13 14 15 15 16 16 17 18 18 17 15 14 13 12 12 11 9 8 6 5 5 4 4 5 5 6 7 7 6 6 6 5 6 6 5 5
10 8 7 9 9 5 5 7 10 12 13 13 13 13 13 14 15 16 16 17 18 18 17 15 14 13 12 11 11 10 8 7 6 6 5 6 6 6 6 6 6 6 6 6 7 7 7 6 6
9 10 11 10 7 5 6 11 13 13 12 13 14 14 14 14 15 15 16 17 18 18 17 15 14 13 12 11 11 10 9 8 7 6 7 7 7 7 7 7 7 7 7 7 7 7 7 7 7
12 12 11 9 8 7 6 10 13 13 10 11 13 14 15 15 15 15 15 17 17 17 16 15 15 13 12 12 11 10 9 9 8 7 7 7 7 7 7 7 7 8 8 8 8 8 9 9 9
14 12 9 7 7 8 7 9 12 13 11 12 14 15 15 14 14 14 15 17 17 17 15 15 15 14 13 12 11 10 9 8 8 7 6 7 7 7 7 8 8 8 9 9 9 10 10 11 11
15 12 9 7 8 8 8 9 13 15 15 15 15 15 15 14 14 13 14 16 17 17 15 14 14 13 13 13 11 11 10 9 8 7 6 7 6 6 7 7 8 7 8 9 10 11 12 12 12
15 13 11 8 8 8 8 10 13 15 16 16 15 14 13 13 13 13 14 15 16 16 15 15 14 13 13 13 12 11 10 9 9 8 7 7 6 7 7 7 8 9 10 10 11 12 13 14 14
16 15 13 12 13 13 13 10 14 17 16 15 13 13 13 12 13 13 13 14 15 15 16 16 15 14 14 13 12 11 11 10 9 8 8 7 7 7 8 9 9 10 12 12 12 13 13 14 16
19 16 15 17 16 14 13 12 14 15 15 15 14 13 12 12 13 13 13 13 14 16 16 16 15 14 14 13 12 12 11 11 10 10 10 9 8 8 10 10 11 11 12 13 13 14 14 15 15
21 20 19 18 17 14 14 15 14 15 15 15 15 14 13 13 13 14 14 14 15 16 16 15 15 15 15 14 13 12 12 12 11 10 10 10 10 10 10 10 11 12 12 13 14 14 15 16 16
21 20 20 21 20 18 15 16 15 14 14 14 15 15 14 14 13 15 15 15 15 16 17 16 16 16 16 15 14 14 13 13 13 12 12 11 11 11 12 12 12 12 13 14 15 16 16 17 17

GEFSSGP_500_meanwind_174.txt.gz
Wind_Speed
18 19 19 19 19 19 20 21 19 16 14 14 13 12 12 11 10 9 8 6 8 8 7 6 5 5 5 4 4 4 3 3 3 3 3 2 1 1 2 2 1 2 3 3 3 4 4 4 5
18 18 19 21 20 20 21 21 19 17 16 15 13 12 11 10 9 8 8 8 9 8 7 6 6 5 5 4 4 3 3 3 3 3 3 2 2 2 2 2 2 2 2 2 3 3 4 4 5
18 18 19 21 21 21 21 21 20 19 18 16 14 13 11 10 10 9 9 9 9 9 7 7 6 5 4 4 3 3 2 2 2 3 3 2 2 2 2 2 1 2 2 2 3 3 3 4 4
16 18 20 21 21 22 21 21 21 19 17 16 16 14 12 11 11 10 10 10 10 9 8 7 5 5 4 4 3 2 2 2 2 2 3 3 3 2 1 1 1 1 2 2 3 3 3 4 4
15 18 20 20 21 22 21 21 20 19 18 18 17 15 14 13 12 11 11 11 10 10 9 7 6 5 4 4 3 2 2 2 2 2 3 3 3 2 1 1 1 1 2 2 2 3 4 4 4
17 18 19 19 20 21 21 20 19 19 19 19 18 17 16 15 13 12 12 11 11 10 9 8 6 5 4 3 2 2 2 2 2 2 2 3 2 1 1 1 1 1 2 2 2 3 4 4 4
18 19 18 18 19 19 20 20 18 19 19 19 19 18 18 17 15 13 13 12 11 10 10 9 7 6 4 3 2 2 1 1 1 1 2 2 2 1 1 1 1 1 1 1 2 2 3 4 4
16 17 16 17 16 18 19 19 19 19 19 19 19 18 18 18 16 14 13 12 11 11 11 10 9 7 5 4 3 2 1 0 1 1 1 2 2 1 1 1 1 1 1 1 2 2 3 3 3
15 15 14 14 13 16 17 18 18 19 19 20 19 18 18 17 16 15 14 13 13 12 12 10 9 8 6 5 4 3 1 1 1 1 1 1 1 1 1 1 1 1 1 1 2 2 3 3 3
14 13 11 12 12 14 15 17 18 19 19 20 19 19 18 17 16 16 15 15 14 14 13 11 10 9 7 6 4 3 2 1 1 1 1 1 1 1 0 1 1 1 1 2 2 2 2 2 2
11 9 9 9 10 13 14 16 18 19 20 19 19 19 19 18 17 17 17 16 16 15 13 12 10 8 7 6 5 4 3 2 1 1 1 1 0 0 0 1 1 1 1 1 1 1 1 1 2
9 7 8 9 9 11 13 15 16 18 19 19 18 19 18 19 19 18 17 17 16 16 15 13 11 9 8 7 6 4 4 2 1 1 1 1 1 1 1 2 2 2 1 1 1 0 1 1 1
8 8 9 10 10 10 12 14 16 16 18 19 19 19 18 18 19 19 18 17 17 16 15 14 12 10 8 7 6 4 3 2 1 1 2 2 2 2 2 2 2 2 1 1 1 1 1 0 0
10 8 9 10 10 10 12 14 15 16 17 18 18 18 18 18 18 18 18 18 18 17 16 15 13 11 9 8 6 5 4 2 1 2 1 2 2 2 2 2 2 2 1 1 1 1 1 1 1
9 8 8 8 8 10 11 12 14 15 16 17 17 17 17 17 18 18 18 18 18 18 17 15 13 13 11 9 6 5 5 3 1 1 1 1 2 2 3 2 3 2 2 2 1 1 1 1 2
10 7 6 6 6 8 10 11 13 14 15 16 16 17 17 18 18 18 18 18 18 18 17 16 15 14 13 10 8 7 5 3 2 1 0 0 1 2 2 3 3 3 3 2 2 2 1 2 2
10 7 5 2 4 7 10 11 11 13 15 15 16 16 17 18 18 18 18 18 17 17 17 17 16 14 13 11 9 8 6 4 3 1 1 0 1 1 2 2 3 3 3 3 3 3 3 2 2
10 7 4 1 3 7 9 9 10 12 13 14 16 16 17 18 18 18 18 17 17 16 17 17 16 14 13 11 10 9 7 5 3 2 1 1 1 2 2 3 3 3 3 3 3 3 4 3 3
9 7 4 1 5 7 8 8 9 10 12 14 15 16 16 17 17 17 17 17 17 17 16 17 16 14 13 12 11 10 8 6 4 3 1 1 2 2 3 3 4 3 3 4 4 4 5 4 4
10 8 6 4 3 3 5 7 9 12 12 13 15 15 16 16 16 16 17 17 17 17 17 16 16 14 13 12 11 10 9 8 5 4 2 2 2 2 3 3 4 4 4 4 4 4 5 6 6
12 11 9 7 5 3 4 6 9 12 12 13 14 14 15 16 16 16 16 16 17 17 17 16 15 15 13 11 11 9 9 8 7 6 4 3 3 3 3 4 4 4 4 5 5 5 5 5 6
14 14 13 10 8 6 7 7 9 11 12 12 12 13 15 15 15 15 15 15 16 16 16 15 14 14 14 12 10 9 8 8 8 8 5 4 3 4 4 4 5 5 5 6 6 6 6 6 6
15 16 15 13 11 10 10 10 9 10 11 11 13 14 16 15 15 15 15 14 15 15 15 15 15 14 13 13 11 9 9 8 8 7 6 4 3 3 3 4 5 6 6 6 7 8 7 8 9
16 16 14 13 11 9 9 11 11 10 10 12 14 15 15 15 14 14 14 14 14 14 14 14 14 14 13 12 11 10 9 9 8 8 7 5 4 3 3 3 5 6 6 6 6 7 8 9 10
17 16 14 13 11 9 8 11 12 11 11 12 14 14 15 13 13 13 14 14 14 14 14 14 14 14 13 12 12 11 10 10 9 8 7 6 4 4 4 4 5 6 6 7 7 8 8 9 10
17 16 16 14 12 10 9 10 11 10 10 11 12 13 14 12 11 11 12 12 13 14 13 14 13 13 13 12 12 11 10 10 9 8 7 7 6 5 4 4 6 7 7 7 8 9 10 11 11
18 17 16 15 14 12 9 10 10 10 11 11 11 12 12 12 12 10 11 12 12 13 13 13 13 12 12 12 12 11 10 10 10 9 8 7 6 5 5 5 6 7 8 8 9 10 10 11 12
19 18 18 17 16 14 12 11 11 13 12 12 11 11 11 12 13 11 11 11 13 13 13 13 13 12 12 12 12 11 11 10 10 10 9 9 8 6 6 6 6 7 8 8 9 10 10 11 12
20 20 19 18 18 17 15 13 11 12 13 13 12 12 11 12 14 13 12 12 13 12 13 13 13 12 12 13 12 12 11 11 11 11 10 9 8 7 7 7 8 8 9 9 10 11 12 13 14
19 20 20 19 18 19 19 16 13 13 13 13 14 14 12 12 13 13 13 14 13 12 12 12 12 12 12 13 13 13 12 11 11 11 11 10 9 9 9 9 9 10 11 11 11 12 12 14 14

GEFSSGP_500_meanwind_180.txt.gz
Wind_Speed
20 20 20 21 21 20 21 22 21 19 17 17 16 16 15 13 11 11 10 9 8 7 6 6 7 7 7 7 8 8 8 8 8 8 7 7 6 6 5 5 4 4 4 4 4 4 4 4 5
21 20 20 21 22 22 23 24 22 19 18 18 17 16 15 13 12 11 10 9 7 6 6 7 7 7 7 7 7 7 7 7 7 7 7 7 6 6 5 5 5 4 4 4 3 3 4 4 4
20 20 21 21 22 24 24 24 23 21 20 19 18 17 15 13 11 11 11 9 7 6 7 7 7 7 7 7 7 7 7 7 7 7 7 6 6 6 5 5 5 5 4 4 3 3 3 3 3
19 20 20 21 22 24 25 25 24 22 21 20 19 17 15 13 12 12 11 9 8 7 7 8 8 7 7 7 6 6 6 6 6 6 6 7 6 6 6 5 5 5 4 4 4 4 4 4 3
19 20 21 21 22 24 26 25 25 23 20 20 19 18 16 14 13 13 12 10 9 9 8 8 8 8 7 6 6 6 6 5 5 6 6 6 6 6 5 5 5 4 4 4 4 4 4 4 4
18 20 21 22 22 23 25 25 25 23 21 20 20 18 16 15 14 13 12 11 10 10 10 9 9 8 7 6 6 5 5 4 4 5 5 6 6 6 5 5 5 5 4 4 4 4 5 4 4
18 19 20 21 22 23 25 25 25 23 21 21 20 19 17 15 14 14 13 12 11 11 11 10 9 8 7 6 5 5 4 4 4 4 4 5 5 5 5 4 5 4 4 4 4 4 4 4 4
16 18 19 21 21 23 24 25 24 22 21 21 21 21 19 17 15 14 13 13 12 12 11 10 9 8 7 6 5 5 4 4 3 3 3 4 4 4 4 4 4 4 4 4 4 4 4 4 4
15 17 19 20 21 22 24 25 23 22 21 21 22 21 20 18 16 15 14 14 13 12 11 11 9 8 7 7 6 5 4 4 3 3 3 4 4 4 4 4 4 4 4 4 3 3 3 3 3
14 16 18 19 21 22 23 24 24 23 22 22 22 22 20 19 17 16 16 15 14 13 12 11 9 8 8 7 6 5 4 4 3 3 3 3 3 4 4 4 3 3 3 3 3 3 2 2 3
13 15 17 18 20 21 22 23 23 23 23 22 22 22 21 20 18 17 17 16 15 14 12 11 9 8 7 6 6 5 4 3 3 2 2 2 2 2 3 3 2 2 2 2 2 2 2 2 2
11 14 15 17 19 20 21 22 23 23 22 22 22 21 21 20 19 19 18 17 16 15 13 12 11 9 7 6 6 5 4 3 2 1 1 1 1 1 2 2 2 2 2 2 2 1 1 1 1
10 12 14 15 17 20 20 21 21 22 21 21 21 21 21 20 20 20 19 18 17 16 15 13 11 10 7 6 5 5 4 3 2 1 1 1 1 1 1 1 1 2 1 1 1 1 0 1 1
9 11 13 15 16 18 19 20 20 20 20 20 21 21 21 20 20 19 19 18 17 16 15 14 12 11 8 7 5 5 5 4 2 1 1 1 2 1 1 1 2 2 1 1 1 1 1 1 1
8 10 12 14 15 16 17 18 19 19 19 19 20 21 21 20 20 19 19 18 18 17 16 15 14 12 10 8 7 6 5 5 4 1 1 2 2 2 1 2 2 2 2 2 1 1 1 1 1
7 8 10 12 13 14 14 15 16 16 17 18 19 20 21 20 20 19 19 19 18 18 16 15 14 13 12 10 8 7 6 5 5 3 1 1 2 2 2 2 2 3 3 3 2 2 1 1 2
7 6 7 9 10 11 11 12 13 14 15 16 17 18 19 19 19 19 19 19 18 17 16 15 14 13 12 11 9 7 7 5 4 3 1 0 1 2 3 3 3 3 3 4 3 3 3 3 2
7 6 5 5 6 8 9 10 11 12 13 14 16 17 17 18 18 18 18 18 18 17 16 15 14 13 12 11 11 9 7 6 4 3 2 1 1 2 3 4 4 4 4 4 4 4 4 4 4
7 6 4 2 2 3 5 7 8 10 11 13 14 15 16 17 17 17 17 18 17 17 16 16 14 13 12 11 10 10 9 7 5 4 3 2 2 2 3 3 4 4 4 4 4 5 5 5 5
9 7 5 3 1 2 3 5 6 8 9 10 12 13 14 15 15 16 16 16 17 16 16 16 15 14 12 10 9 9 9 7 7 5 4 3 2 2 3 4 4 4 4 5 5 5 6 6 6
11 9 6 5 4 3 3 3 5 7 8 9 11 12 13 14 14 14 14 15 16 15 15 15 15 14 13 11 10 9 8 7 6 5 5 4 3 3 3 4 4 5 5 5 5 6 6 7 7
14 11 9 7 7 6 5 4 4 6 7 8 10 11 12 13 13 13 14 14 15 15 14 15 14 13 12 11 10 9 8 7 6 5 5 5 4 4 4 4 5 5 5 6 6 6 7 7 8
16 14 12 11 10 9 7 7 5 6 7 7 9 11 11 14 13 13 14 14 14 14 14 14 13 13 12 12 10 9 8 8 7 6 6 5 4 3 4 4 4 5 6 6 6 6 7 8 9
18 16 14 14 12 11 9 8 7 6 7 7 9 11 12 14 12 12 13 14 14 13 13 13 13 13 12 11 11 10 9 8 7 7 6 5 4 4 5 4 5 5 6 6 7 7 8 9 9
20 17 16 15 14 13 11 10 7 7 6 7 9 11 13 13 12 11 13 13 13 13 13 12 12 12 12 12 11 10 9 8 8 7 7 6 5 5 5 5 6 6 7 7 8 8 9 10 11
21 19 18 17 15 14 14 12 9 8 7 7 9 11 11 12 11 11 12 12 13 12 13 13 12 12 12 11 11 10 10 9 8 8 8 8 7 6 6 7 7 8 8 8 9 10 11 12 12
23 22 20 18 17 17 16 13 11 8 7 7 9 10 10 12 12 12 12 12 13 13 12 13 13 12 12 11 11 10 10 9 8 8 9 9 9 8 7 7 7 8 8 9 10 11 12 13 13
24 23 21 20 19 18 17 15 12 10 8 9 9 9 10 12 12 12 12 12 12 12 14 13 13 12 11 11 11 10 10 10 10 9 9 10 9 8 8 8 8 8 9 10 11 12 12 13 14
25 24 22 21 21 19 18 15 13 12 11 9 9 9 10 11 12 12 13 13 13 13 14 13 12 12 12 12 12 12 11 11 11 11 11 11 10 10 9 9 9 10 11 11 12 13 13 14 15
26 24 23 22 21 20 18 15 14 13 12 10 10 10 11 12 12 12 13 13 14 14 14 13 12 13 13 13 13 12 12 12 12 12 12 12 12 11 11 10 10 11 12 13 13 14 15 15 16

GEFSSGP_500_meanwind_186.txt.gz
Wind_Speed
19 19 18 18 20 17 17 18 18 18 17 16 15 14 14 12 11 10 9 9 8 7 6 6 6 6 7 8 9 9 9 9 9 9 9 9 8 8 8 7 7 7 7 7 6 6 6 6 6
19 19 19 20 19 18 18 19 18 18 18 17 16 16 14 13 12 11 10 9 8 7 6 6 6 6 6 7 8 8 9 9 9 9 9 8 8 7 7 7 7 7 7 7 7 6 6 6 6
19 18 20 19 19 19 19 19 19 19 18 18 17 16 15 13 13 12 11 10 8 7 5 5 5 5 6 6 7 8 8 8 8 8 8 8 8 8 7 7 7 7 7 7 7 6 6 6 6
18 19 20 18 19 20 20 20 20 20 19 18 18 16 15 14 13 12 11 10 9 7 5 5 5 5 5 6 6 7 7 7 7 8 8 8 8 8 7 7 7 6 6 7 7 6 5 5 5
18 21 18 19 20 20 21 21 21 21 20 19 18 17 16 15 13 13 12 11 9 7 5 4 4 4 4 5 6 6 6 7 7 7 7 7 8 8 7 7 7 6 7 7 7 6 6 5 5
19 19 17 18 20 20 21 21 22 22 21 20 19 18 17 16 14 13 12 11 9 7 5 4 4 4 4 5 5 5 6 6 7 7 7 7 7 8 7 7 7 7 7 6 6 6 6 5 5
18 17 17 18 20 21 20 21 22 22 22 21 20 19 18 16 15 13 12 10 9 8 6 5 5 4 4 4 4 5 5 6 6 7 7 7 7 7 7 7 7 7 6 6 6 6 6 6 5
17 16 16 17 20 20 20 21 22 23 22 21 20 20 18 17 15 13 12 10 9 8 7 7 6 5 5 5 5 5 5 6 6 6 6 6 7 7 7 7 7 7 6 6 6 5 5 5 5
17 15 14 17 19 20 20 22 22 23 23 22 21 20 19 17 15 14 13 11 10 9 8 7 6 6 6 5 5 5 5 5 5 6 6 6 6 6 6 6 6 6 6 6 5 5 5 5 5
17 14 15 18 19 20 21 22 22 23 23 22 22 21 19 18 16 15 14 12 10 9 8 7 7 7 6 6 5 5 5 5 5 5 5 5 6 6 6 6 6 6 6 5 5 5 5 4 4
15 14 16 18 19 20 21 22 22 22 22 22 21 20 19 18 17 16 15 14 11 10 9 8 7 7 6 5 5 4 4 4 4 4 5 5 5 5 5 5 5 5 5 4 4 4 4 3 3
13 13 15 16 17 19 20 21 21 21 21 21 21 21 20 18 17 17 16 14 13 12 11 9 7 6 5 5 4 4 4 3 3 3 4 4 5 4 4 4 4 4 3 3 3 3 3 3 3
11 12 13 15 16 17 18 19 20 20 20 20 20 20 20 19 18 17 16 14 13 13 12 10 8 6 5 5 4 4 4 3 3 3 4 4 4 4 4 4 3 2 2 2 2 3 2 2 2
11 11 12 13 15 15 17 18 18 19 19 19 20 20 19 19 18 18 17 15 14 13 12 11 9 7 6 6 4 4 4 4 3 3 3 4 4 4 4 4 4 3 2 2 2 3 2 2 1
10 11 11 12 13 13 15 16 16 17 18 18 18 19 18 18 18 17 17 16 15 14 13 12 11 9 7 6 5 5 4 4 3 2 2 3 3 4 4 4 4 3 3 2 3 3 3 2 2
10 9 7 8 10 11 13 12 13 14 16 17 17 17 17 17 17 16 16 17 16 15 13 13 12 10 9 7 6 5 3 3 2 2 2 2 2 3 3 4 3 3 3 3 4 4 3 3 3
8 7 6 6 8 8 9 9 10 12 13 15 16 16 16 16 17 16 16 16 16 15 14 13 12 11 10 8 7 6 4 3 2 2 2 2 2 2 3 3 3 3 3 4 4 4 4 4 4
8 7 6 5 5 6 7 7 8 10 11 13 14 15 16 16 16 16 16 16 16 16 15 14 13 13 12 10 9 8 5 4 3 2 1 1 2 2 3 3 3 4 4 4 4 4 5 5 5
9 8 6 5 4 4 5 6 7 8 9 11 13 14 15 16 15 15 16 16 15 15 15 14 13 13 12 11 10 8 7 5 4 3 2 2 1 2 3 4 4 4 4 5 5 5 5 5 6
9 7 5 4 3 3 3 4 5 7 8 10 12 13 13 14 15 15 15 15 15 15 15 14 13 13 12 11 10 9 7 6 5 4 3 2 1 2 3 4 5 5 5 5 6 6 6 6 7
10 8 6 4 2 1 2 3 4 6 7 9 10 11 12 13 14 14 14 14 14 15 14 13 13 12 12 11 10 9 7 6 5 5 4 3 3 3 3 4 4 5 5 5 6 7 7 7 7
11 9 7 5 2 2 1 2 6 5 6 8 9 10 12 12 13 12 13 13 14 14 14 13 13 12 12 11 10 9 8 7 6 6 5 4 4 3 3 3 4 4 5 6 6 7 7 8 8
13 11 9 7 5 3 2 1 6 6 6 7 8 9 11 12 12 11 12 12 12 13 13 13 13 13 12 11 10 9 8 8 7 6 5 5 5 4 4 5 5 5 5 6 6 7 7 8 8
15 12 10 8 6 6 5 2 5 6 6 7 7 8 10 11 11 10 11 12 13 13 13 13 13 13 12 11 10 9 9 8 8 7 7 6 6 6 6 6 6 6 6 6 7 7 7 8 9
17 14 10 9 8 8 6 4 5 6 6 6 6 8 9 9 10 10 11 12 12 13 13 13 13 13 12 11 11 10 9 9 8 8 8 8 7 8 7 6 6 7 8 8 8 7 8 9 10
19 16 13 10 9 9 8 6 6 5 6 6 6 7 8 9 10 10 11 12 12 12 12 12 12 12 12 11 11 10 10 9 9 9 9 9 9 8 8 7 7 8 8 8 8 9 10 10 11
22 19 16 13 12 9 9 8 7 7 6 6 7 7 7 9 10 10 11 11 12 11 12 12 12 12 11 11 11 11 10 9 9 9 9 10 10 9 9 9 8 8 8 9 10 11 11 12 12
24 21 19 16 14 11 11 9 8 8 7 7 8 8 9 10 11 10 10 10 11 12 11 12 12 12 12 11 11 11 10 9 10 10 10 10 10 10 10 9 9 8 9 11 11 12 12 12 13
26 24 22 18 16 12 10 10 11 10 9 8 9 9 10 11 11 10 11 11 11 11 11 11 12 12 11 11 12 11 11 10 11 11 11 11 11 11 10 10 10 10 10 11 12 13 13 14 14
26 25 23 21 19 16 13 12 13 12 11 10 10 10 11 11 10 10 10 10 11 10 10 12 12 12 12 12 13 13 12 11 11 12 11 12 12 11 11 11 11 11 11 12 13 13 13 14 15

GEFSSGP_500_meanwind_192.txt.gz
Wind_Speed
20 20 20 21 20 11 11 10 10 10 9 9 8 8 8 7 7 6 5 5 5 5 5 5 4 4 3 3 3 3 3 3 3 4 4 5 5 5 5 6 6 6 6 6 7 7 8 8 7
20 19 22 21 12 11 12 12 11 11 10 10 9 9 9 8 8 7 6 6 6 5 5 5 4 4 3 3 2 2 3 3 3 3 4 4 5 5 5 5 5 6 6 6 7 7 7 7 6
20 21 23 13 9 11 11 12 12 11 11 11 11 10 10 10 10 9 8 7 6 6 5 5 4 4 3 2 2 2 2 2 3 3 3 4 4 5 4 5 5 5 6 6 7 6 6 6 6
20 25 18 10 11 12 12 12 13 12 12 12 12 11 11 11 11 10 10 9 8 7 6 5 4 4 2 2 1 1 1 2 2 2 3 3 3 4 4 4 4 4 5 6 6 6 5 5 5
24 21 14 11 12 13 13 13 12 12 12 13 12 13 13 12 11 11 10 10 9 8 7 6 5 4 3 2 2 1 1 1 2 2 2 3 3 4 4 4 4 4 5 5 6 5 5 5 5
23 15 11 10 11 12 13 13 13 13 13 13 13 13 13 13 12 11 11 10 10 9 8 7 6 5 4 3 2 1 1 1 1 1 2 2 3 3 4 4 4 5 5 5 5 5 5 5 5
16 11 9 9 10 11 13 13 14 14 14 15 15 14 14 13 13 12 12 11 11 10 9 8 7 6 4 3 2 2 1 1 1 1 1 2 3 3 3 4 5 5 5 5 6 5 5 5 5
12 11 8 8 10 11 12 13 15 16 16 16 16 16 15 15 14 14 13 12 11 11 10 8 8 7 5 4 3 2 1 0 0 1 1 1 1 2 2 4 4 5 5 5 5 5 5 4 4
10 11 8 8 9 10 12 14 15 16 17 17 16 16 16 16 16 15 14 14 12 12 10 8 8 7 6 5 4 2 1 1 0 1 1 1 1 2 3 4 4 4 4 4 4 4 4 4 4
8 9 7 7 8 11 13 14 16 17 17 17 17 17 17 17 17 17 16 15 14 13 11 9 8 7 6 5 4 3 2 1 0 1 1 1 1 2 3 3 3 3 3 3 3 3 3 3 3
6 7 6 7 9 11 13 14 15 17 17 18 18 18 18 18 18 18 17 16 15 14 13 10 8 8 7 7 6 4 3 1 0 1 1 1 2 2 3 3 3 3 2 2 2 3 3 2 2
5 6 6 7 8 10 12 13 14 16 17 18 19 19 18 19 19 19 18 17 16 15 14 12 10 9 8 7 6 5 3 2 1 0 1 1 1 2 2 2 2 1 1 1 0 1 1 1 1
4 5 6 7 8 10 11 12 15 16 17 18 19 19 19 20 20 20 19 17 16 16 15 13 11 9 9 8 6 5 3 2 1 0 1 1 1 1 2 1 1 1 1 1 0 1 1 1 0
4 5 5 6 7 8 9 12 14 16 17 18 19 19 20 20 20 20 19 18 17 16 16 14 12 10 9 8 8 6 5 3 1 1 0 1 1 1 1 1 1 1 1 1 2 1 1 1 0
5 4 4 5 6 5 8 11 13 14 16 17 19 20 21 20 20 20 20 19 17 17 16 15 13 11 10 9 8 7 6 4 3 2 1 1 1 1 1 1 2 2 2 2 2 1 1 1 2
2 2 2 3 5 6 8 8 11 14 16 17 19 20 20 20 20 19 20 19 19 17 17 15 13 12 11 10 9 8 7 4 3 2 2 2 1 1 1 1 2 2 2 2 2 2 3 3 3
2 2 1 2 4 7 8 9 12 13 15 16 17 18 19 20 20 19 19 19 19 18 17 16 15 13 12 11 10 9 7 5 4 3 2 2 1 1 1 2 2 2 3 3 3 3 3 4 4
6 3 2 1 3 5 7 8 12 12 13 15 16 17 19 19 20 19 19 19 19 18 16 16 15 14 13 12 12 11 9 7 5 4 3 3 2 2 2 2 2 3 4 4 4 4 4 4 4
6 5 3 4 4 1 4 6 9 13 13 13 14 16 17 18 19 19 19 19 19 18 17 17 16 15 14 14 13 12 10 8 6 6 5 5 4 3 2 3 3 4 4 5 5 5 5 5 6
6 5 4 6 5 1 3 6 6 9 11 13 14 15 16 17 17 18 18 19 18 18 18 18 17 16 15 14 13 12 11 9 8 7 7 6 4 3 3 3 4 4 5 5 6 7 7 7 7
6 6 6 6 4 4 6 9 8 8 10 11 13 14 14 15 16 17 18 19 18 18 18 17 17 16 15 15 14 13 12 11 10 9 8 7 5 4 4 4 4 5 5 6 6 7 8 8 8
8 9 9 8 4 6 7 11 9 8 8 10 12 13 14 15 15 16 17 18 18 17 17 17 17 16 15 15 13 13 12 11 11 9 9 7 6 5 5 5 5 6 6 6 6 7 8 8 9
12 11 10 7 5 6 7 10 12 11 6 8 11 13 14 14 15 16 16 17 17 17 17 17 17 17 16 15 13 12 12 11 11 11 9 8 7 7 7 6 6 6 6 7 7 7 8 8 9
13 11 9 6 6 9 9 9 13 11 8 7 10 12 13 13 14 15 16 16 17 16 16 16 17 16 16 15 14 13 12 12 12 11 10 9 9 8 8 7 7 7 7 7 8 8 8 8 9
15 11 7 6 8 9 7 9 11 11 10 10 10 11 11 12 13 15 15 16 16 16 16 16 16 16 16 15 15 14 12 12 13 12 11 10 10 9 9 8 8 8 8 8 9 9 10 10 10
16 14 11 9 9 9 8 10 10 11 11 11 10 9 10 11 13 14 15 15 16 16 16 16 16 16 16 16 15 15 13 13 13 12 12 12 12 11 11 10 9 9 9 9 10 10 10 11 11
17 16 13 11 11 12 10 11 10 11 12 10 9 9 10 10 12 13 14 15 15 16 15 15 15 15 15 16 16 15 15 14 14 13 13 13 12 12 12 11 9 9 9 10 10 11 11 11 12
22 17 15 16 14 13 12 12 12 11 11 11 10 11 11 11 12 12 14 14 15 16 15 15 15 15 15 16 16 16 16 15 14 14 14 14 14 14 12 12 12 11 11 10 11 11 12 12 13
22 21 20 17 15 12 12 13 14 14 12 13 12 11 11 11 12 12 13 14 14 15 16 16 15 15 15 16 16 16 16 16 14 14 15 15 15 14 14 14 14 12 11 11 11 12 12 12 13
23 21 21 20 19 17 13 14 15 13 12 14 14 13 12 12 12 12 13 13 14 15 16 16 16 16 16 16 17 17 18 17 16 15 15 16 15 15 15 14 14 13 13 12 13 13 13 13 14

GEFSSGP_500_meanwind_198.txt.gz
Wind_Speed
19 19 18 18 19 19 19 19 17 16 14 14 13 13 11 10 9 7 7 7 7 8 7 7 7 7 7 7 6 5 5 4 4 3 3 3 4 4 5 6 6 6 6 6 7 7 8 8 7
19 19 19 19 20 19 20 20 18 17 15 15 13 13 11 10 9 8 8 8 8 8 7 7 7 7 7 6 6 5 5 4 4 3 3 3 3 4 4 4 5 5 6 6 6 7 7 7 7
18 19 20 21 21 20 21 20 19 18 17 15 14 13 12 11 10 9 9 10 10 9 8 7 6 6 6 5 5 4 4 4 3 3 3 3 3 3 4 4 5 5 5 6 6 6 7 7 7
17 18 21 21 21 22 22 21 20 19 17 16 15 14 13 13 12 11 12 12 12 10 9 8 7 6 5 5 5 4 4 3 3 3 3 3 3 3 4 5 5 5 5 5 5 6 6 6 7
17 19 20 20 22 22 22 21 20 19 18 18 17 16 14 14 14 13 13 13 12 11 10 8 8 7 6 5 5 4 4 3 3 3 3 3 3 3 4 4 5 5 5 5 5 5 5 5 6
17 19 20 20 21 21 22 22 20 19 19 19 19 17 16 15 15 14 14 13 12 11 10 10 9 8 7 6 5 4 4 3 3 3 3 3 3 4 4 4 4 4 4 4 5 5 5 5 5
17 18 19 19 20 20 21 21 20 20 20 20 19 18 17 16 16 15 14 14 13 12 11 10 9 8 7 6 6 5 4 3 3 2 3 3 3 3 4 4 4 5 5 5 4 5 5 5 5
17 17 17 18 19 20 21 20 20 21 20 20 20 19 18 17 16 15 15 14 13 12 11 11 10 9 8 7 6 5 4 3 3 3 3 3 3 3 4 5 5 5 5 5 4 4 4 5 5
15 15 15 17 18 19 20 21 22 22 21 21 21 19 18 18 17 16 16 15 14 13 12 11 11 10 8 7 6 6 4 3 3 3 3 2 3 3 4 5 5 5 5 4 4 4 4 5 5
13 13 15 16 17 19 20 21 22 23 22 21 21 20 19 19 18 17 17 16 15 14 12 11 11 10 9 8 7 6 5 4 3 2 2 2 2 3 4 4 4 5 5 4 4 4 4 4 4
13 13 15 16 17 19 20 20 21 22 22 21 21 20 20 20 19 18 17 17 16 15 13 12 11 11 9 9 8 6 5 4 3 2 2 2 2 3 4 4 4 4 4 3 4 4 4 3 3
11 11 13 16 17 18 19 20 20 20 21 21 20 21 21 21 20 19 18 18 17 15 14 12 11 10 9 9 8 7 6 5 3 3 2 2 2 3 3 3 2 2 2 2 2 3 3 2 2
7 10 11 14 17 19 19 20 20 19 19 20 20 21 21 21 21 20 19 19 18 16 15 13 12 11 11 10 9 8 7 6 4 3 2 2 3 3 3 2 2 2 1 1 2 2 2 1 2
6 8 10 12 14 17 17 18 18 18 19 20 21 20 21 21 21 21 21 20 18 17 16 14 13 12 12 11 10 7 6 6 5 3 2 2 2 2 2 2 2 1 1 1 1 1 1 1 1
6 5 7 9 12 14 15 16 16 17 18 19 20 20 20 21 21 21 21 20 18 17 17 15 14 13 12 12 10 8 6 6 5 4 3 2 2 2 2 1 1 1 1 1 1 1 1 1 2
5 4 4 7 9 11 12 14 16 16 16 18 19 19 20 21 21 21 20 19 18 18 17 16 14 13 13 12 11 9 7 6 5 4 3 2 2 1 1 1 1 1 0 0 0 1 1 2 2
6 4 3 4 6 9 10 12 15 16 16 17 18 18 20 20 20 20 20 20 18 18 17 16 14 13 13 12 11 10 8 7 6 5 4 3 2 2 1 1 1 1 0 1 1 1 1 2 2
6 3 1 2 3 6 8 12 14 15 16 16 16 17 18 19 19 19 20 20 18 17 17 17 15 14 13 12 11 10 8 7 6 6 4 4 3 2 1 1 1 0 1 1 2 2 2 2 3
6 3 1 1 3 5 8 10 12 13 15 15 15 16 17 18 18 19 20 19 19 18 17 17 16 14 13 13 12 11 10 9 8 7 5 4 3 2 1 1 1 1 1 2 2 3 3 3 4
7 3 1 2 4 6 8 9 11 12 14 14 13 14 15 17 18 18 18 19 18 18 17 17 16 15 14 13 13 12 10 10 9 8 7 5 4 3 2 2 1 1 2 2 3 4 4 5 5
8 4 3 2 4 5 7 9 11 11 12 13 13 13 14 15 16 17 17 18 18 18 17 16 15 14 14 13 13 12 11 10 9 8 7 6 4 3 2 2 2 2 2 3 3 3 4 4 5
11 7 5 6 6 6 7 8 11 11 11 12 12 12 12 14 15 15 16 17 17 17 17 16 16 15 14 13 13 13 12 11 10 9 8 8 6 4 3 3 2 2 3 4 4 4 4 5 5
13 10 9 9 8 7 8 9 9 10 10 11 11 11 11 13 14 14 15 16 16 17 17 16 16 15 14 13 12 12 12 11 11 10 9 9 7 6 5 4 3 3 4 4 5 5 5 5 6
15 13 12 10 9 7 7 9 8 8 10 11 9 10 10 11 12 13 13 14 15 16 16 16 15 15 14 13 12 12 11 11 10 10 10 10 9 7 6 5 4 4 5 6 6 7 7 7 7
18 15 14 12 10 8 8 8 8 7 9 10 8 8 9 9 11 12 13 13 13 14 15 15 15 15 14 14 13 12 12 11 11 11 11 11 10 9 7 6 6 5 5 6 7 8 8 8 8
19 18 16 13 11 9 9 10 9 8 8 9 7 7 8 9 10 11 12 12 12 13 14 14 14 14 14 14 14 13 13 12 12 12 11 11 10 10 9 7 7 6 6 6 7 7 7 8 8
20 20 17 15 13 12 11 10 9 9 10 8 7 7 7 8 9 9 10 11 11 12 12 12 13 14 14 14 14 14 14 14 14 13 12 11 11 10 9 9 8 8 8 8 7 7 8 8 9
20 20 20 18 15 12 11 9 9 8 8 9 7 6 7 8 8 9 9 9 10 11 11 11 12 13 14 14 14 15 15 14 15 14 13 12 11 11 10 9 9 9 9 9 9 9 9 9 10
22 22 23 21 18 15 14 12 10 9 8 8 8 7 7 7 8 8 8 9 9 11 11 10 11 12 13 14 14 15 16 16 15 15 14 13 12 12 11 10 10 9 9 10 10 10 10 11 11
24 23 23 23 21 18 16 15 12 10 9 8 8 8 9 8 7 8 8 8 9 10 10 10 11 12 13 14 15 16 17 17 17 16 15 14 13 12 11 11 10 10 11 11 11 11 11 12 12

GEFSSGP_500_meanwind_204.txt.gz
Wind_Speed
22 21 20 20 20 19 19 20 19 18 16 15 14 13 13 12 10 9 9 9 8 7 7 8 8 8 8 9 9 9 8 8 8 8 7 7 7 7 7 7 7 7 6 6 6 6 6 7 7
21 20 19 19 19 20 20 21 20 19 17 16 15 14 13 12 11 10 10 9 8 7 7 7 8 8 8 8 8 8 8 8 7 7 7 7 7 7 7 7 6 6 6 6 6 6 6 6 6
20 20 20 20 19 21 21 22 21 20 18 17 16 15 13 11 11 10 10 9 8 7 7 8 8 7 7 7 7 7 7 7 7 7 7 7 6 6 6 6 6 6 6 6 6 6 6 6 6
21 21 19 20 21 22 22 22 22 21 19 18 17 15 13 12 11 10 10 9 8 7 8 8 8 8 7 7 7 7 7 7 7 7 7 6 6 6 6 6 6 6 6 6 6 6 6 6 6
20 20 19 20 21 22 23 23 23 22 20 18 16 15 13 13 12 11 10 9 9 8 8 9 8 8 8 7 7 7 6 6 6 6 6 6 6 7 6 6 6 6 6 6 6 6 6 5 5
21 20 20 20 21 22 23 23 23 22 20 18 16 15 14 13 12 12 11 10 10 10 10 9 9 8 8 8 7 7 6 6 5 5 6 6 6 6 6 5 6 6 6 6 5 5 5 5 5
21 20 20 21 23 23 24 23 23 22 20 19 17 16 15 13 13 12 12 11 11 11 10 10 9 8 8 7 7 6 6 5 5 5 5 5 5 5 5 5 5 5 5 5 5 4 4 4 4
20 20 20 22 23 24 24 25 23 22 21 20 18 17 15 14 13 13 12 11 11 11 11 11 10 9 8 7 7 6 6 5 5 4 4 5 5 5 5 5 5 5 5 5 4 4 4 4 3
20 19 21 23 23 23 24 25 24 23 21 20 20 18 16 14 14 14 13 13 12 12 12 11 11 9 8 8 7 6 5 5 4 4 4 5 5 5 5 5 5 5 4 4 4 4 4 3 3
19 19 21 22 23 23 23 24 23 23 22 21 20 18 17 15 14 14 14 14 13 13 12 12 11 10 9 8 7 6 5 5 5 4 3 4 5 5 4 4 4 4 4 3 3 3 4 3 3
17 19 19 20 22 23 23 23 23 22 22 20 19 18 17 16 15 14 14 14 14 13 12 12 11 10 9 8 8 7 6 6 5 5 4 4 4 4 4 4 4 4 3 3 2 3 3 3 3
15 16 18 19 20 21 22 22 21 21 21 19 18 18 18 17 16 15 14 14 13 13 12 12 12 11 10 9 8 7 6 6 5 5 4 4 4 3 4 4 4 4 3 2 2 2 2 2 2
12 14 15 17 19 20 21 21 21 20 20 18 17 17 18 17 17 16 15 14 13 13 12 12 11 11 10 9 8 7 6 5 5 4 4 4 3 3 3 3 3 3 3 3 2 2 2 1 1
10 11 13 15 17 18 19 20 20 20 19 17 16 17 17 17 17 16 15 15 14 13 12 11 11 10 10 9 8 6 6 6 5 4 4 4 3 3 3 2 2 3 3 3 2 2 2 1 1
8 9 10 12 15 17 18 19 20 20 19 17 16 16 17 16 16 17 16 15 15 14 13 12 11 10 10 10 9 7 6 5 4 4 4 3 2 2 2 2 1 2 3 3 2 2 2 1 1
6 7 8 10 12 14 16 18 19 19 17 16 16 16 16 16 17 17 16 16 15 14 13 12 12 11 10 10 10 8 7 6 5 4 3 2 2 2 1 1 2 2 3 3 3 2 2 2 2
5 5 6 7 9 11 14 15 17 17 17 15 15 15 14 15 16 16 16 16 16 14 13 12 12 11 10 10 10 9 8 7 5 5 4 3 2 1 0 1 1 2 2 3 3 3 3 3 3
3 4 5 6 8 9 11 13 15 15 15 15 14 14 14 14 15 16 16 17 16 15 14 13 12 12 11 10 10 10 9 8 6 6 5 4 3 2 1 0 1 1 2 3 3 3 3 4 4
5 3 2 4 6 7 9 10 12 13 14 13 13 13 14 14 15 15 16 16 16 15 14 14 13 12 12 11 11 10 9 9 8 6 6 5 4 2 2 1 1 2 2 2 3 4 4 5 5
7 5 3 1 3 5 6 8 9 11 12 12 11 11 13 14 15 15 15 15 16 15 14 13 13 12 12 12 11 10 10 10 10 9 7 6 5 4 3 2 2 2 2 3 3 4 5 5 5
10 7 6 2 1 3 4 6 8 9 10 11 11 11 11 12 13 14 15 15 15 15 15 14 13 12 12 12 12 12 11 11 11 10 9 8 6 5 4 3 3 3 3 4 4 5 5 6 6
12 10 8 6 2 1 3 5 6 8 9 10 10 10 10 11 11 12 13 13 14 14 14 13 13 12 12 13 13 12 11 11 11 10 9 8 7 6 5 5 5 4 5 5 5 5 5 6 7
15 13 11 8 6 3 3 4 5 6 8 9 9 9 9 9 10 10 11 12 12 13 13 13 13 12 12 12 12 12 12 11 11 10 10 9 8 7 6 5 5 6 6 6 6 6 6 7 8
18 15 13 11 9 7 5 5 4 6 7 8 8 9 9 8 8 9 10 11 11 12 12 12 13 12 12 12 12 12 12 12 12 11 10 10 10 9 7 7 6 6 7 7 7 8 8 9 9
19 17 16 13 11 9 7 7 5 6 6 7 8 9 9 8 7 8 9 10 10 11 11 11 12 12 12 13 13 13 12 12 12 12 12 12 11 10 9 8 8 8 8 7 7 8 9 9 9
21 19 18 17 15 12 10 9 7 6 6 6 7 8 8 7 7 8 9 10 10 10 11 10 11 11 12 12 13 14 13 13 12 12 12 12 11 10 10 9 9 8 8 8 8 9 10 9 9
24 21 20 20 18 16 14 12 10 8 7 7 7 7 7 6 6 7 8 9 9 10 10 10 9 10 10 11 12 13 14 14 13 13 13 13 12 12 11 11 10 10 9 10 10 10 11 11 11
26 24 22 22 20 18 16 15 12 10 8 8 7 7 7 6 6 6 7 8 8 9 9 9 8 8 9 10 11 13 14 14 14 14 14 14 13 13 12 12 12 11 10 11 11 11 11 11 11
28 26 24 23 22 20 19 15 13 12 10 9 8 7 7 6 6 6 7 7 7 8 9 8 7 8 9 10 11 13 14 15 15 16 17 16 14 14 14 13 12 12 11 11 11 12 12 12 13
30 28 26 25 24 23 22 18 15 13 11 10 9 8 7 7 7 7 7 7 7 7 8 8 8 8 9 11 12 14 15 16 17 17 17 17 16 16 15 14 14 13 12 12 13 13 13 13 13

GEFSSGP_500_meanwind_210.txt.gz
Wind_Speed
20 19 18 18 20 17 16 16 15 14 13 12 12 12 11 11 9 9 8 8 8 7 7 6 6 6 6 6 7 8 8 9 9 9 9 9 10 10 9 9 8 8 8 9 10 11 11 11 11
20 20 19 21 19 17 17 17 16 16 14 14 13 12 12 10 10 9 9 8 7 7 6 6 6 6 6 6 7 8 9 9 9 9 9 9 9 9 8 8 8 8 8 9 10 10 10 10 9
20 20 21 21 19 18 18 18 17 17 16 15 14 13 12 11 10 10 9 8 8 7 6 6 5 5 6 6 7 8 9 9 9 9 9 9 9 9 9 9 9 8 8 9 10 10 9 9 9
19 20 22 20 20 20 20 19 19 18 17 16 15 14 13 12 11 10 9 8 7 7 6 5 5 5 6 6 7 7 8 8 8 8 8 9 9 9 9 9 9 9 9 9 9 9 9 9 8
19 21 20 19 20 21 21 21 20 19 18 17 16 15 14 13 12 10 9 8 8 7 6 5 5 5 6 6 7 7 7 8 8 8 8 8 9 9 9 9 9 9 9 9 9 8 8 8 8
20 20 17 19 20 21 22 22 21 20 19 18 16 16 14 13 12 11 10 9 8 8 7 6 6 5 6 6 6 7 7 7 8 8 8 8 9 9 9 8 8 8 8 8 8 8 8 8 7
21 18 17 18 19 21 22 22 22 20 20 18 17 16 15 14 13 11 10 10 9 8 7 6 6 6 6 6 6 7 7 6 7 7 8 8 8 8 8 8 8 8 8 8 7 7 7 7 7
19 18 17 19 20 20 21 22 22 21 20 19 18 16 15 14 13 12 11 10 9 8 7 7 6 6 5 5 6 6 6 6 6 7 7 7 7 7 7 7 8 7 7 7 7 6 6 6 6
19 18 17 19 20 20 21 21 21 21 20 19 18 17 15 14 13 12 11 10 9 8 8 7 7 6 5 5 5 5 5 5 6 6 6 6 6 6 6 7 7 7 6 6 6 6 6 5 5
18 16 17 18 19 20 21 21 21 20 20 19 18 17 15 14 13 12 11 10 9 8 8 7 7 6 6 5 5 5 5 5 5 6 6 6 6 6 6 6 7 6 6 6 6 5 5 5 5
16 16 17 18 18 20 21 21 21 20 19 19 18 16 15 14 12 12 11 10 9 9 8 8 7 7 6 6 5 5 5 5 5 5 5 5 5 5 5 6 6 6 5 5 5 5 5 4 3
15 15 16 17 18 19 20 20 21 20 19 19 18 16 15 14 12 11 10 9 9 9 8 8 8 7 6 6 6 5 5 5 5 5 4 5 5 4 5 5 5 5 5 5 4 4 4 3 3
13 14 14 15 16 18 18 19 19 19 19 19 18 17 16 15 13 12 11 10 9 9 9 9 8 8 8 6 6 5 5 5 4 4 4 4 4 4 4 4 3 3 4 4 4 4 3 3 2
10 11 12 13 14 16 18 18 18 18 18 18 18 18 16 15 14 13 12 10 10 10 9 9 9 9 9 7 5 5 5 4 4 4 4 4 3 4 4 3 2 3 3 3 4 4 3 3 2
8 8 10 11 12 14 16 17 17 17 17 17 18 18 17 16 15 14 12 11 11 11 10 10 9 9 9 9 8 7 6 5 4 4 4 3 3 3 3 2 2 2 3 3 3 3 3 3 2
6 6 7 9 11 12 14 16 16 16 16 17 17 17 17 16 15 15 14 12 12 11 11 10 10 9 9 9 9 8 7 6 5 4 4 3 2 1 1 1 1 3 3 3 3 3 3 3 3
4 4 5 6 8 11 12 13 14 15 16 16 16 16 16 16 16 15 14 13 12 12 11 11 10 10 9 10 10 9 8 7 6 5 4 3 2 2 1 1 1 2 3 3 3 3 3 3 3
3 2 2 4 6 8 10 12 13 14 15 15 15 15 15 15 16 15 15 14 13 12 11 11 11 10 9 9 10 10 9 8 7 6 5 4 3 2 1 0 0 1 2 3 3 3 3 4 4
6 4 1 2 4 6 8 10 11 13 14 14 15 14 14 15 15 15 15 14 13 12 12 11 11 11 10 10 10 9 9 9 8 7 5 5 4 3 3 2 1 0 2 2 3 3 4 4 4
7 5 3 2 3 4 6 7 9 11 12 13 14 14 13 13 14 15 14 14 13 13 12 12 11 11 11 10 10 9 9 8 8 7 5 4 4 4 4 3 2 1 1 2 3 3 4 5 5
9 7 5 5 4 3 4 6 8 10 11 12 13 13 12 12 13 14 14 13 13 13 12 11 11 11 11 11 10 10 10 9 8 7 7 6 5 4 4 3 3 2 2 3 4 4 5 5 6
11 10 8 6 4 3 3 4 6 8 9 11 12 12 12 11 12 13 13 13 13 13 12 12 12 11 11 10 10 10 10 10 9 8 8 7 6 6 4 4 4 4 4 4 4 5 6 6 7
14 12 10 8 5 3 3 2 5 6 8 9 10 11 11 11 11 12 12 12 12 12 12 12 12 11 11 11 11 10 10 10 9 9 9 9 8 7 6 6 6 5 5 5 5 6 7 7 8
16 14 11 10 7 6 4 3 4 6 6 7 9 10 10 10 10 10 11 11 11 12 12 12 11 11 11 12 11 11 11 10 10 10 9 9 9 9 8 7 7 6 6 6 6 7 8 8 9
18 14 11 10 9 8 7 5 4 5 6 6 8 9 10 10 9 10 10 10 10 10 11 11 11 11 11 11 11 11 11 11 10 10 11 10 10 10 9 8 8 7 7 7 7 8 8 9 10
20 17 15 12 10 10 10 7 6 6 6 6 7 8 9 9 9 10 9 9 9 9 9 10 10 11 10 10 10 11 11 11 11 11 12 12 12 11 11 9 9 9 9 9 9 9 9 10 10
22 20 17 15 14 11 11 9 7 7 7 7 7 7 8 9 9 10 9 8 8 8 8 9 9 10 10 10 9 10 11 11 11 11 12 13 13 13 11 11 11 10 11 11 11 11 11 11 11
24 21 20 17 15 13 12 10 9 9 8 7 8 8 9 9 9 10 9 8 8 8 8 8 8 9 9 10 9 10 11 12 12 12 12 13 14 14 13 13 12 12 13 12 12 11 12 12 12
26 25 23 20 18 15 13 13 12 10 9 9 9 9 9 9 10 9 9 8 8 8 8 8 7 8 8 9 10 10 11 12 12 13 13 13 14 15 14 14 14 14 14 13 13 13 13 13 13
27 26 25 23 22 19 16 15 14 12 11 10 10 10 9 10 9 9 9 9 8 8 8 8 7 8 8 9 10 10 12 13 13 13 14 14 14 15 15 15 15 15 14 13 14 14 14 14 14

GEFSSGP_500_meanwind_216.txt.gz
Wind_Speed
20 20 20 20 20 13 12 11 10 9 8 7 7 7 7 7 7 6 6 6 6 5 5 4 4 3 3 4 4 3 3 3 3 4 5 6 7 8 8 8 9 9 9 10 11 11 11 11 12
20 19 22 22 14 12 12 12 11 10 10 9 9 8 8 7 7 7 7 6 6 6 5 4 4 4 3 3 4 3 3 3 3 3 5 6 7 7 8 8 8 8 8 10 10 10 10 10 11
20 22 25 16 12 13 13 13 12 12 11 10 10 10 9 9 8 8 8 7 6 6 5 5 5 4 4 3 3 3 3 3 3 4 5 6 7 7 7 7 6 7 9 10 10 9 10 10 9
22 27 21 13 14 15 14 14 13 12 12 11 11 10 10 10 9 9 9 7 7 6 6 5 5 4 4 3 3 3 3 3 4 4 5 6 6 6 7 7 7 8 9 9 9 9 10 10 9
25 23 15 14 15 15 15 15 14 13 13 13 12 12 12 11 11 10 9 9 8 7 7 6 5 5 4 3 3 3 3 4 4 3 4 5 6 6 7 7 8 8 9 9 9 9 10 10 9
25 16 12 13 15 15 15 15 14 14 14 13 14 14 13 13 12 12 11 10 10 8 7 6 6 5 4 3 3 3 3 3 4 4 4 4 6 6 7 7 7 7 8 8 9 9 9 9 9
18 13 12 14 14 14 15 14 14 14 14 15 15 14 14 14 13 12 12 11 11 10 9 7 6 5 4 4 3 3 3 3 3 4 4 5 6 6 7 7 7 7 7 7 8 8 8 8 7
14 12 11 12 14 14 14 15 15 15 15 15 15 15 15 14 14 13 12 12 11 11 10 9 7 6 4 4 3 2 2 3 3 3 3 4 5 5 6 6 6 6 6 6 6 6 7 6 6
10 10 10 12 13 14 16 16 15 16 16 16 16 16 15 15 14 13 12 12 11 11 10 9 8 6 5 4 3 2 2 2 3 3 3 3 4 4 5 5 5 5 5 5 5 6 6 5 5
9 9 10 12 13 14 16 16 16 17 17 17 16 16 15 14 14 13 13 12 11 11 10 9 8 7 6 5 4 3 2 2 2 2 3 3 3 4 4 4 5 5 5 5 5 4 4 4 4
8 10 12 13 14 15 16 18 18 17 17 17 17 16 16 15 14 14 13 12 12 11 11 11 9 8 6 5 4 3 2 2 2 2 2 3 3 3 4 4 4 5 4 4 4 4 3 2 3
8 10 12 13 15 16 17 18 18 18 17 17 17 17 16 16 15 14 13 13 12 12 12 11 11 9 7 6 5 4 2 2 2 1 1 2 2 3 3 3 4 4 3 3 3 3 2 2 2
7 10 12 14 15 15 16 17 18 18 18 17 17 17 17 17 16 14 14 13 13 12 12 11 11 10 9 8 7 5 3 3 2 2 1 1 2 3 3 3 2 2 2 2 2 3 2 2 1
6 8 11 13 15 16 15 17 18 18 18 18 18 18 18 18 17 15 14 13 12 12 12 11 11 11 10 9 8 7 6 5 4 3 2 2 2 2 2 2 1 1 2 2 2 2 2 1 1
4 5 9 12 14 14 15 17 17 17 18 18 19 19 19 18 18 16 15 13 12 12 11 11 11 10 10 10 10 8 7 6 5 4 3 2 2 1 1 1 0 1 1 2 2 2 2 2 2
3 6 8 9 10 13 15 17 17 17 17 18 18 19 19 18 18 17 15 14 13 12 12 11 11 10 10 10 9 9 8 7 6 6 5 4 2 1 1 1 1 0 0 0 1 1 1 2 2
1 3 6 7 9 11 12 14 17 17 17 17 18 19 19 18 18 17 16 15 14 13 12 11 10 10 10 10 9 9 9 8 7 6 6 5 4 3 1 1 1 0 0 1 1 1 2 3 3
1 1 3 5 8 9 10 12 15 16 17 17 17 17 18 18 18 17 17 16 15 14 13 12 11 10 10 10 9 9 9 8 7 7 6 6 5 4 2 1 1 1 1 1 1 2 3 3 3
3 2 3 4 5 6 7 10 12 14 16 16 16 15 17 17 17 17 17 16 15 14 13 12 12 11 11 10 10 9 9 8 8 7 7 6 6 6 5 3 2 2 2 2 2 3 4 4 5
5 4 4 3 5 5 5 7 9 12 13 14 15 15 15 15 15 16 16 16 15 15 14 13 13 12 12 11 11 10 9 9 8 8 8 7 7 6 6 5 4 3 4 4 4 4 5 6 6
7 7 6 4 5 6 6 8 7 9 10 12 14 14 14 14 15 15 15 15 14 14 14 13 13 13 13 12 12 11 11 10 10 10 9 9 8 7 7 7 6 5 5 5 5 5 6 7 7
9 8 8 6 6 6 6 9 7 7 9 10 11 12 13 14 15 14 14 14 13 13 14 13 13 13 13 13 12 12 12 12 11 10 10 10 9 9 8 8 7 7 6 5 6 6 7 7 8
11 10 9 7 7 7 7 11 8 4 6 8 10 11 12 13 14 14 14 13 12 12 12 12 13 13 13 13 13 12 11 11 11 10 10 10 10 10 10 9 9 8 8 7 7 8 8 8 9
13 10 8 8 9 8 6 11 10 7 6 8 7 9 10 12 13 13 13 13 12 11 11 11 11 12 12 12 12 12 12 11 10 10 10 10 10 10 10 11 10 9 8 8 8 8 9 10 10
14 11 10 10 11 10 9 9 10 8 6 7 7 7 8 10 11 13 13 13 12 11 10 11 11 11 11 12 12 12 12 11 11 11 11 11 11 11 11 11 11 10 9 9 9 10 10 10 11
15 14 14 13 13 11 11 10 9 9 7 6 7 7 8 9 10 12 13 12 11 10 10 10 10 10 11 11 11 12 12 12 12 12 12 12 11 12 12 12 12 12 11 10 10 11 11 11 12
17 17 15 16 15 15 13 9 9 10 9 8 9 7 8 8 8 10 11 11 10 10 9 9 10 10 10 11 11 11 12 12 12 12 13 13 13 13 13 13 14 13 13 13 12 12 12 12 12
19 17 15 16 16 14 12 11 11 10 7 9 10 9 8 9 8 9 11 11 10 10 10 10 10 10 10 10 11 11 12 12 12 11 12 14 15 15 15 15 15 15 15 14 14 14 14 14 14
20 19 19 18 16 14 14 14 12 12 10 8 10 11 9 9 9 8 10 10 9 9 10 10 11 10 10 11 11 12 12 12 12 13 13 14 15 16 17 17 16 16 16 16 16 15 15 15 15
21 20 19 19 19 17 16 17 12 10 10 10 10 12 10 10 9 9 9 9 9 9 11 11 11 11 11 11 12 12 13 13 13 13 15 15 16 18 18 18 18 17 17 17 17 16 16 16 16

GEFSSGP_500_meanwind_222.txt.gz
Wind_Speed
21 20 20 19 21 19 18 18 17 15 13 13 13 12 11 9 9 8 7 7 7 7 7 6 6 6 6 6 5 6 5 6 5 5 5 5 6 7 7 8 10 11 12 12 13 13 13 13 13
21 21 21 21 22 20 19 19 18 16 15 14 13 12 11 10 9 8 8 8 8 8 7 7 7 6 6 6 6 6 5 5 6 5 5 6 6 7 8 8 9 11 11 11 12 11 12 12 12
21 22 23 23 22 20 20 19 19 18 16 15 14 12 11 10 10 9 9 9 9 8 8 7 7 7 6 6 6 6 5 6 6 6 6 6 6 7 7 8 9 11 11 11 12 12 11 12 11
22 24 25 24 22 21 20 19 19 18 17 16 16 13 11 11 11 10 10 9 9 8 8 7 7 7 7 7 6 6 6 6 6 7 6 6 6 7 7 7 9 9 10 11 11 11 11 11 10
23 25 25 23 22 22 21 20 20 18 17 17 17 15 13 13 12 12 11 11 10 9 8 7 7 7 7 7 7 6 6 6 6 7 6 6 6 7 7 7 8 9 9 9 9 10 10 10 10
21 23 22 21 22 21 20 20 19 18 18 18 17 16 15 15 14 12 12 11 11 10 9 8 8 7 7 7 6 7 7 7 7 6 6 6 6 7 7 7 8 8 9 9 10 10 10 10 9
21 21 20 20 20 20 20 20 19 19 18 18 18 17 15 15 14 13 13 12 11 11 10 9 8 8 7 7 6 7 6 7 7 7 7 6 6 7 7 8 8 8 8 9 10 10 9 9 9
20 19 19 19 19 20 20 20 19 19 18 18 18 18 16 15 15 14 14 13 12 12 11 10 9 8 7 7 7 7 7 7 7 7 7 7 7 7 7 7 7 7 8 8 8 8 8 8 8
17 17 19 19 19 19 19 19 19 19 18 18 18 17 16 15 15 14 14 14 13 12 11 11 10 9 8 7 7 7 6 6 6 6 7 8 8 7 7 7 7 7 8 8 8 7 8 7 6
16 15 17 19 19 20 19 18 19 20 19 18 18 17 16 16 15 15 14 13 13 13 12 11 10 9 8 8 7 7 7 6 6 6 7 7 7 6 7 6 7 7 7 7 7 7 7 6 6
14 14 16 18 19 20 20 20 20 20 19 18 17 17 17 16 15 15 14 14 13 13 13 12 11 10 9 8 7 7 6 6 7 7 7 6 6 6 6 6 7 7 7 6 6 5 5 5 5
12 13 14 16 19 20 21 20 20 20 19 18 18 17 17 16 15 15 14 14 13 13 13 13 12 11 10 8 7 7 6 6 6 6 6 6 6 5 6 6 7 7 6 6 5 5 4 4 4
10 12 14 16 18 19 20 19 20 20 20 19 19 18 18 17 16 15 14 14 14 13 13 13 13 12 11 9 8 7 7 6 6 5 5 5 5 5 5 6 6 6 5 5 4 4 3 3 3
8 9 11 14 16 18 18 18 20 20 20 20 19 18 18 17 16 15 14 14 14 13 13 13 13 12 11 10 9 8 7 6 6 5 5 5 5 5 5 5 5 5 4 4 3 3 2 2 3
7 7 8 11 14 16 18 19 19 19 19 19 19 18 18 17 16 16 15 14 14 13 13 13 13 12 12 11 10 9 9 8 7 6 6 5 5 5 5 4 4 3 3 3 3 2 2 2 2
6 6 8 9 11 14 15 18 18 18 18 18 18 18 18 18 17 16 16 15 14 14 13 13 13 12 12 11 11 10 10 9 9 7 6 6 5 5 4 4 4 3 3 2 2 1 1 2 2
6 5 6 7 9 11 13 15 16 15 16 17 17 17 17 18 17 17 16 16 15 14 13 13 13 12 12 12 11 11 10 10 9 9 8 6 5 5 4 4 3 3 2 1 1 1 2 2 3
2 3 4 5 7 9 10 11 13 13 14 15 15 15 16 17 17 16 16 16 16 15 14 14 14 13 12 12 11 11 11 10 9 9 8 7 6 5 5 4 3 3 2 0 1 1 2 2 3
2 1 2 3 6 8 8 8 9 10 12 13 14 14 15 16 16 15 15 16 15 15 15 15 14 14 13 11 11 10 10 10 9 9 8 8 7 6 5 4 3 3 2 1 0 1 2 2 3
4 1 1 3 5 7 7 7 8 8 10 11 12 13 13 14 14 14 14 14 15 14 14 14 14 14 14 13 11 11 10 9 9 9 9 8 7 6 6 5 4 3 3 2 1 1 2 3 3
5 4 3 5 7 8 7 5 6 6 7 9 11 11 11 12 13 12 12 13 14 14 14 13 14 14 14 13 13 12 11 9 9 9 9 9 8 7 6 5 5 4 3 3 2 1 2 3 4
7 6 7 9 10 8 7 8 7 5 6 7 8 8 9 11 11 11 10 11 13 13 13 13 13 14 14 13 13 13 13 11 10 9 10 9 9 8 7 6 5 4 3 3 3 3 3 4 5
10 9 9 10 10 11 10 10 8 4 5 5 6 6 8 9 10 10 9 10 12 12 12 12 13 13 13 13 13 13 13 12 11 10 10 9 9 9 9 8 7 6 5 4 4 4 4 5 5
12 11 12 13 13 13 12 11 10 7 5 3 4 4 5 7 9 9 10 10 11 11 11 11 12 12 12 12 12 12 12 12 11 10 10 10 10 9 9 8 8 7 7 5 5 5 5 5 6
15 15 15 15 15 13 13 12 10 8 5 3 2 2 3 4 6 7 8 8 9 9 9 10 10 10 11 11 11 11 11 11 10 10 9 9 10 10 10 9 9 8 7 7 6 6 6 7 7
17 16 16 15 15 14 15 12 9 8 6 4 2 2 1 3 5 6 6 6 7 7 8 8 9 9 9 9 10 10 10 10 10 10 9 9 9 10 10 10 10 10 9 8 7 7 8 8 8
18 18 16 16 15 15 15 13 10 8 7 5 2 2 1 2 3 4 4 4 4 5 6 7 7 7 8 8 8 8 9 9 10 10 10 10 10 10 11 11 11 10 10 9 9 9 9 10 10
18 18 18 17 16 15 15 14 10 8 8 6 3 3 2 1 1 1 2 2 3 4 5 5 5 6 6 6 7 7 8 8 8 9 10 10 11 12 12 12 11 11 11 10 10 10 10 11 11
19 19 20 18 17 16 15 14 11 9 8 6 5 4 2 1 1 1 1 1 2 2 3 3 4 5 6 6 7 8 8 8 8 9 9 10 11 12 13 13 13 13 13 12 12 12 12 12 13
20 20 20 20 19 18 17 15 12 11 10 7 6 5 4 3 3 3 2 2 3 2 2 3 4 5 5 6 6 7 7 8 8 9 10 11 12 13 13 14 14 15 14 14 13 13 13 14 14

GEFSSGP_500_meanwind_228.txt.gz
Wind_Speed
21 20 18 18 17 16 16 16 17 16 14 12 11 11 10 9 9 8 7 7 6 5 5 5 6 6 6 6 6 6 6 5 6 6 6 6 6 7 8 9 10 10 10 10 12 14 12 13 13
21 21 19 19 18 18 18 18 18 17 16 14 12 12 11 10 9 8 8 7 6 5 5 6 6 6 7 7 7 6 6 6 7 6 6 6 6 8 9 9 9 9 10 11 13 14 13 13 12
20 21 20 19 18 19 19 19 19 18 16 15 14 13 12 10 9 9 8 7 6 6 6 7 7 7 7 7 7 7 7 6 6 6 6 7 7 8 8 8 8 9 10 11 12 12 11 11 10
19 21 21 19 18 19 19 19 20 19 18 16 15 14 12 11 10 10 9 8 7 6 7 7 7 7 7 7 7 7 7 7 7 7 6 7 7 8 8 8 8 9 10 10 10 10 11 11 11
20 21 21 20 20 19 20 20 20 20 18 16 15 14 13 12 11 10 9 8 7 7 8 8 8 8 7 7 7 7 8 7 7 7 7 7 7 7 7 7 9 10 11 11 10 10 10 10 10
21 21 21 21 21 20 20 20 21 19 18 17 15 15 14 12 11 11 10 9 8 8 8 8 8 8 8 7 8 7 7 8 8 8 8 7 7 7 7 8 9 10 10 10 10 10 9 8 8
20 20 21 21 22 21 20 20 20 19 18 17 16 15 14 13 12 11 11 10 9 8 8 8 8 8 8 8 8 8 7 7 8 8 8 7 8 8 8 8 9 9 8 8 9 9 8 7 7
19 19 21 22 22 21 20 20 20 19 18 17 16 16 15 13 12 12 12 11 10 10 9 8 8 8 9 8 8 8 8 8 8 8 8 8 8 8 8 8 8 9 8 8 8 8 7 7 7
18 19 20 21 21 21 20 20 19 19 18 17 17 16 15 14 13 12 12 12 11 10 9 9 8 9 9 8 9 9 8 8 8 8 8 8 9 9 9 9 8 7 7 7 8 7 7 7 6
17 19 19 20 20 20 20 20 19 19 19 17 17 16 15 14 13 13 13 13 12 11 10 9 9 9 9 9 9 9 9 8 8 8 8 9 9 8 8 9 8 8 7 7 7 7 6 6 5
16 17 18 19 20 20 20 20 20 19 19 18 16 16 15 14 14 13 13 13 13 12 11 10 9 9 9 8 8 8 8 8 8 8 8 8 8 8 8 8 7 7 7 7 7 6 5 5 4
15 15 16 17 18 19 19 19 20 20 19 18 16 16 16 15 14 13 13 12 13 13 12 12 10 9 9 9 9 8 8 7 7 7 7 8 8 7 7 7 7 7 6 6 5 5 4 4 3
12 14 14 15 16 17 18 19 19 19 19 17 16 15 16 15 14 14 13 13 12 12 12 11 11 10 9 9 8 8 7 7 7 7 7 7 7 7 7 7 7 6 6 5 4 4 4 3 2
10 11 12 13 15 15 17 17 18 18 18 17 16 15 15 15 15 14 14 13 12 12 12 11 10 10 9 8 8 8 7 7 7 6 6 6 6 6 6 6 5 5 5 4 4 3 3 3 3
7 9 10 12 13 14 15 16 17 17 18 17 16 16 16 16 15 15 14 14 13 12 12 11 11 10 10 9 8 8 8 7 8 7 7 6 6 5 5 5 4 4 3 3 3 2 2 3 3
5 7 9 10 12 12 12 14 14 15 16 17 16 16 16 16 15 15 14 14 13 12 12 11 11 11 10 10 9 8 8 8 7 7 6 6 5 5 5 4 3 3 2 2 2 2 1 2 2
2 4 6 8 9 10 11 11 12 13 14 15 15 15 15 15 15 14 14 14 13 12 12 11 10 10 10 10 10 9 8 8 7 7 6 6 5 5 4 3 2 2 2 1 1 1 1 2 2
2 1 3 5 7 8 9 9 10 11 12 13 13 14 14 14 14 14 13 13 13 12 12 11 10 10 10 10 10 9 9 8 8 7 7 6 5 4 3 2 2 1 1 1 0 1 1 2 3
5 3 1 2 4 5 7 8 8 9 10 11 12 12 12 12 12 12 12 12 12 12 11 11 11 10 10 10 9 9 9 8 8 7 7 6 5 4 4 2 1 1 0 1 1 2 3 2 3
8 6 5 4 4 4 6 7 7 8 8 9 10 10 10 10 11 11 11 11 12 11 11 11 10 10 11 10 10 10 9 8 8 8 7 6 5 4 3 3 2 1 1 1 2 2 2 3 3
10 9 8 7 6 5 5 6 8 8 8 8 8 9 9 9 9 10 9 10 10 10 10 10 10 10 11 11 11 10 10 10 9 8 8 7 6 5 3 2 2 1 1 2 2 3 3 4 4
12 11 11 9 8 7 7 7 7 9 7 7 7 7 7 7 7 8 8 8 8 9 9 9 9 10 10 10 11 10 10 10 9 8 8 8 7 6 5 4 3 3 2 3 3 3 4 5 5
15 13 12 11 11 10 9 9 8 7 6 6 6 6 6 5 5 7 7 7 7 7 8 9 9 9 9 10 10 10 9 9 9 8 8 7 7 7 6 5 5 5 3 3 3 4 5 6 7
17 15 15 14 14 12 11 10 8 6 6 6 6 6 5 4 4 5 6 6 6 7 7 7 8 8 8 8 9 8 9 9 9 9 8 7 7 6 6 6 6 6 5 5 5 5 6 7 7
19 18 17 16 15 13 12 11 7 6 6 6 6 5 5 4 3 3 4 5 5 5 5 6 6 6 6 7 7 7 7 7 7 8 7 7 7 7 6 6 6 6 6 6 6 6 6 6 7
20 19 18 18 16 15 15 14 11 9 8 7 7 6 6 5 4 3 3 2 3 3 3 3 4 4 4 5 5 5 5 5 6 6 6 6 6 6 6 6 7 7 7 7 7 7 7 7 8
23 21 20 19 18 18 17 15 14 12 11 9 8 8 7 7 6 5 4 3 2 1 2 2 2 2 2 2 2 2 3 3 4 4 5 5 6 6 6 7 7 8 8 8 8 8 8 8 9
24 23 21 21 20 20 19 17 16 14 11 10 8 8 8 8 8 7 7 5 4 3 2 2 2 2 2 1 1 2 2 3 5 4 5 5 6 6 7 8 8 8 8 9 9 9 9 9 10
26 25 23 22 21 21 20 18 15 14 13 11 9 9 9 9 9 8 8 7 6 5 5 5 4 4 3 3 3 3 4 4 4 5 6 7 7 8 8 9 9 9 9 10 10 11 11 12 12
28 27 25 24 22 22 21 18 16 15 13 12 11 10 10 11 10 10 10 8 8 7 7 7 7 6 5 5 5 5 6 6 5 6 7 8 8 9 10 10 10 11 11 12 13 13 14 14 15

GEFSSGP_500_meanwind_234.txt.gz
Wind_Speed
17 16 16 17 18 14 13 12 12 11 10 10 10 9 8 7 7 6 6 6 5 4 4 4 4 4 4 4 4 5 5 6 7 7 7 7 8 8 10 11 10 10 11 12 12 12 13 13 12
17 17 17 18 17 14 13 14 13 12 11 11 10 10 9 8 7 7 6 6 5 5 5 4 4 4 4 5 6 6 6 7 7 7 8 8 7 8 9 11 12 12 12 13 13 12 13 13 12
18 18 19 19 16 15 14 14 14 14 13 12 11 11 10 9 8 7 7 7 6 6 5 4 4 5 5 6 6 7 7 8 8 7 8 8 8 8 9 11 12 12 12 13 13 13 13 13 12
18 19 20 18 17 16 16 15 15 15 14 13 13 12 11 10 8 8 7 7 6 5 5 5 5 5 5 6 7 7 7 7 7 8 8 8 9 9 10 11 11 11 11 12 13 14 14 13 13
19 21 19 17 17 17 17 16 16 16 16 14 13 12 12 11 10 9 8 7 6 5 5 4 5 5 5 5 6 6 7 7 8 7 8 9 9 10 11 10 10 10 11 12 12 12 13 13 12
20 20 18 17 18 18 17 16 17 17 16 15 14 13 12 12 10 9 8 7 6 5 4 4 5 5 5 5 6 7 7 7 7 7 8 9 8 9 10 10 10 10 11 12 11 10 10 10 10
20 19 17 17 18 18 17 16 17 17 16 15 14 13 13 12 11 9 8 8 6 5 4 4 4 4 4 4 6 6 7 7 7 8 8 9 9 9 10 10 10 10 11 11 11 10 10 9 9
18 19 17 18 18 18 18 17 17 17 16 16 15 14 13 13 12 11 9 8 6 5 4 3 3 4 5 5 6 7 7 7 7 7 8 9 10 10 10 10 10 11 11 11 10 9 9 9 8
17 17 16 17 18 18 18 18 17 17 17 16 15 14 13 13 12 11 10 9 8 6 5 4 4 5 5 5 5 7 7 7 7 7 9 9 10 10 10 11 11 12 12 11 10 10 9 8 7
16 15 16 17 18 18 18 19 18 18 18 17 15 15 13 13 12 12 11 10 9 7 6 5 6 6 6 6 6 7 7 7 8 8 9 9 10 10 11 11 10 10 10 10 10 10 9 8 7
14 14 15 16 17 18 18 19 19 18 17 17 16 15 14 13 12 12 11 10 9 8 6 6 6 6 6 6 7 7 7 7 8 8 8 9 10 10 10 9 8 8 9 9 8 8 7 6 6
12 13 14 16 16 17 18 18 19 18 17 16 16 14 14 13 12 12 11 11 10 8 7 6 7 7 7 7 7 7 7 7 8 9 9 9 9 9 9 9 8 8 8 8 7 7 7 6 5
10 12 14 14 15 16 17 17 18 17 17 16 16 15 14 14 13 12 11 11 10 9 9 9 8 7 7 7 7 7 7 8 8 8 9 8 8 8 8 8 7 7 7 6 6 6 6 5 4
9 11 12 13 14 15 15 16 16 17 16 16 15 15 14 14 13 12 11 11 10 10 9 9 8 8 8 7 7 7 7 7 7 8 8 8 7 7 7 6 6 6 5 5 5 5 4 3 3
7 9 11 12 13 14 14 15 15 15 16 16 15 14 14 14 13 13 12 11 10 10 10 9 9 8 8 7 7 7 6 6 6 7 7 7 6 6 6 6 5 5 4 4 5 4 4 3 4
5 8 9 10 11 12 13 14 14 14 14 15 15 14 13 13 13 13 12 11 10 10 10 9 9 9 8 7 7 7 7 6 7 6 6 6 6 5 5 5 5 4 4 3 3 4 4 4 4
3 4 4 6 8 10 11 12 13 13 13 14 14 14 13 12 12 12 12 11 10 9 9 8 8 8 8 8 7 7 7 7 7 6 6 6 5 5 5 4 4 3 3 3 3 3 4 4 4
2 0 2 4 6 8 9 10 11 11 11 12 13 13 12 11 11 11 11 11 10 9 9 8 8 8 8 8 8 7 7 7 6 6 6 5 5 4 4 4 3 3 2 2 3 3 3 4 4
5 3 3 4 4 5 7 8 10 10 11 11 11 11 11 11 10 10 10 10 10 9 9 8 7 7 7 7 7 7 7 6 6 5 5 5 4 4 3 3 3 2 2 2 2 2 3 3 3
7 5 5 5 5 5 6 7 8 9 10 10 10 11 10 10 10 10 9 9 9 9 9 8 7 7 7 7 7 7 7 6 6 5 5 4 4 4 3 2 2 2 1 2 2 2 3 3 3
9 7 7 6 5 6 6 6 7 8 8 9 10 10 10 9 8 9 9 8 8 8 8 7 7 7 7 6 7 7 7 7 7 6 5 5 4 4 3 2 1 1 1 2 3 3 2 2 3
11 10 9 7 6 7 6 6 8 8 8 8 9 9 8 8 8 8 8 8 7 7 7 7 7 6 6 6 6 6 7 7 6 6 6 5 5 4 4 3 3 2 1 1 1 2 3 4 5
14 12 11 10 8 8 8 7 8 7 7 7 8 7 7 7 7 7 7 7 6 6 6 6 5 6 6 6 6 5 6 6 6 6 5 5 5 5 4 4 3 3 2 1 2 2 3 4 5
16 14 13 12 10 10 10 8 7 7 7 7 7 7 6 7 7 6 6 6 6 5 5 5 4 5 5 5 5 5 4 5 5 5 5 4 4 4 4 4 4 4 3 2 3 4 4 5 5
18 15 13 12 12 12 12 10 9 8 7 7 7 7 7 7 6 6 6 6 5 4 4 4 3 3 4 4 4 4 3 3 3 4 4 3 3 3 3 3 3 4 4 4 5 5 5 5 5
20 18 16 14 13 13 14 11 10 9 8 8 7 7 7 7 7 7 6 6 5 4 3 3 2 2 3 3 3 2 3 3 2 2 2 2 3 3 2 3 3 4 4 5 5 6 6 6 6
22 21 18 16 15 14 14 14 11 10 9 9 9 9 8 8 8 8 7 6 6 5 4 4 3 3 3 4 3 2 3 3 3 3 2 2 3 3 3 3 4 4 5 6 7 7 7 7 7
24 21 20 18 16 15 14 14 13 12 11 10 10 10 10 10 9 9 8 8 7 6 6 5 4 4 4 4 4 4 4 4 4 4 4 4 5 5 5 5 6 7 8 8 9 9 9 9 9
25 23 21 20 19 16 16 15 15 14 12 11 11 11 12 11 10 10 9 9 9 8 7 7 7 7 6 6 5 6 5 5 5 5 5 6 7 7 7 8 9 10 10 11 11 11 10 10 10
26 24 23 22 21 19 17 17 16 15 13 13 12 12 12 12 12 11 11 11 11 10 9 9 9 9 8 8 7 7 7 7 7 7 7 9 9 10 10 10 10 11 12 12 13 12 12 13 13

GEFSSGP_500_meanwind_240.txt.gz
Wind_Speed
18 18 18 18 18 14 11 10 8 7 6 5 4 4 3 3 3 3 3 3 3 3 3 3 3 3 2 2 1 1 1 1 2 4 4 4 6 7 7 7 7 7 7 8 10 11 11 11 11
19 17 20 22 15 13 12 11 10 9 7 6 6 5 5 4 4 4 4 3 3 3 3 3 3 3 2 2 2 0 1 2 2 4 4 4 5 6 6 7 7 7 8 8 10 10 10 10 9
20 20 23 18 12 12 12 12 10 9 8 8 7 7 6 5 5 4 4 4 3 3 4 4 3 3 2 2 1 1 2 2 3 4 4 5 6 6 6 7 8 8 8 9 10 10 11 10 10
19 24 22 13 12 13 13 12 11 10 9 9 9 8 7 6 5 5 5 4 4 4 4 4 4 3 2 2 1 2 3 3 3 4 4 5 7 7 7 8 9 9 9 9 10 12 12 12 11
22 24 16 12 13 14 14 13 12 11 10 10 9 8 8 7 6 5 5 5 5 4 4 4 4 4 3 2 1 1 1 2 2 3 4 5 6 8 8 8 9 10 10 9 10 11 12 12 12
25 18 13 12 13 13 14 14 14 12 12 11 11 10 9 7 6 6 6 5 5 5 4 4 4 4 3 3 2 1 1 2 2 3 4 5 7 8 9 9 9 10 9 10 10 9 11 12 11
21 13 9 12 13 13 14 14 14 14 12 12 12 11 10 9 8 7 6 6 5 5 5 4 4 3 3 3 2 1 1 1 1 2 3 5 6 8 9 9 9 9 9 9 9 9 8 9 9
17 11 9 11 13 14 14 15 15 14 13 12 12 12 11 10 9 8 7 6 6 6 5 5 4 3 2 2 2 2 1 1 1 3 4 4 6 8 8 8 8 8 8 8 8 8 8 8 8
14 11 11 10 12 14 14 15 15 14 14 13 13 12 12 11 10 10 9 8 7 6 6 6 5 3 2 2 2 2 1 1 2 3 4 5 5 6 7 7 8 7 7 8 9 8 8 8 7
10 9 10 11 12 14 14 15 15 15 15 14 14 13 12 12 11 10 10 9 9 8 7 7 6 5 3 2 3 2 2 2 2 4 5 5 6 6 7 8 7 7 8 8 7 7 7 7 7
8 8 9 11 13 14 15 16 16 16 15 15 14 14 13 12 12 11 11 10 8 8 8 7 7 6 5 3 3 4 3 2 3 4 5 6 6 6 6 6 7 6 6 6 6 6 7 6 6
7 8 9 11 13 14 16 17 16 16 16 15 15 15 14 13 13 12 12 11 9 9 8 8 7 6 6 4 4 4 4 3 3 4 5 7 7 6 6 6 5 5 6 6 5 6 5 5 5
7 8 9 11 13 14 15 16 17 17 16 16 16 16 15 15 14 13 12 12 11 9 9 8 7 7 6 5 4 4 4 4 5 5 5 6 7 7 7 7 6 5 5 5 5 5 5 4 4
4 6 8 11 13 14 13 15 17 17 17 17 16 16 16 15 14 13 13 13 12 11 10 9 9 8 7 5 5 5 4 5 5 6 6 6 6 7 6 6 6 5 4 4 4 5 4 3 2
2 5 7 10 12 14 13 14 16 16 16 16 17 16 16 15 14 13 13 13 13 12 11 9 9 8 7 6 6 5 5 5 5 5 5 5 5 5 5 5 4 4 3 3 3 3 2 1 1
1 3 5 8 10 12 13 13 14 15 16 16 16 16 16 15 14 13 13 13 13 12 11 10 9 8 7 7 6 5 5 5 5 5 4 4 4 4 4 3 3 3 2 1 1 1 1 1 1
1 3 2 4 8 10 11 12 13 14 15 16 16 16 16 15 14 14 13 12 12 12 11 11 10 9 8 8 7 6 5 5 4 4 4 4 4 3 3 3 2 2 2 1 0 1 1 1 2
2 3 3 3 5 7 9 10 12 14 14 15 15 16 16 15 14 14 13 12 12 12 11 11 10 10 10 9 8 7 6 5 5 4 3 3 3 2 2 2 2 1 1 1 1 2 2 2 3
6 3 4 4 4 6 8 8 10 12 14 14 15 15 15 14 13 13 13 12 12 12 11 11 10 10 10 9 8 7 7 6 5 5 5 3 3 2 1 1 1 1 1 2 2 2 2 3 3
6 4 4 5 5 6 7 8 7 9 13 13 13 13 13 13 12 12 12 12 12 12 12 11 10 10 9 9 9 8 7 7 6 6 5 4 3 3 2 1 1 2 2 2 2 2 3 4 4
7 8 8 8 8 7 8 9 7 7 9 12 12 12 12 12 11 11 11 11 11 11 11 11 10 10 9 9 8 8 7 7 6 6 5 5 4 4 3 3 3 3 2 3 2 3 3 3 4
11 11 10 10 9 8 9 13 12 7 8 10 11 11 11 11 10 10 10 10 10 10 10 10 10 9 9 8 7 7 7 6 6 6 6 6 6 5 5 4 4 3 3 3 3 3 4 4 5
15 13 12 12 10 10 10 12 14 10 7 9 10 10 11 10 10 9 9 9 9 9 9 9 9 9 8 8 7 6 6 6 5 5 5 5 5 5 5 5 5 5 5 4 4 4 5 5 6
16 15 14 13 11 11 11 11 13 11 9 9 9 10 10 9 9 9 8 8 8 8 8 8 8 8 8 7 7 6 5 5 4 5 4 4 4 4 4 4 5 5 6 5 5 5 6 6 7
17 16 16 14 13 14 12 11 14 15 10 9 10 10 10 9 9 9 8 8 8 8 8 8 7 7 7 7 6 6 5 4 4 4 4 4 4 4 4 5 5 6 6 6 6 7 7 7 7
19 18 18 17 15 15 13 12 12 12 11 12 12 11 11 10 10 9 8 8 8 8 7 7 7 7 7 6 6 5 5 4 4 4 4 4 4 4 4 5 5 7 7 7 7 8 8 8 8
21 20 18 18 17 16 16 14 12 11 11 12 13 12 12 12 11 11 10 8 8 8 8 7 7 7 6 6 6 6 4 4 5 5 4 4 4 5 5 6 6 8 8 9 9 9 9 9 9
24 21 20 19 18 19 18 18 14 13 12 12 13 13 13 13 13 12 11 10 9 9 9 8 8 8 7 7 7 6 6 5 5 6 5 5 5 5 6 7 8 9 9 10 10 10 11 11 11
24 23 21 20 19 19 19 19 16 14 13 14 13 13 14 15 15 13 12 11 11 11 10 10 8 8 8 8 8 8 8 8 7 7 7 7 7 8 8 9 9 10 11 11 12 12 12 12 13
23 22 22 22 22 21 20 20 18 16 14 14 13 14 15 15 15 14 13 13 13 12 11 11 10 9 10 10 10 10 10 9 9 8 8 9 9 10 10 10 11 12 12 13 13 13 13 13 13